[[{"header":{"parameterUnit":"m.s-1","parameterCategory":1,"la1":31.0,"la2":29.5877,"lo1":-88.7671,"lo2":-86.6584,"dy":0.0162,"dx":0.0185,"nx":115,"ny":88,"refTime":"2023-09-11T06:00:00:Z","depth":0,"parameterNumber":2,"parameterNumberName":"U-component_of_WINDS"},"data":[0.0,0.0,0.0,0.0,0.0,0.0,0.0,0.0,0.0,0.0,0.0,0.0,0.0,0.0,0.0,0.0,0.0,0.0,0.0,0.0,0.0,0.0,0.0,0.0,0.0,0.0,0.0,0.0,0.0,0.0,0.0,0.0,0.0,0.0,0.0,0.0,0.0,0.0,0.0,0.0,0.0,0.0,0.0,0.0,0.0,0.0,0.0,0.0,0.0,0.0,0.0,0.0,0.0,0.0,0.0,0.0,0.0,0.0,0.0,0.0,0.0,0.0,0.0,0.0,0.0,0.0,0.0,0.0,0.0,0.0,0.0,0.0,0.0,0.0,0.0,0.0,0.0,0.0,0.0,0.0,0.0,0.0,0.0,0.0,0.0,0.0,0.0,0.0,0.0,0.0,0.0,0.0,0.0,0.0,0.0,0.0,0.0,0.0,0.0,0.0,0.0,0.0,0.0,0.0,0.0,0.0,0.0,0.0,0.0,0.0,0.0,0.0,0.0,0.0,0.0,0.0,0.0,0.0,0.0,0.0,0.0,0.0,0.0,0.0,0.0,0.0,0.0,0.0,0.0,0.0,0.0,0.0,0.0,0.0,0.0,0.0,0.0,0.0,0.0,0.0,0.0,0.0,0.0,0.0,0.0,0.0,0.0,0.0,0.0,0.0,0.0,0.0,0.0,0.0,0.0,0.0,0.0,0.0,0.0,0.0,0.0,0.0,0.0,0.0,0.0,0.0,0.0,0.0,0.0,0.0,0.0,0.0,0.0,0.0,0.0,0.0,0.0,0.0,0.0,0.0,0.0,0.0,0.0,0.0,0.0,0.0,0.0,0.0,0.0,0.0,0.0,0.0,0.0,0.0,0.0,0.0,0.0,0.0,0.0,0.0,0.0,0.0,0.0,0.0,0.0,0.0,0.0,0.0,0.0,0.0,0.0,0.0,0.0,0.0,0.0,0.0,0.0,0.0,0.0,0.0,0.0,0.0,0.0,0.0,0.0,0.0,0.0,0.0,0.0,0.0,0.0,0.0,0.0,0.0,0.0,0.0,0.0,0.0,0.0,0.0,0.0,0.0,0.0,0.0,0.0,0.0,0.0,0.0,0.0,0.0,0.0,0.0,0.0,0.0,0.0,0.0,0.0,0.0,0.0,0.0,0.0,0.0,0.0,0.0,0.0,0.0,0.0,0.0,0.0,0.0,0.0,0.0,0.0,0.0,0.0,0.0,0.0,0.0,0.0,0.0,0.0,0.0,0.0,0.0,0.0,0.0,0.0,0.0,0.0,0.0,0.0,0.0,0.0,0.0,0.0,0.0,0.0,0.0,0.0,0.0,0.0,0.0,0.0,0.0,0.0,0.0,0.0,0.0,0.0,0.0,0.0,0.0,0.0,0.0,0.0,0.0,0.0,0.0,0.0,0.0,0.0,0.0,0.0,0.0,0.0,0.0,0.0,0.0,0.0,0.0,0.0,0.0,0.0,0.0,0.0,0.0,0.0,0.0,0.0,0.0,0.0,0.0,0.0,0.0,0.0,0.0,0.0,0.0,0.0,0.0,0.0,0.0,0.0,0.0,0.0,0.0,0.0,0.0,0.0,0.0,0.0,0.0,0.0,0.0,0.0,0.0,0.0,0.0,0.0,0.0,0.0,0.0,0.0,0.0,0.0,0.0,0.0,0.0,0.0,0.0,0.0,0.0,0.0,0.0,0.0,0.0,0.0,0.0,0.0,0.0,0.0,0.0,0.0,0.0,0.0,0.0,0.0,0.0,0.0,0.0,0.0,0.0,0.0,0.0,0.0,0.0,0.0,0.0,0.0,0.0,0.0,0.0,0.0,0.0,0.0,0.0,0.0,0.0,0.0,0.0,0.0,0.0,0.0,0.0,0.0,0.0,0.0,0.0,0.0,0.0,0.0,0.0,0.0,0.0,0.0,0.0,0.0,0.0,0.0,0.0,0.0,0.0,0.0,0.0,0.0,0.0,0.0,0.0,0.0,0.0,0.0,0.0,0.0,0.0,0.0,0.0,0.0,0.0,0.0,0.0,0.0,0.0,0.0,0.0,0.0,0.0,0.0,0.0,0.0,0.0,0.0,0.0,0.0,0.0,0.0,0.0,0.0,0.0,0.0,0.0,0.0,0.0,0.0,0.0,0.0,0.0,0.0,0.0,0.0,0.0,0.0,0.0,0.0,0.0,0.0,0.0,0.0,0.0,0.0,0.0,0.0,0.0,0.0,0.0,0.0,0.0,0.0,0.0,0.0,0.0,0.0,0.0,0.0,0.0,0.0,0.0,0.0,0.0,0.0,0.0,0.0,0.0,0.0,0.0,0.0,0.0,0.0,0.0,0.0,0.0,0.0,0.0,0.0,0.0,0.0,0.0,0.0,0.0,0.0,0.0,0.0,0.0,0.0,0.0,0.0,0.0,0.0,0.0,0.0,0.0,0.0,0.0,0.0,0.0,0.0,0.0,0.0,0.0,0.0,0.0,0.0,0.0,0.0,0.0,0.0,0.0,0.0,0.0,0.0,0.0,0.0,0.0,0.0,0.0,0.0,0.0,0.0,0.0,0.0,0.0,0.0,0.0,0.0,0.0,0.0,0.0,0.0,0.0,0.0,0.0,0.0,0.0,0.0,0.0,0.0,0.0,0.0,0.0,0.0,0.0,0.0,0.0,0.0,0.0,0.0,0.0,0.0,0.0,0.0,0.0,0.0,0.0,0.0,0.0,0.0,0.0,0.0,0.0,0.0,0.0,0.0,0.0,0.0,0.0,0.0,0.0,0.0,0.0,0.0,0.0,0.0,0.0,0.0,0.0,0.0,0.0,0.0,0.0,0.0,0.0,0.0,0.0,0.0,0.0,0.0,0.0,0.0,0.0,0.0,0.0,0.0,0.0,0.0,0.0,0.0,0.0,0.0,0.0,0.0,0.0,0.0,0.0,0.0,0.0,0.0,0.0,0.0,0.0,0.0,0.0,0.0,0.0,0.0,0.0,0.0,0.0,0.0,0.0,0.0,0.0,0.0,0.0,0.0,0.0,0.0,0.0,0.0,0.0,0.0,0.0,0.0,0.0,0.0,0.0,0.0,0.0,0.0,0.0,0.0,0.0,0.0,0.0,0.0,0.0,0.0,0.0,0.0,0.0,0.0,0.0,0.0,0.0,0.0,0.0,0.0,0.0,0.0,0.0,0.0,0.0,0.0,0.0,0.0,0.0,0.0,0.0,0.0,0.0,0.0,0.0,0.0,0.0,0.0,0.0,0.0,0.0,0.0,0.0,0.0,0.0,0.0,0.0,0.0,0.0,0.0,0.0,0.0,0.0,0.0,0.0,0.0,0.0,0.0,0.0,0.0,0.0,0.0,0.0,0.0,0.0,0.0,0.0,0.0,0.0,0.0,0.0,0.0,0.0,0.0,0.0,0.0,0.0,0.0,0.0,0.0,0.0,0.0,0.0,0.0,0.0,0.0,0.0,0.0,0.0,0.0,0.0,0.0,0.0,0.0,0.0,0.0,0.0,0.0,0.0,0.0,0.0,0.0,0.0,0.0,0.0,0.0,0.0,0.0,0.0,0.0,0.0,0.0,0.0,0.0,0.0,0.0,0.0,0.0,0.0,0.0,0.0,0.0,0.0,0.0,0.0,0.0,0.0,0.0,0.0,0.0,0.0,0.0,0.0,0.0,0.0,0.0,0.0,0.0,0.0,0.0,0.0,0.0,0.0,0.0,0.0,0.0,0.0,0.0,0.0,0.0,0.0,0.0,0.0,0.0,0.0,0.0,0.0,0.0,0.0,0.0,0.0,0.0,0.0,0.0,0.0,0.0,0.0,0.0,0.0,0.0,0.0,0.0,0.0,0.0,0.0,0.0,0.0,0.0,0.0,0.0,0.0,0.0,0.0,0.0,0.0,0.0,0.0,0.0,0.0,0.0,0.0,0.0,0.0,0.0,0.0,0.0,0.0,0.0,0.0,0.0,0.0,0.0,0.0,0.0,0.0,0.0,0.0,0.0,0.0,0.0,0.0,0.0,0.0,0.0,0.0,0.0,0.0,0.0,0.0,0.0,0.0,0.0,0.0,0.0,0.0,0.0,0.0,0.0,0.0,0.0,0.0,0.0,0.0,0.0,0.0,0.0,0.0,0.0,0.0,0.0,0.0,0.0,0.0,0.0,0.0,0.0,0.0,0.0,0.0,0.0,0.0,0.0,0.0,0.0,0.0,0.0,0.0,0.0,0.0,0.0,0.0,0.0,0.0,0.0,0.0,0.0,0.0,0.0,0.0,0.0,0.0,-0.1814,0.0,0.0,0.0,0.0,0.0,0.0,0.0,0.0,0.0,0.0,0.0,0.0,0.0,0.0,0.0,0.0,0.0,0.0,0.0,0.0,0.0,0.0,0.0,0.0,0.0,0.0,0.0,0.0,0.0,0.0,0.0,0.0,0.0,0.0,0.0,0.0,0.0,0.0,0.0,0.0,0.0,0.0,0.0,0.0,0.0,0.0,0.0,0.0,0.0,0.0,0.0,0.0,0.0,0.0,0.0,0.0,0.0,0.0,0.0,0.0,0.0,0.0,0.0,0.0,0.0,0.0,0.0,0.0,0.0,0.0,0.0,0.0,0.0,0.0,0.0,0.0,0.0,0.0,0.0,0.0,0.0,0.0,0.0,0.0,0.0,0.0,0.0,0.0,0.0,0.0,0.0,0.0,0.0,0.0,0.0,0.0,0.0,0.0,0.0,0.0,0.0,0.0,0.0,0.0,0.0,0.0,0.0,0.0,0.0,0.0,0.176,0.0263,-0.0065,-0.0757,-0.1905,0.0,0.0,0.0,0.0,0.0,0.0,0.0,0.0,0.0,0.0,0.0,0.0,0.0,0.0,0.0,0.0,0.0,0.0,0.0,0.0,0.0,0.0,0.0,0.0,0.0,0.0,0.0,0.0,0.0,0.0,0.0,0.0,0.0,0.0,0.0,0.0,0.0,0.0,0.0,0.0,0.0,0.0,0.0,0.0,0.0,0.0,0.0,0.0,0.0,0.0,0.0,0.0,0.0,0.0,0.0,0.0,0.0,0.0,0.0,0.0,0.0,0.0,0.0,0.0,0.0,0.0,0.0,0.0,0.0,0.0,0.0,0.0,0.0,0.0,0.0,0.0,0.0,0.0,0.0,0.0,0.0,0.0,0.0,0.0,0.0,0.0,0.0,0.0,0.0,0.0,0.0,0.0,0.0,0.0,0.0,0.0,0.0,0.0,0.0,0.0,0.0,0.0,0.0,0.0,0.0,0.0,0.0,0.0,0.0,0.0,0.0,0.0,-0.0034,-0.0813,-0.1998,0.0,0.0,0.0,0.0,0.0,0.0,0.0,0.0,0.0,0.0,0.0,0.0,0.0,0.0,0.0,0.0,0.0,0.0,0.0,0.0,0.0,0.0,0.0,0.0,0.0,0.0,0.0,0.0,0.0,0.0,0.0,0.0,0.0,0.0,0.0,0.0,0.0,0.0,0.0,0.0,0.0,0.0,0.0,0.0,0.0,0.0,0.0,0.0,0.0,0.0,0.0,0.0,0.0,0.0,0.0,0.0,0.0,0.0,0.0,0.0,0.0,0.0,0.0,0.0,0.0,0.0,0.0,0.0,0.0,0.0,0.0,0.0,0.0,0.0,0.0,0.0,0.0,0.0,0.0,0.0,0.0,0.0,0.0,0.0,0.0,0.0,0.0,0.0,0.0,0.0,0.0,0.0,0.0,0.0,0.0,0.0,0.0,0.0,0.0,0.0,0.0,0.0,0.0,0.0,0.0,0.0,0.0,0.0,0.0,0.0,0.1935,0.0948,0.0249,0.0,-0.2088,0.0,0.0,0.0,0.0,0.0,0.0,0.0,0.0,0.0,0.0,0.0,0.0,0.0,0.0,0.0,0.0,0.0,0.0,0.0,0.0,0.0,0.0,0.0,0.0,0.0,0.0,0.0,0.0,0.0,0.0,0.0,0.0,0.0,0.0,0.0,0.0,0.0,0.0,0.0,0.0,0.0,0.0,0.0,0.0,0.0,0.0,0.0,0.0,0.0,0.0,0.0,0.0,0.0,0.0,0.0,0.0,0.0,0.0,0.0,0.0,0.0,0.0,0.0,0.0,0.0,0.0,0.0,0.0,0.0,0.0,0.0,0.0,0.0,0.0,0.0,0.0,0.0,0.0,0.0,0.0,0.0,0.0,0.0,0.0,0.0,0.0,0.0,0.0,0.0,0.0,0.0,0.0,0.0,0.0,0.0,0.0,0.0,0.0,0.0,0.0,0.0,0.0,0.0,0.0,0.0,0.0,0.0,0.0,0.0,0.0,0.2304,0.1715,-0.0187,-0.1543,0.0,0.0,0.0,0.0,0.0,0.0,0.0,0.0,0.0,0.0,0.0,0.0,0.0,0.0,0.0,0.0,0.0,0.0,0.0,0.0,0.0,0.0,0.0,0.0,0.0,0.0,0.0,0.0,0.0,0.0,0.0,0.0,0.0,0.0,0.0,0.0,0.0,0.0,0.0,0.0,0.0,0.0,0.0,0.0,0.0,0.0,0.0,0.0,0.0,0.0,0.0,0.0,0.0,0.0,0.0,0.0,0.0,0.0,0.0,0.0,0.0,0.0,0.0,0.0,0.0,0.0,0.0,0.0,0.0,0.0,0.0,0.0,0.0,0.0,0.0,0.0,0.0,0.0,0.0,0.0,0.0,0.0,0.0,0.0,0.0,0.0,0.0,0.0,0.0,0.0,0.0,0.0,0.0,0.0,0.0,0.0,0.0,0.0,0.0,0.0,0.0,0.0,0.0,0.0,0.0,0.0,0.0,0.0,0.0,0.0,0.3731,0.277,0.1755,-0.0786,-0.2153,-0.2076,0.0,0.0,0.0,0.0,0.0,0.0,0.0,0.0,0.0,0.0,0.0,0.0,0.0,0.0,0.0,0.0,0.0,0.0,0.0,0.0,0.0,0.0,0.0,0.0,0.0,0.0,0.0,0.0,0.0,0.0,0.0,0.0,0.0,0.0,0.0,0.0,0.0,0.0,0.0,0.0,0.0,0.0,0.0,0.0,0.0,0.0,0.0,0.0,0.0,0.0,0.0,0.0,0.0,0.0,0.0,0.0,0.0,0.0,0.0,0.0,0.0,0.0,0.0,0.0,0.0,0.0,0.0,0.0,0.0,0.0,0.0,0.0,0.0,0.0,0.0,0.0,0.0,0.0,0.0,0.0,0.0,0.0,0.0,0.0,0.0,0.0,0.0,0.0,0.0,0.0,0.0,0.0,0.0,0.0,0.0,0.0,0.0,0.0,0.0,0.0,0.0,0.0,0.0,0.0,0.0,0.0,0.0,0.0,0.5132,0.4629,0.3256,0.0882,-0.1433,-0.2377,0.0,0.0,0.0,0.0,0.0,0.0,0.0,0.0,0.0,0.0,0.0,0.0,0.0,0.0,0.0,0.0,0.0,0.0,0.0,0.0,0.0,0.0,0.0,0.0,0.0,0.0,0.0,0.0,0.0,0.0,0.0,0.0,0.0,0.0,0.0,0.0,0.0,0.0,0.0,0.0,0.0,0.0,0.0,0.0,0.0,0.0,0.0,0.0,0.0,0.0,0.0,0.0,0.0,0.0,0.0,0.0,0.0,0.0,0.0,0.0,0.0,0.0,0.0,0.0,0.0,0.0,0.0,0.0,0.0,0.0,0.0,0.0,0.0,0.0,0.0,0.0,0.0,0.0,0.0,0.0,0.0,0.0,0.0,0.0,0.0,0.0,0.0,0.0,0.0,0.0,0.0,0.0,0.0,0.0,0.0,0.0,0.0,0.0,0.0,0.0,0.0,0.0,0.0,0.0,0.0,0.0,0.0,0.0,0.0,0.4851,0.3189,0.1272,-0.0799,-0.203,-0.2486,0.0,0.0,0.0,0.0,0.0,0.0,0.0,0.0,0.0,0.0,0.0,0.0,0.0,0.0,0.0,0.0,0.0,0.0,0.0,0.0,0.0,0.0,0.0,0.0,0.0,0.0,0.0,0.0,0.0,0.0,0.0,0.0,0.0,0.0,0.0,0.0,0.0,0.0,0.0,0.0,0.0,0.0,0.0,0.0,0.0,0.0,0.0,0.0,0.0,0.0,0.0,0.0,0.0,0.0,0.0,0.0,0.0,0.0,0.0,0.0,0.0,0.0,0.0,0.0,0.0,0.0,0.0,0.0,0.0,0.0,0.0,0.0,0.0,0.0,0.0,0.0,0.0,0.0,0.0,0.0,0.0,0.0,0.0,0.0,0.0,0.0,0.0,0.0,0.0,0.0,0.0,0.0,0.0,0.0,0.0,0.0,0.0,0.0,0.0,0.0,0.0,0.0,0.0,0.0,0.0,0.0,0.0,0.0,0.0,0.4728,0.0,-0.0728,-0.1323,-0.2705,-0.3182,0.0,0.0,0.0,0.0,0.0,0.0,0.0,0.0,0.0,0.0,0.0,0.0,0.0,0.0,0.0,0.0,0.0,0.0,0.0,0.0,0.0,0.0,0.0,0.0,0.0,0.0,0.0,0.0,0.0,0.0,0.0,0.0,0.0,0.0,0.0,0.0,0.0,0.0,0.0,0.0,0.0,0.0,0.0,0.0,0.0,0.0,0.0,0.0,0.0,0.0,0.0,0.0,0.0,0.0,0.0,0.0,0.0,0.0,0.0,0.0,0.0,0.0,0.0,0.0,0.0,0.0,0.0,0.0,0.0,0.0,0.0,0.0,0.0,0.0,0.0,0.0,0.0,0.0,0.0,0.0,0.0,0.0,0.0,0.0,0.0,0.0,0.0,0.0,0.0,0.0,0.0,0.0,0.0,0.0,0.0,0.0,0.0,0.0,0.0,0.0,0.0,0.0,0.0,0.0,0.0,0.0,0.0,0.0,0.5747,0.4668,-0.0465,-0.2258,-0.0498,-0.3434,-0.4401,0.0,0.0,0.0,0.0,0.0,0.0,0.0,0.0,0.0,0.0,0.0,0.0,0.0,0.0,0.0,0.0,0.0,0.0,0.0,0.0,0.0,0.0,0.0,0.0,0.0,0.0,0.0,0.0,0.0,0.0,0.0,0.0,0.0,0.0,0.0,0.0,0.0,0.0,0.0,0.0,0.0,0.0,0.0,0.0,0.0,0.0,0.0,0.0,0.0,0.0,0.0,0.0,0.0,0.0,0.0,0.0,0.0,0.0,0.0,0.0,0.0,0.0,0.0,0.0,0.0,0.0,0.0,0.0,0.0,0.0,0.0,0.0,0.0,0.0,0.0,0.0,0.0,0.0,0.0,0.0,0.0,0.0,0.0,0.0,0.0,0.0,0.0,0.0,0.0,0.0,0.0,0.0,0.0,0.0,0.0,0.0,0.0,0.0,0.0,0.0,0.0,0.0,0.0,0.0,0.0,0.0,0.0,0.0,0.0,0.2327,-0.0276,-0.1773,-0.1979,-0.3293,-0.3974,0.0,0.0,0.0,0.0,0.0,0.0,0.0,0.0,0.0,0.0,0.0,0.0,0.0,0.0,0.0,0.0,0.0,0.0,0.0,0.0,0.0,0.0,0.0,0.0,0.0,0.0,0.0,0.0,0.0,0.0,0.0,0.0,0.0,0.0,0.0,0.0,0.0,0.0,0.0,0.0,0.0,0.0,0.0,0.0,0.0,0.0,0.0,0.0,0.0,0.0,0.0,0.0,0.0,0.0,0.0,0.0,0.0,0.0,0.0,0.0,0.0,0.0,0.0,0.0,0.0,0.0,0.0,0.0,0.0,0.0,0.0,0.0,0.0,0.0,0.0,0.0,0.0,0.0,0.0,0.0,0.0,0.0,0.0,0.0,0.0,0.0,0.0,0.0,0.0,0.0,0.0,0.0,0.0,0.0,0.0,0.0,0.0,0.0,0.0,0.0,0.0,0.0,0.0,0.0,0.0,0.0,0.0,0.0,0.0,0.1244,-0.0414,-0.1691,-0.2576,-0.3853,-0.4573,-0.4668,0.0,0.0,0.0,0.0,0.0,0.0,0.0,0.0,0.0,0.0,0.0,0.0,0.0,0.0,0.0,0.0,0.0,0.0,0.0,0.0,0.0,0.0,0.0,0.0,0.0,0.0,0.0,0.0,0.0,0.0,0.0,0.0,0.0,0.0,0.0,0.0,0.0,0.0,0.0,0.0,0.0,0.0,0.0,0.0,0.0,0.0,0.0,0.0,0.0,0.0,0.0,0.0,0.0,0.0,0.0,0.0,0.0,0.0,0.0,0.0,0.0,0.0,0.0,0.0,0.0,0.0,0.0,0.0,0.0,0.0,0.0,0.0,0.0,0.0,0.0,0.0,0.0,0.0,0.0,0.0,0.0,0.0,0.0,0.0,0.0,0.0,0.0,0.0,0.0,0.0,0.0,0.0,0.0,0.0,0.0,0.0,0.0,0.0,0.0,0.0,0.0,0.0,0.0,0.0,0.0,0.0,0.0,0.0,0.1207,-0.0857,-0.2146,-0.2523,-0.49,-0.5977,0.0,0.0,0.0,0.0,0.0,0.0,0.0,0.0,0.0,0.0,0.0,0.0,0.0,0.0,0.0,0.0,0.0,0.0,0.0,0.0,0.0,0.0,0.0,0.0,0.0,0.0,0.0,0.0,0.0,0.0,0.0,0.0,0.0,0.0,0.0,0.0,0.0,0.0,0.0,0.0,0.0,0.0,0.0,0.0,0.0,0.0,0.0,0.0,0.0,0.0,0.0,0.0,0.0,0.0,0.0,0.0,0.0,0.0,0.0,0.0,0.0,0.0,0.0,0.0,0.0,0.0,0.0,0.0,0.0,0.0,0.0,0.0,0.0,0.0,0.0,0.0,0.0,0.0,0.0,0.0,0.0,0.0,0.0,0.0,0.0,0.0,0.0,0.0,0.0,0.0,0.0,0.0,0.0,0.0,0.0,0.0,0.0,0.0,0.0,0.0,0.0,0.0,0.0,0.0,0.0,0.0,0.0,0.0,0.0,0.0198,-0.1695,-0.3017,-0.3644,-0.4852,-0.5922,0.0,0.0,0.0,0.0,0.0,0.0,0.0,0.0,0.0,0.0,0.0,0.0,0.0,0.0,0.0,0.0,0.0,0.0,0.0,0.0,0.0,0.0,0.0,0.0,0.0,0.0,0.0,0.0,0.0,0.0,0.0,0.0,0.0,0.0,0.0,0.0,0.0,0.0,0.0,0.0,0.0,0.0,0.0,0.0,0.0,0.0,0.0,0.0,0.0,0.0,0.0,0.0,0.0,0.0,0.0,0.0,0.0,0.0,0.0,0.0,0.0,0.0,0.0,0.0,0.0,0.0,0.0,0.0,0.0,0.0,0.0,0.0,0.0,0.0,0.0,0.0,0.0,0.0,0.0,0.0,0.0,0.0,0.0,0.0,0.0,0.0,0.0,0.0,0.0,0.0,0.0,0.0,0.0,0.0,0.0,0.0,0.0,0.0,0.0,0.0,0.0,0.0,0.0,0.0,0.0,0.0,0.0,0.0,0.0394,-0.0904,-0.2259,-0.3583,-0.4849,-0.5953,-0.6966,0.0,0.0,0.0,0.0,0.0,0.0,0.0,0.0,0.0,0.0,0.0,0.0,0.0,0.0,0.0,0.0,0.0,0.0,0.0,0.0,0.0,0.0,0.0,0.0,0.0,0.0,0.0,0.0,0.0,0.0,0.0,0.0,0.0,0.0,0.0,0.0,0.0,0.0,0.0,0.0,0.0,0.0,0.0,0.0,0.0,0.0,0.0,0.0,0.0,0.0,0.0,0.0,0.0,0.0,0.0,0.0,0.0,0.0,0.0,0.0,0.0,0.0,0.0,0.0,0.0,0.0,0.0,0.0,0.0,0.0,0.0,0.0,0.0,0.0,0.0,0.0,0.0,0.0,0.0,0.0,0.0,0.0,0.0,0.0,0.0,0.0,0.0,0.0,0.0,0.0,0.0,0.0,0.0,0.0,0.0,0.0,0.0,0.0,0.0,0.0,0.0,0.0,0.0,0.0,0.0,0.0,0.0,0.0,-0.1105,-0.2124,-0.2757,-0.4132,-0.6196,-0.7602,-0.8414,0.0,0.0,0.0,0.0,0.0,0.0,0.0,0.0,0.0,0.0,0.0,0.0,0.0,0.0,0.0,0.0,0.0,0.0,0.0,0.0,0.0,0.0,0.0,0.0,0.0,0.0,0.0,0.0,0.0,0.0,0.0,0.0,0.0,0.0,0.0,0.0,0.0,0.0,0.0,0.0,0.0,0.0,0.0,0.0,0.0,0.0,0.0,0.0,0.0,0.0,0.0,0.0,0.0,0.0,0.0,0.0,0.0,0.0,0.0,0.0,0.0,0.0,0.0,0.0,0.0,0.0,0.0,0.0,0.0,0.0,0.0,0.0,0.0,0.0,0.0,0.0,0.0,0.0,0.0,0.0,0.0,0.0,0.0,0.0,0.0,0.0,0.0,0.0,0.0,0.0,0.0,0.0,0.0,0.0,0.0,0.0,0.0,0.0,0.0,0.0,0.0,0.0,0.0,0.0,0.0,0.0,0.0,0.0,-0.1635,-0.3579,-0.4139,-0.5579,-0.7975,-0.7803,-0.8055,0.0,0.0,0.0,0.0,0.0,0.0,0.0,0.0,0.0,0.0,0.0,0.0,0.0,0.0,0.0,0.0,0.0,0.0,0.0,0.0,0.0,0.0,0.0,0.0,0.0,0.0,0.0,0.0,0.0,0.0,0.0,0.0,0.0,0.0,0.0,0.0,0.0,0.0,0.0,0.0,0.0,0.0,0.0,0.0,0.0,0.0,0.0,0.0,0.9957,0.0,0.0,0.0,0.0,0.0,0.0,0.0,0.0,0.0,0.0,0.0,0.0,0.0,0.0,0.0,0.0,0.0,0.0,0.0,0.0,0.0,0.0,0.0,0.0,0.0,0.0,0.0,0.0,0.0,0.0,0.0,0.0,0.0,0.0,0.0,0.0,0.0,0.0,0.0,0.0,0.0,0.0,0.0,0.0,0.0,0.0,0.0,0.0,0.0,0.0,0.0,0.0,0.0,0.0,0.0,0.0,0.0,0.0,0.0,-0.2276,-0.3896,-0.453,-0.5893,-0.8083,-0.821,-0.8837,0.0,0.0,0.0,0.0,0.0,0.0,0.0,0.0,0.0,0.0,0.0,0.0,0.0,0.0,0.0,0.0,0.0,0.0,0.0,0.0,0.0,0.0,0.0,0.0,0.0,0.0,0.0,0.0,0.0,0.0,0.0,0.0,0.0,0.0,0.0,0.0,0.0,0.0,0.0,0.0,0.0,0.0,0.0,0.0,0.0,0.0,0.0,0.0,0.0,0.0,0.0,0.0,0.0,0.0,0.0,0.0,0.0,0.0,0.0,0.0,0.0,0.0,0.0,0.0,0.0,0.0,0.0,0.0,0.0,0.0,0.0,0.0,0.0,0.0,0.0,0.0,0.0,0.0,0.0,0.0,0.0,0.0,0.0,0.0,0.0,0.0,0.0,0.0,0.0,0.0,0.0,0.0,0.0,0.0,0.0,0.0,0.0,0.0,0.0,0.0,0.0,0.0,0.0,0.0,0.0,0.0,0.0,-0.2049,-0.3005,-0.3936,-0.4605,-0.5865,-0.7756,-0.8666,-0.9904,-1.1483,0.0,0.0,0.0,0.0,0.0,0.0,0.0,0.0,0.0,0.0,0.0,0.0,0.0,0.0,0.0,0.0,0.0,0.0,0.0,0.0,0.0,0.0,0.0,0.0,0.0,0.0,0.0,0.0,0.0,0.0,0.0,0.0,0.0,0.0,0.0,0.0,0.0,0.0,1.0057,1.0009,0.0,0.0,0.0,0.0,0.0,0.0,0.0,0.0,0.9961,0.0,0.0,0.0,0.0,0.0,0.0,0.0,0.0,0.0,0.0,0.0,0.0,0.0,0.0,0.0,0.0,0.0,0.0,0.0,0.0,0.0,0.0,0.0,0.0,0.0,0.0,0.0,0.0,0.0,0.0,0.0,0.0,0.0,0.0,0.0,0.0,0.0,0.0,0.0,0.0,0.0,0.0,0.0,0.0,0.0,0.0,0.0,0.0,0.0,0.0,0.0,0.0,0.0,0.0,0.0,0.0,-0.2225,-0.3151,-0.3973,-0.4616,-0.5328,-0.6403,-0.7841,-0.9081,-1.0292,-1.1302,0.0,0.0,0.0,0.0,0.0,0.0,0.0,0.0,0.0,0.0,0.0,0.0,0.0,0.0,0.0,0.0,0.0,0.0,0.0,0.0,0.0,0.0,0.0,0.0,0.0,0.0,0.0,0.0,0.0,0.0,0.0,0.0,0.0,0.0,0.0,0.0,0.0,0.0,0.0,0.9437,0.9404,0.0,0.0,0.0,0.0,0.0,0.0,0.0,0.0,0.9574,0.0,0.0,0.0,0.0,0.0,0.0,0.0,0.0,0.0,0.0,0.0,0.0,0.0,0.0,0.0,0.0,0.0,0.0,0.0,0.0,0.0,0.0,0.0,0.0,0.0,0.0,0.0,0.0,0.0,0.0,0.0,0.0,0.0,0.0,0.0,0.0,0.0,0.0,0.0,0.0,0.0,0.0,0.0,0.0,0.0,0.0,0.0,0.0,0.0,0.0,0.0,0.0,0.0,0.0,0.0,-0.3139,-0.3973,-0.4602,-0.5042,-0.5665,-0.661,-0.7875,-0.8563,-0.9565,0.0,0.0,0.0,0.0,0.0,0.0,0.0,0.0,0.0,0.0,0.0,0.0,0.0,0.0,0.0,0.0,0.0,0.0,0.0,0.0,0.0,0.0,0.0,0.0,0.0,0.0,0.0,0.0,0.0,0.0,0.0,0.0,0.0,0.0,0.0,0.0,0.0,0.0,0.0,0.0,0.8845,0.8608,0.8711,0.0,0.0,0.0,0.0,0.0,0.0,0.8625,0.8682,0.0,0.0,0.0,0.0,0.0,0.0,0.0,0.0,0.0,0.0,0.0,0.0,0.0,0.0,0.0,0.0,0.0,0.0,0.0,0.0,0.0,0.0,0.0,0.0,0.0,0.0,0.0,0.0,0.0,0.0,0.0,0.0,0.0,0.0,0.0,0.0,0.0,0.0,0.0,0.0,0.0,0.0,0.0,0.0,0.0,0.0,0.0,0.0,0.0,0.0,0.0,0.0,0.0,0.0,0.0,-0.4007,-0.4565,-0.5062,-0.5435,-0.5913,-0.6694,-0.7698,-0.8182,-0.9069,0.0,0.0,0.0,0.0,0.0,0.0,0.0,0.0,0.0,0.0,0.0,0.0,0.0,0.0,0.0,0.0,0.0,0.0,0.0,0.0,0.0,0.0,0.0,0.0,0.0,0.0,0.0,0.0,0.0,0.0,0.0,0.0,0.0,0.0,0.0,0.0,0.0,0.0,0.0,0.0,0.0,0.7782,0.7806,0.7764,0.0,0.0,0.0,0.0,0.8184,0.7715,0.0,0.0,0.0,0.0,0.0,0.0,0.0,0.0,0.0,0.0,0.0,0.0,0.0,0.0,0.0,0.0,0.0,0.0,0.0,0.0,0.0,0.0,0.0,0.0,0.0,0.0,0.0,0.0,0.0,0.0,0.0,0.0,0.0,0.0,0.0,0.0,0.0,0.0,0.0,0.0,0.0,0.0,0.0,0.0,0.0,0.0,0.0,0.0,0.0,0.0,0.0,0.0,0.0,0.0,0.0,0.0,-0.4704,-0.4948,-0.5327,-0.5897,-0.6283,-0.6691,-0.7206,-0.8802,-0.9945,0.0,0.0,0.0,0.0,0.0,0.0,0.0,0.0,0.0,0.0,0.0,0.0,0.0,0.0,0.0,0.0,0.0,0.0,0.0,0.0,0.0,0.0,0.0,0.0,0.0,0.0,0.0,0.0,0.0,0.0,0.0,0.0,0.0,0.0,0.0,0.0,0.0,0.0,0.0,0.0,0.0,0.7031,0.6355,0.5967,0.5774,0.0,0.0,0.6014,0.6519,0.7299,0.0,0.0,0.0,0.0,0.0,0.0,0.0,0.0,0.0,0.0,0.0,0.0,0.0,0.0,0.0,0.0,0.0,0.0,0.0,0.0,0.0,0.0,0.0,0.0,0.0,0.0,0.0,0.0,0.0,0.0,0.0,0.0,0.0,0.0,0.0,0.0,0.0,0.0,0.0,0.0,0.0,0.0,0.0,0.0,0.0,0.0,0.0,0.0,0.0,0.0,0.0,0.0,0.0,0.0,0.0,-0.4226,-0.5359,-0.5388,-0.5575,-0.6045,-0.6488,-0.6846,-0.7086,-0.7973,-0.8943,0.0,0.0,0.0,0.0,0.0,0.0,0.0,0.0,0.0,0.0,0.0,0.0,0.0,0.0,0.0,0.0,0.0,0.0,0.0,0.0,0.0,0.0,0.0,0.0,0.0,0.0,0.0,0.0,0.0,0.0,0.0,0.0,0.0,0.0,0.0,0.0,0.0,0.0,0.0,0.0,0.0,0.0,0.5147,0.4991,0.0,0.0,0.0,0.4967,0.549,0.0,0.0,0.0,0.0,0.0,0.0,0.0,0.0,0.0,0.0,0.0,0.0,0.0,0.0,0.0,0.0,0.0,0.0,0.0,0.0,0.0,0.0,0.0,0.0,0.0,0.0,0.0,0.0,0.0,0.0,0.0,0.0,0.0,0.0,0.0,0.0,0.0,0.0,0.0,0.0,0.0,0.0,0.0,0.0,0.0,0.0,0.0,0.0,0.0,0.0,0.0,0.0,0.0,0.0,0.0,0.0,0.0,-0.6019,-0.5885,-0.5968,-0.6364,-0.6747,-0.7035,-0.7187,-0.7415,0.0,0.0,0.0,0.0,0.0,0.0,0.0,0.0,0.0,0.0,0.0,0.0,0.0,0.0,0.0,0.0,0.0,0.0,0.0,0.0,0.0,0.0,0.0,0.0,0.0,0.0,0.0,0.9307,0.0,0.0,0.0,0.0,0.0,0.0,0.0,0.0,0.0,0.0,0.0,0.0,0.0,0.0,0.4516,0.3831,0.3736,0.3656,0.0,0.0,0.3791,0.4211,0.4035,0.4158,0.0,0.0,0.0,0.0,0.0,0.0,0.0,0.0,0.0,0.0,0.0,0.0,0.0,0.0,0.0,0.0,0.0,0.0,0.0,0.0,0.0,0.0,0.0,0.0,0.0,0.0,0.0,0.0,0.0,0.0,0.0,0.0,0.0,0.0,0.0,0.0,0.0,0.0,0.0,0.0,0.0,0.0,0.0,0.0,0.0,0.0,0.0,0.0,0.0,0.0,0.0,0.0,0.0,0.0,-0.577,-0.6687,-0.6456,-0.657,-0.6996,-0.7065,-0.7223,-0.7481,-0.7887,-0.8953,0.0,0.0,0.0,0.0,0.0,0.0,0.0,0.0,0.0,0.0,0.0,0.0,0.0,0.0,0.0,0.0,0.0,0.0,0.0,0.0,0.0,0.0,0.0,0.0,0.0,0.0,0.0,0.0,0.0,0.0,0.0,0.0,0.0,0.0,0.0,0.0,0.0,0.0,0.0,0.0,0.0,0.4251,0.2243,0.1762,0.1665,0.0,0.2027,0.2194,0.2282,0.341,0.4164,0.3857,0.0,0.0,0.0,0.0,0.0,0.0,0.0,0.0,0.0,0.0,0.0,0.0,0.0,0.0,0.0,0.0,0.0,0.0,0.0,0.0,0.0,0.0,0.0,0.0,0.0,0.0,0.0,0.0,0.0,0.0,0.0,0.0,0.0,0.0,0.0,0.0,0.0,0.0,0.0,0.0,0.0,0.0,0.0,0.0,0.0,0.0,0.0,0.0,0.0,0.0,0.0,0.0,0.0,-0.6613,-0.7095,-0.6791,-0.691,-0.744,-0.7431,-0.748,-0.7686,-0.8467,-0.9064,0.0,0.0,0.0,0.0,0.0,0.0,0.0,0.0,0.0,0.0,0.0,0.0,0.0,0.0,0.0,0.0,0.0,0.0,0.0,0.0,0.0,0.0,0.0,0.0,0.0,0.0,0.0,0.0,0.7748,0.7419,0.7929,0.0,0.0,0.0,0.0,0.0,0.0,0.0,0.0,0.0,0.0,0.2216,0.1092,0.08,0.0,0.0,0.0934,0.0964,0.0896,0.143,0.1683,0.1092,0.1941,0.0,0.0,0.0,0.0,0.0,0.0,0.0,0.0,0.0,0.0,0.0,0.0,0.0,0.0,0.0,0.0,0.0,0.0,0.0,0.0,0.0,0.0,0.0,0.0,0.0,0.0,0.0,0.0,0.0,0.0,0.0,0.0,0.0,0.0,0.0,0.0,0.0,0.0,0.0,0.0,0.0,0.0,0.0,0.0,0.0,0.0,0.0,0.0,0.0,0.0,0.0,0.0,-0.7644,-0.7765,-0.7435,-0.7531,-0.8079,-0.7881,-0.791,-0.8243,-0.88,-0.9284,0.0,0.0,0.0,0.0,0.0,0.0,0.0,0.0,0.0,0.0,0.0,0.0,0.0,0.0,0.0,0.0,0.0,0.0,0.0,0.0,0.0,0.0,0.0,0.0,0.0,0.0,0.0,0.0,0.768,0.7455,0.8537,0.0,0.0,0.0,0.0,0.0,0.0,0.0,0.0,0.0,0.0,0.0572,-0.0,-0.0267,-0.0334,-0.03,-0.0166,-0.0166,-0.0397,-0.0331,-0.0462,-0.1106,0.0,0.0,0.0,0.0,0.0,0.0,0.0,0.0,0.0,0.0,0.0,0.0,0.0,0.0,0.0,0.0,0.0,0.0,0.0,0.0,0.0,0.0,0.0,0.0,0.0,0.0,0.0,-0.4672,0.0,0.0,-0.1068,0.0,0.0,0.0,0.0,0.0,0.0,0.0,0.0,0.0,0.0,0.0,0.0,0.0,0.0,0.0,0.0,0.0,0.0,0.0,0.0,0.0,0.0,-0.8828,-0.8874,-0.856,-0.8559,-0.8921,-0.8404,-0.8511,-0.921,-0.8872,-0.9669,-1.1858,0.0,0.0,0.0,0.0,0.0,0.0,0.0,0.0,0.0,0.0,0.0,0.0,0.0,0.0,0.0,0.0,0.0,0.0,0.0,0.0,0.0,0.0,0.0,0.0,0.0,0.0,0.9121,0.8107,0.7817,0.0,0.0,0.0,0.0,0.0,0.0,0.0,0.0,0.0,0.0,-0.0067,-0.04,-0.107,-0.1607,-0.1842,-0.1597,-0.1396,-0.1359,-0.1654,-0.1687,-0.1819,0.0,0.0,0.0,0.0,0.0,0.0,0.0,0.0,0.0,0.0,0.0,0.0,0.0,0.0,0.0,0.0,0.0,0.0,0.0,0.0,0.0,0.0,0.0,0.0,0.0,0.0,0.0,-0.1112,-0.2688,0.0,0.0,0.0,0.0,0.0,0.0,0.0,0.0,0.0,0.0,0.0,-0.6689,-0.7023,0.0,0.0,0.0,0.0,0.0,0.0,0.0,0.0,0.0,0.0,0.0,0.0,-0.9327,-0.9672,-0.9661,-0.9519,-0.9217,-0.9591,-0.9803,-0.9781,-1.052,-1.1697,-1.3316,0.0,0.0,0.0,0.0,0.0,0.0,0.0,0.0,0.0,0.0,0.0,0.0,0.0,0.0,0.0,0.0,0.0,0.0,0.0,0.0,0.0,0.0,0.0,0.0,0.0,0.8591,0.0,0.0,0.0,0.0,0.0,0.0,0.0,0.0,0.0,0.0,0.0,0.0912,-0.0434,-0.1065,-0.1594,-0.2131,-0.2695,-0.3053,0.0,0.0,0.0,0.0,0.0,0.0,0.0,0.0,0.0,0.0,0.0,0.0,0.0,0.0,0.2444,0.6316,0.6917,0.7046,0.7768,0.0,0.0,0.0,0.0,0.0,0.0,0.0,0.0,0.0,0.0,0.0,0.0,0.0,0.0,-0.3108,0.0,-0.4514,0.0,0.0,0.0,0.0,0.0,0.0,0.0,0.0,-0.6555,-0.748,-0.7991,-0.8162,-0.8671,0.0,-0.9319,-0.9412,0.0,0.0,0.0,0.0,0.0,0.0,0.0,0.0,-1.0166,-1.0665,-1.0432,-1.0312,-1.0298,-1.0385,-1.0527,-1.066,-1.1468,-1.2297,-1.317,-1.179,-1.1301,0.0,0.0,0.0,0.0,0.0,0.0,0.0,0.0,0.0,0.0,0.0,0.0,0.0,0.0,0.0,0.0,0.0,0.0,0.0,0.0,0.0,0.0,0.0,0.611,0.0,0.0,0.0,0.0,0.0,0.0,0.0,0.0,0.0,0.1531,0.0421,-0.0863,-0.1853,-0.2493,-0.3045,-0.356,0.0,0.0,0.0,0.0,0.0,0.0,0.0,-0.5551,-0.5781,-0.5773,-0.5718,-0.5551,-0.4886,-0.4232,-0.3743,0.0,0.0,0.2923,0.4021,0.4248,0.4855,0.4712,0.4511,0.4515,0.4264,0.3946,0.0,0.0,0.0,0.0,0.0,0.0,0.0,0.0,-0.7042,-0.7401,0.0,-0.8602,0.0,0.0,0.0,0.0,-0.764,-0.7316,0.0,0.0,-0.7434,-0.7942,-0.8692,-0.8472,-0.8931,-0.9981,-1.0088,-1.0302,-1.0667,-1.0273,0.0,0.0,0.0,0.0,0.0,0.0,-1.1282,-1.1766,-1.0945,-1.1017,-1.2016,-1.0837,-1.0739,-1.1932,-1.1703,-1.1582,-1.1575,-1.1758,-1.1521,-1.0763,-1.2888,0.0,0.0,0.0,0.0,0.0,0.0,0.0,0.0,0.0,0.0,0.0,0.0,0.0,0.0,0.0,0.0,0.0,0.0,0.0,0.0,0.3707,0.0,0.0,0.0,0.0,0.0,0.0,0.0,0.0,0.0,0.0,-0.0163,-0.138,-0.2865,-0.3886,0.0,0.0,0.0,0.0,-0.6162,-0.6484,-0.6637,-0.6795,-0.7031,-0.7209,-0.7484,-0.787,0.0,0.0,-0.7279,-0.71,-0.6754,-0.6005,-0.5734,-0.461,-0.1217,-0.0188,0.0414,0.148,0.1336,0.1084,0.1191,0.0803,0.0284,-0.8271,0.0,0.0,0.0,0.0,-0.8445,-0.8737,-0.8887,-0.8904,-0.9277,-0.9805,-0.9529,0.0,0.0,0.0,0.0,0.0,0.0,-0.8546,-0.8424,-0.8753,-0.9047,-0.9365,-0.9517,-0.9956,-1.0611,-1.0505,-1.0725,-1.1244,-1.1142,-1.1029,-1.0954,0.0,0.0,0.0,0.0,-1.1802,-1.2307,-1.204,-1.2146,-1.2665,-1.2689,-1.2968,-1.3459,-1.2692,-1.2378,-1.2549,-1.0913,-1.0744,-1.2286,-1.1868,0.0,0.0,0.0,0.0,0.0,0.0,0.0,0.0,0.0,0.0,0.0,0.0,0.0,0.0,0.0,0.0,0.0,0.0,0.0,0.3689,0.0804,-0.1057,0.0,0.0,0.0,0.0,0.0,0.0,0.0,0.0,0.0,-0.4835,-0.4403,-0.4314,0.0,0.0,-0.6178,-0.6318,-0.7047,-0.7588,-0.7719,-0.7771,0.0,-0.8443,-0.8679,-0.8954,-0.9386,-0.9451,-0.9291,-0.8983,-0.861,-0.8211,-0.7668,-0.7388,-0.6663,-0.5013,-0.3491,-0.2474,-0.1879,-0.1774,-0.1677,-0.1409,-0.1511,-0.1649,-0.9822,-0.913,-0.9534,-0.9346,-0.8846,-0.9328,-0.9583,-0.9619,-0.9641,-0.975,-0.9969,-0.9807,-1.0013,-1.0518,-1.0403,0.0,0.0,0.0,-0.9657,-0.9691,-0.9885,-1.0124,-1.041,-1.0409,-1.0748,-1.1394,-1.1105,-1.1255,-1.1774,-1.1737,-1.1774,-1.1811,0.0,0.0,-1.2006,-1.1825,-1.2048,-1.2642,-1.2545,-1.275,-1.3383,-1.3672,-1.3876,-1.3901,-1.2756,-1.2399,-1.2955,-1.0959,-1.0873,-1.3081,-1.1713,-1.1394,0.0,0.0,0.0,0.0,0.0,0.0,0.0,0.0,0.0,0.0,0.0,0.9235,0.8334,0.0,0.0,0.0,0.316,0.1306,-0.1103,-0.3524,0.0,0.0,0.0,0.0,0.0,0.0,0.0,-0.742,-0.7431,-0.7477,-0.7746,-0.7228,-0.6682,-0.635,-0.7173,-0.7845,-0.7957,0.0,-0.9071,-0.9379,-0.9494,-0.9722,-1.0271,-1.0718,-1.1185,-1.1726,-1.1564,-1.1345,-1.1125,-1.0612,-1.0023,-0.9511,-0.904,-0.8424,-0.746,-0.6089,-0.4752,-0.3755,-0.3287,-0.3049,-0.287,-0.2819,-0.2785,-1.1059,-1.0396,-1.0273,-0.9916,-0.9456,-0.9421,-0.967,-1.0067,-0.964,-0.9465,-0.9471,-0.9713,-0.9994,-1.031,-1.0583,0.0,-1.046,-1.0421,-1.0631,-1.099,-1.0868,-1.1152,-1.1678,-1.1229,-1.141,-1.2246,-1.1766,-1.1766,-1.2246,-1.2175,-1.2354,-1.2873,-1.2484,-1.2413,-1.2649,-1.2179,-1.2279,-1.2951,-1.2692,-1.3081,-1.4212,-1.4169,-1.4025,-1.3795,-1.2343,-1.2029,-1.2883,-1.1555,-1.1605,-1.3331,-1.2199,-1.19,-1.2782,0.0,0.0,0.0,0.0,0.0,0.0,0.0,0.0,0.0,0.0,0.0,0.0,0.0,0.0,0.0,-0.1292,0.0,-0.6251,-0.8328,0.0,0.0,0.0,-1.126,-1.0992,-1.0175,-0.962,-0.955,0.0,0.0,-0.9361,-0.9642,-0.9527,-0.8773,-0.9078,-0.9515,-0.9858,-1.0184,-1.0605,-1.1196,-1.156,-1.1878,-1.244,-1.3075,-1.3672,-1.4228,-1.4097,-1.3585,-1.3267,-1.269,-1.2047,-1.1388,-1.0697,-1.0041,-0.9286,-0.8238,-0.6829,-0.4995,-0.4084,-0.3627,-0.3681,-0.358,-0.3524,-1.2183,-1.1963,-1.1975,-1.1232,-1.0041,-1.0216,-1.0545,-1.0872,-1.0278,-1.0231,-1.0643,-1.0342,-1.0519,-1.1058,-1.1081,-1.1364,-1.1882,-1.1593,-1.1604,-1.1898,-1.1907,-1.1952,-1.1931,-1.1733,-1.1985,-1.2508,-1.2,-1.2035,-1.2626,-1.2343,-1.258,-1.3361,-1.3103,-1.3091,-1.334,-1.3238,-1.3494,-1.4169,-1.3807,-1.4175,-1.5283,-1.582,-1.5596,-1.4491,-1.3501,-1.2925,-1.2762,-1.1897,-1.2332,-1.422,-1.2864,-1.2223,-1.2715,-1.2613,0.0,0.0,0.0,0.0,0.0,0.0,0.0,0.0,0.0,0.293,0.2428,0.0,0.0307,0.0,-0.4778,-0.6447,-0.6669,-0.8659,0.0,0.0,-1.1606,-1.1811,-1.1516,-1.1137,-1.086,-1.0845,-1.0627,-1.0603,-1.0985,-1.0961,-1.1176,-1.1803,-1.0865,-1.0026,-1.0029,-1.1249,-1.2077,-1.2217,-1.3233,-1.4189,-1.4528,-1.4899,-1.5214,-1.5574,-1.5301,-1.49,-1.4495,-1.4028,-1.352,-1.3099,-1.2663,-1.2289,-1.1975,-1.0224,-0.8757,-0.8132,-0.6506,-0.4876,-0.4576,-0.4496,-0.4548,-1.2958,-1.2911,-1.2931,-1.2421,-1.1621,-1.1633,-1.1633,-1.1576,-1.1319,-1.1162,-1.1138,-1.0933,-1.0983,-1.1249,-1.1517,-1.1912,-1.2411,-1.2138,-1.2153,-1.245,-1.2352,-1.2224,-1.2095,-1.2221,-1.2444,-1.2776,-1.2568,-1.2568,-1.2785,-1.2594,-1.282,-1.3531,-1.3452,-1.3591,-1.3967,-1.3852,-1.4145,-1.4862,-1.4785,-1.5273,-1.6403,-1.6524,-1.6128,-1.5215,-1.4354,-1.3687,-1.3291,-1.278,-1.3369,-1.5188,-1.3469,-1.3206,-1.4795,-1.4172,-1.3999,0.0,0.0,0.0,0.0,0.0,0.0,0.0,0.0,0.0,0.0,0.0,-0.3752,-0.5833,-0.7536,-0.8493,-0.844,-0.9935,-1.1074,-1.1509,-1.1756,-1.1872,-1.1774,-1.1579,-1.1446,-1.1553,-1.1678,-1.19,-1.2295,-1.2518,-1.2951,-1.38,-1.2988,-1.2077,-1.1616,-1.2616,-1.3683,-1.4326,-1.5192,-1.5925,-1.6213,-1.6152,-1.6221,-1.6459,-1.6138,-1.5707,-1.5389,-1.4959,-1.4561,-1.4183,-1.3847,-1.3572,-1.3214,-1.2148,-1.1002,-1.0425,-0.9357,-0.7664,-0.5636,-0.5247,-0.5303,-1.3706,-1.3716,-1.3693,-1.3705,-1.3716,-1.3387,-1.2836,-1.2221,-1.2357,-1.2031,-1.1423,-1.1569,-1.1575,-1.1517,-1.1994,-1.2341,-1.257,-1.2535,-1.2648,-1.2878,-1.2633,-1.2519,-1.2524,-1.2642,-1.2829,-1.3043,-1.3226,-1.32,-1.294,-1.286,-1.3054,-1.3542,-1.3553,-1.387,-1.4545,-1.4251,-1.4543,-1.5433,-1.5827,-1.654,-1.7602,-1.7013,-1.6472,-1.6055,-1.5103,-1.4431,-1.4125,-1.3914,-1.4557,-1.6015,-1.4299,-1.4598,-1.7451,-1.6023,-1.5981,0.0,-1.6807,0.0,0.0,0.0,0.0,0.0,0.0,0.0,0.0,-0.5611,-0.7248,-0.9194,-1.0042,-1.0614,-1.0884,-1.1664,-1.2243,-1.2513,-1.2024,-1.1729,-1.1872,-1.1777,-1.1802,-1.2054,-1.2531,-1.2995,-1.3411,-1.4083,-1.4663,-1.5067,-1.5335,-1.5021,-1.41,-1.4445,-1.5356,-1.6825,-1.7138,-1.7326,-1.7487,-1.7166,-1.6946,-1.7172,-1.6783,-1.6297,-1.6087,-1.5766,-1.5345,-1.4972,-1.4774,-1.4474,-1.3965,-1.3775,-1.3271,-1.2439,-1.1947,-1.0534,-0.7509,-0.6396,-0.6314,-1.5024,-1.5326,-1.5239,-1.5294,-1.5476,-1.5222,-1.4173,-1.2657,-1.2535,-1.2544,-1.2574,-1.2337,-1.2489,-1.2885,-1.2851,-1.2869,-1.3046,-1.3796,-1.3918,-1.3555,-1.3625,-1.3835,-1.4087,-1.3228,-1.3147,-1.3837,-1.3516,-1.348,-1.369,-1.3093,-1.3178,-1.3855,-1.3385,-1.3765,-1.499,0.0,0.0,0.0,-1.778,-1.8488,-1.8927,-1.87,-1.8212,-1.7507,-1.6279,0.0,-1.4851,-1.4898,-1.5327,-1.6058,-1.6168,0.0,0.0,0.0,0.0,0.0,0.0,0.0,0.0,0.0,0.0,0.0,-1.0865,-0.9087,-0.695,-0.859,-1.0441,-1.2044,-1.3214,-1.3701,-1.3295,-1.3316,-1.3252,-1.3004,-1.244,-1.2018,-1.1943,-1.2113,-1.2425,-1.2906,-1.3238,-1.3657,-1.43,-1.514,-1.5863,-1.64,-1.755,-1.8057,-1.7475,-1.6898,-1.6676,-1.6905,-1.7877,-1.8639,-1.8574,-1.8188,-1.774,-1.7562,-1.7288,-1.6942,-1.6565,-1.6401,-1.6258,-1.5953,-1.5811,-1.5749,-1.596,-1.5062,-1.4327,-1.4552,-1.35,-1.1919,-1.0211,-0.9146,-0.8525,-1.5964,-1.6373,-1.6056,-1.6028,0.0,-1.6023,-1.5182,-1.3864,-1.3602,-1.3644,-1.3934,-1.384,-1.4073,-1.4593,-1.4538,-1.4466,-1.4322,-1.4587,-1.4515,-1.4155,-1.3658,-1.3675,-1.4099,-1.3387,-1.3403,-1.409,-1.4471,-1.4592,-1.4483,-1.4193,-1.4314,-1.4848,-1.4399,-1.4669,-1.5623,-1.5906,-1.6349,-1.6992,-1.7963,-1.8589,-1.8899,-1.8754,-1.8417,-1.791,-1.7063,0.0,0.0,0.0,0.0,0.0,0.0,0.0,0.0,-1.9774,0.0,-2.0028,-1.9921,-1.972,-1.937,-1.7819,-1.6287,-1.4981,-1.3571,-1.1785,-0.9442,-1.0916,-1.2457,-1.3693,-1.4611,-1.4981,-1.4671,-1.4524,-1.4212,-1.3609,-1.2988,-1.2531,-1.2365,-1.2496,-1.2906,-1.3537,-1.4109,-1.4685,-1.5315,-1.6138,-1.6873,-1.744,-1.843,-1.9081,-1.8888,-1.8614,-1.8372,-1.8203,-1.8608,-1.9064,-1.886,-1.8434,-1.8065,-1.7693,-1.7479,-1.7256,-1.7002,-1.6636,-1.6424,-1.6454,-1.6171,-1.5983,-1.6517,-1.6177,-1.5873,-1.5983,-1.5571,-1.4841,-1.3868,-1.1906,-1.0109,-1.668,-1.7177,-1.6586,-1.6532,-1.6807,-1.649,-1.5958,-1.5298,0.0,0.0,0.0,-1.531,-1.5572,-1.6077,-1.6147,-1.6024,-1.5722,-1.5303,-1.5103,-1.4923,-1.3775,-1.3505,-1.402,-1.385,-1.395,-1.4371,-1.5458,-1.5687,-1.5147,-1.5213,-1.5446,-1.5669,-1.5485,-1.5631,-1.61,-1.6956,-1.7254,-1.7028,-1.7855,-1.8391,-1.8542,-1.8508,-1.8381,-1.8237,-1.7721,-1.7363,-1.7212,-1.7775,-1.8098,-1.8108,-1.9314,-2.0075,-2.0309,-2.2018,-2.2382,-2.1054,-2.188,-2.1808,-2.0308,-1.937,-1.8417,-1.7411,-1.5422,-1.3733,-1.2617,-1.3331,-1.4297,-1.5456,-1.5905,-1.6127,-1.605,-1.5892,-1.5436,-1.4624,-1.3843,-1.3293,-1.3054,-1.3067,-1.345,-1.4055,-1.4852,-1.5649,-1.6286,-1.702,-1.7715,-1.8206,-1.8771,-1.9159,-1.9283,-1.9448,-1.9524,-1.9402,-1.9253,-1.9082,-1.886,-1.8473,-1.8044,-1.7839,-1.7612,-1.7399,-1.7089,-1.6614,-1.6373,-1.6467,-1.5959,-1.586,-1.6476,-1.6767,-1.7058,-1.6987,-1.7335,-1.7522,-1.6881,-1.4315,-1.1906,-1.7103,-1.8051,-1.6867,-1.7213,-1.8432,-1.6891,-1.6366,-1.6421,-1.5353,-1.5631,-1.692,-1.5974,-1.5965,-1.6668,-1.6558,-1.6441,-1.6289,-1.6386,-1.6344,-1.613,-1.5263,-1.52,-1.5805,-1.557,-1.5387,-1.5375,-1.6003,-1.5972,-1.5315,-1.5197,-1.5257,-1.5462,-1.535,-1.5573,-1.6056,-1.6939,-1.7489,-1.768,-1.8964,-1.9335,-1.8787,-1.9237,-1.9509,-1.9492,-1.8579,-1.8035,-1.7938,-1.7792,-1.7786,-1.8039,-1.9984,-2.126,-2.1752,-2.3796,-2.4685,-2.3846,-2.318,-2.238,-2.1426,-2.0975,-1.9888,-1.8025,-1.6378,-1.5967,-1.7254,-1.6617,-1.6852,-1.8582,-1.8757,-1.8831,-1.8601,-1.8171,-1.7516,-1.6569,-1.5304,-1.4391,-1.4147,-1.41,-1.4237,-1.462,-1.5242,-1.6103,-1.6979,-1.7614,-1.8159,-1.8589,-1.9008,-1.9335,-1.9481,-1.9536,-1.9522,-1.9497,-1.9375,-1.9134,-1.8895,-1.8606,-1.8293,-1.7949,-1.7772,-1.7428,-1.6716,-1.6384,-1.6229,-1.586,-1.5443,-1.5439,-1.6305,-1.6401,-1.6614,-1.7033,-1.7392,-1.7557,-1.7455,-1.5811,-1.4186,-1.7909,-1.8783,-1.8273,-1.8353,-1.8821,-1.7809,-1.799,-1.8826,-1.7578,-1.7437,-1.8085,-1.7836,-1.7992,-1.8407,-1.8566,-1.837,-1.7935,-1.8022,-1.7759,-1.7203,-1.6817,-1.6838,-1.7094,-1.6887,-1.6701,-1.6617,-1.7076,-1.6969,-1.6426,-1.6871,-1.7289,-1.75,-1.7563,-1.7297,-1.6743,-1.7683,-1.7807,-1.7087,-1.8574,-1.9201,-1.8932,-1.9128,-1.9306,-1.9342,-1.8857,-1.8624,-1.8591,-1.8632,-1.8974,-1.9553,-2.0783,-2.1803,-2.2553,-2.398,-2.4229,-2.3007,-2.3325,-2.2746,-2.0939,-2.1109,-2.121,-2.0997,-1.9914,-1.9532,-2.0314,-1.8571,-1.7983,-1.9228,-1.941,-1.9383,-1.9222,-1.8936,-1.8282,-1.7059,-1.6185,-1.5484,-1.4933,-1.4902,-1.5169,-1.566,-1.6211,-1.6889,-1.7783,-1.8226,-1.8626,-1.8977,-1.9306,-1.9559,-1.9636,-1.9527,-1.9446,-1.9431,-1.9344,-1.9168,-1.8983,-1.8698,-1.8432,-1.8146,-1.8023,-1.7752,-1.7177,-1.6875,-1.6742,-1.7067,-1.6261,-1.5846,-1.6588,-1.6378,-1.631,-1.6303,-1.6497,-1.6666,-1.6863,-1.5799,-1.4078,-1.8438,-1.9328,-1.9215,-1.9065,-1.8877,-1.8983,-1.9626,-2.0495,-1.967,-1.9358,-1.9427,-1.9452,-1.9593,-1.989,-2.0059,-1.9899,-1.9516,-1.9337,-1.8961,-1.8522,-1.8274,-1.821,-1.8166,-1.8,-1.7874,-1.782,-1.8113,-1.8052,-1.7793,-1.8463,-1.904,-1.9378,-1.9504,-1.9023,-1.8155,-1.9002,-1.8735,-1.7461,-1.8555,-1.9075,-1.8749,-1.8893,-1.8982,-1.9034,-1.9051,-1.9175,-1.9401,-1.9744,-2.0337,-2.1219,-2.1828,-2.2498,-2.3256,-2.4024,-2.3773,-2.2494,-2.3361,-2.3186,-2.1281,-2.1205,-2.2017,-2.3442,-2.2778,-2.2152,-2.1772,-2.0184,-1.9253,-1.9767,-1.9612,-1.9402,-1.946,-1.9106,-1.8422,-1.7395,-1.6983,-1.646,-1.578,-1.5778,-1.606,-1.6674,-1.714,-1.7718,-1.8406,-1.8789,-1.9061,-1.9354,-1.9617,-1.9751,-1.9724,-1.9592,-1.9467,-1.9394,-1.9292,-1.9202,-1.912,-1.8843,-1.8586,-1.8413,-1.831,-1.8149,-1.7877,-1.7394,-1.7091,-1.7542,-1.6814,-1.6257,-1.6661,-1.6225,-1.5871,-1.5919,-1.5902,-1.5773,-1.6221,-1.4983,-1.3332,-1.8377,-1.9012,-1.8715,-1.8578,-1.8918,-2.0242,-2.0559,-2.0208,-2.0607,-2.0943,-2.0815,-1.9707,-1.9589,-2.0065,-1.9825,-1.9958,-2.0385,-1.9722,-1.9694,-2.0058,-1.9435,-1.9086,-1.9074,-1.8949,-1.8805,-1.8718,-1.8752,-1.8866,-1.8945,-1.8814,-1.9032,-1.958,-1.9673,-2.0114,-2.0702,-2.0942,-2.0679,-1.9937,-2.0082,-1.9431,-1.8048,-1.8739,-1.9148,-1.9178,-1.9243,-1.9696,-2.0596,-2.0787,-2.1331,-2.2323,-2.3285,-2.3906,-2.4126,-2.4846,-2.4849,-2.3933,-2.3947,-2.379,-2.3393,-2.2119,-2.204,-2.3347,-2.2974,-2.2243,-2.1512,-2.1652,-2.176,-2.1501,-2.0249,-1.9756,-2.0063,-1.9269,-1.8643,-1.842,-1.7798,-1.7283,-1.7131,-1.706,-1.7034,-1.72,-1.7727,-1.8311,-1.8803,-1.9182,-1.9453,-1.9688,-1.9847,-1.9908,-1.982,-1.9719,-1.9604,-1.9499,-1.9408,-1.9335,-1.9219,-1.9069,-1.886,-1.8699,-1.8545,-1.8455,-1.8312,-1.7961,-1.7388,-1.7279,-1.6413,-1.6419,-1.6233,-1.5734,-1.536,-1.5704,-1.5653,-1.5474,-1.5336,-1.4443,-1.3178,-1.816,-1.8921,-1.9185,-1.9639,-2.0256,-2.0942,-2.1053,-2.0889,-2.1227,-2.1435,-2.1462,-2.0918,-2.0836,-2.1068,-2.0961,-2.1069,-2.1275,-2.1007,-2.0759,-2.0652,-2.0718,-2.057,-2.0212,-2.0521,-2.0401,-1.9877,-1.9857,-1.981,-1.9855,-2.0418,-2.0956,-2.1283,-2.1406,-2.1432,-2.1305,-2.1423,-2.1389,-2.1061,-2.0837,-2.0574,-2.031,-2.0157,-2.0129,-2.0255,-2.0755,-2.1232,-2.1652,-2.1795,-2.2275,-2.3206,-2.3732,-2.4255,-2.4821,-2.5149,-2.4937,-2.4053,-2.3466,-2.3583,-2.4498,-2.3476,-2.3106,-2.3755,-2.3942,-2.366,-2.2874,-2.3239,-2.3502,-2.3135,-2.195,-2.1115,-2.0896,-2.0608,-2.0138,-1.9345,-1.8934,-1.8573,-1.7816,-1.7795,-1.7855,-1.8014,-1.8369,-1.8804,-1.9236,-1.9645,-1.9858,-1.9941,-2.0001,-2.001,-1.9911,-1.9804,-1.972,-1.9711,-1.9973,-1.9991,-1.9564,-1.9305,-1.9193,-1.912,-1.9273,-1.9393,-1.9066,-1.9161,-1.886,-1.8044,-1.7444,-1.6959,-1.6754,-1.5917,-1.531,-1.5397,-1.5106,-1.4797,-1.4873,-1.4306,-1.3775,-1.8063,-1.8674,-1.9231,-2.0058,-2.0955,-2.1064,-2.1224,-2.1495,-2.1617,-2.1609,-2.1545,-2.157,-2.147,-2.1325,-2.1687,-2.174,-2.1562,-2.177,-2.1616,-2.1199,-2.174,-2.1573,-2.0944,-2.1099,-2.096,-2.0439,-2.0196,-2.0102,-2.02,-2.1395,-2.2157,-2.2291,-2.2627,-2.2573,-2.2207,-2.2319,-2.228,-2.2077,-2.174,-2.1795,-2.1988,-2.1732,-2.1461,-2.1408,-2.199,-2.2463,-2.2677,-2.2722,-2.3164,-2.4068,-2.4205,-2.4454,-2.4898,-2.5147,-2.4952,-2.4243,-2.3389,-2.3568,-2.4991,-2.4383,-2.4071,-2.4331,-2.4898,-2.4943,-2.4407,-2.4454,-2.4444,-2.3989,-2.3194,-2.228,-2.1655,-2.1423,-2.0884,-1.9973,-2.0068,-1.9779,-1.9056,-1.8953,-1.8995,-1.9021,-1.9088,-1.9246,-1.9657,-1.9979,-2.0098,-2.0079,-2.0096,-2.023,-2.0211,-2.0099,-1.9889,-2.0032,-2.0471,-2.0427,-2.0001,-2.0243,-2.0043,-1.9874,-2.0195,-2.0408,-1.9973,-2.0154,-2.0,-1.8851,-1.8367,-1.7511,-1.658,-1.5791,-1.5037,-1.4408,-1.4166,-1.4213,-1.4262,-1.4186,-1.4381,-1.8188,-1.8264,-1.8333,-1.917,-2.0362,-2.0515,-2.0964,-2.1642,-2.1777,-2.1585,-2.1137,-2.1069,-2.0726,-2.0272,-2.1256,-2.1412,-2.0915,-2.1482,-2.1848,-2.1911,-2.2096,-2.1731,-2.0958,-2.0329,-1.9974,-1.9913,-1.9571,-1.9539,-2.005,-2.1096,-2.1679,-2.198,-2.2718,-2.3417,-2.3896,-2.4007,-2.382,-2.3252,-2.3122,-2.2899,-2.262,-2.319,-2.3133,-2.2489,-2.2474,-2.2942,-2.353,-2.3625,-2.4037,-2.4917,-2.5008,-2.4826,-2.4282,-2.4809,-2.5096,-2.4822,-2.4176,-2.4129,-2.4866,-2.4514,-2.4463,-2.5157,-2.5363,-2.5367,-2.5053,-2.4924,-2.4557,-2.3805,-2.3376,-2.2799,-2.2023,-2.122,-2.0631,-2.0793,-2.1022,-2.1108,-2.0965,-2.046,-2.048,-2.0217,-1.9871,-1.9782,-2.0047,-2.0108,-2.0316,-2.034,-2.0288,-2.0557,-2.1072,-2.0633,-2.0475,-2.066,-2.0569,-2.021,-2.0803,-2.0897,-2.1142,-2.0926,-2.063,-2.1224,-2.0894,-2.0505,-2.0042,-1.9359,-1.8267,-1.7205,-1.623,-1.5402,-1.4659,-1.4131,-1.3863,-1.3856,-1.4021,-1.4365,-1.4483,-1.7979,-1.8391,-1.8416,-1.9229,-2.0471,-2.0591,-2.0837,-2.1211,-2.1267,-2.1056,-2.0637,-2.051,-2.0077,-1.9433,-2.0356,-2.0528,-2.0177,-2.0579,-2.0759,-2.0863,-2.1417,-2.1204,-2.0432,-2.0662,-2.0526,-2.0044,-1.9993,-2.0241,-2.0944,-2.2483,-2.3104,-2.2912,-2.3591,-2.42,-2.4405,-2.4493,-2.4428,-2.4233,-2.4229,-2.4151,-2.4068,-2.451,-2.4522,-2.4157,-2.4112,-2.4233,-2.4509,-2.4509,-2.4636,-2.4987,-2.513,-2.5031,-2.4712,-2.4829,-2.4701,-2.4257,-2.4417,-2.4751,-2.5077,-2.5031,-2.5096,-2.5473,-2.5512,-2.5444,-2.5216,-2.4898,-2.4479,-2.3989,-2.349,-2.2957,-2.2569,-2.2146,-2.1855,-2.1701,-2.2289,-2.2371,-2.145,-2.0825,-2.0509,-2.0572,-2.06,-2.0592,-2.047,-2.1078,-2.1702,-2.1559,-2.1746,-2.2003,-2.215,-2.1903,-2.151,-2.1313,-2.136,-2.1398,-2.1036,-2.0826,-2.0714,-2.0664,-2.0583,-2.062,-2.0425,-2.0169,-1.9714,-1.8605,-1.76,-1.6696,-1.5668,-1.4691,-1.4047,-1.3997,-1.3774,-1.3709,-1.3955,-1.427,-1.4254,-1.82,-1.856,-1.8618,-1.9282,-2.029,-2.0163,-2.0298,-2.0658,-2.0728,-2.0525,-2.0136,-2.0009,-1.9533,-1.9006,-1.9361,-1.9484,-1.9427,-2.0111,-2.0518,-2.0594,-2.1378,-2.1353,-2.0797,-2.124,-2.1086,-2.0381,-2.0331,-2.0489,-2.0825,-2.2627,-2.3295,-2.298,-2.407,-2.4645,-2.4642,-2.4692,-2.4757,-2.4753,-2.4787,-2.4837,-2.5006,-2.5149,-2.518,-2.5088,-2.5006,-2.4949,-2.4945,-2.4931,-2.494,-2.5013,-2.4881,-2.4729,-2.462,-2.4482,-2.4332,-2.4157,-2.4625,-2.5049,-2.5166,-2.5316,-2.5459,-2.5616,-2.5593,-2.5515,-2.536,-2.4908,-2.4497,-2.4045,-2.3526,-2.307,-2.2902,-2.2833,-2.2701,-2.2459,-2.3151,-2.3337,-2.2309,-2.1662,-2.1385,-2.133,-2.1263,-2.1168,-2.1201,-2.2095,-2.2527,-2.2479,-2.2678,-2.2774,-2.3139,-2.2689,-2.2317,-2.1733,-2.1468,-2.1142,-2.0755,-2.042,-2.0728,-2.0745,-2.0907,-2.0686,-1.9903,-1.9669,-1.8968,-1.7823,-1.684,-1.598,-1.5067,-1.4094,-1.3794,-1.3794,-1.3686,-1.3568,-1.3835,-1.4143,-1.4114,-1.8981,-1.8882,-1.8889,-1.9395,-1.9958,-1.9345,-1.9395,-2.0211,-2.0291,-2.0056,-1.9654,-1.9538,-1.914,-1.8625,-1.8557,-1.8364,-1.8827,-2.0367,-2.1173,-2.1282,-2.2065,-2.2151,-2.1596,-2.1707,-2.1424,-2.0705,-2.0341,-1.992,-1.9744,-2.1483,-2.2443,-2.2689,-2.4057,-2.4817,-2.4865,-2.4832,-2.4832,-2.4856,-2.4842,-2.4879,-2.4975,-2.508,-2.5111,-2.5069,-2.4917,-2.4845,-2.4898,-2.4898,-2.4972,-2.4993,-2.4366,-2.3908,-2.3814,-2.379,-2.3992,-2.4534,-2.4874,-2.5024,-2.5109,-2.5247,-2.5352,-2.5599,-2.5657,-2.5512,-2.5415,-2.509,-2.4615,-2.4025,-2.3476,-2.3095,-2.2977,-2.2721,-2.2581,-2.2875,-2.3382,-2.3663,-2.3684,-2.3382,-2.2906,-2.2431,-2.199,-2.1927,-2.2583,-2.3101,-2.3248,-2.3213,-2.2901,-2.2935,-2.3663,-2.2991,-2.2339,-2.2067,-2.1477,-2.0713,-2.0302,-2.0001,-2.0604,-2.1101,-2.1377,-2.1286,-1.968,-1.8934,-1.7856,-1.6709,-1.5448,-1.4628,-1.431,-1.3473,-1.3409,-1.3403,-1.3346,-1.3458,-1.3712,-1.3949,-1.408,-1.9352,-1.9738,-1.9779,-2.0204,-2.0738,-2.0043,-2.0038,-2.036,-1.9998,-1.9514,-1.91,-1.9013,-1.889,-1.8657,-1.851,-1.8731,-1.93,-2.0396,-2.0639,-2.046,-2.1579,-2.1843,-2.1371,-2.1766,-2.168,-2.1093,-2.0996,-2.0971,-2.1131,-2.2261,-2.3015,-2.339,-2.4313,-2.4865,-2.4953,-2.495,-2.4917,-2.4898,-2.4907,-2.4966,-2.5,-2.5068,-2.5087,-2.5032,-2.4929,-2.4902,-2.4964,-2.4884,-2.494,-2.5082,-2.4331,-2.3613,-2.322,-2.3836,-2.4189,-2.4005,-2.4559,-2.4981,-2.5014,-2.4772,-2.4899,-2.5329,-2.5156,-2.5063,-2.5318,-2.5059,-2.4638,-2.4113,-2.3502,-2.3049,-2.2825,-2.2632,-2.2642,-2.2985,-2.344,-2.3792,-2.4023,-2.3696,-2.3213,-2.2767,-2.2969,-2.3334,-2.3624,-2.4024,-2.4584,-2.4622,-2.4138,-2.3977,-2.4005,-2.3269,-2.2269,-2.1826,-2.1013,-2.0388,-2.0036,-1.9805,-2.0055,-2.0468,-2.084,-2.027,-1.8858,-1.7945,-1.6865,-1.5557,-1.43,-1.37,-1.3381,-1.322,-1.3234,-1.3275,-1.3405,-1.3508,-1.3609,-1.399,-1.4542,-1.9429,-1.9753,-2.0091,-2.0491,-2.0866,-2.0455,-2.0394,-2.0506,-2.0232,-1.9914,-1.968,-1.9397,-1.9291,-1.9255,-1.9163,-1.9411,-1.9961,-2.087,-2.1049,-2.0754,-2.1796,-2.2159,-2.1856,-2.242,-2.2539,-2.215,-2.2267,-2.2406,-2.2538,-2.3353,-2.3911,-2.4157,-2.4657,-2.4964,-2.4985,-2.4991,-2.4964,-2.4945,-2.4953,-2.4999,-2.5006,-2.5069,-2.505,-2.5012,-2.4921,-2.4926,-2.4977,-2.4879,-2.4934,-2.4998,-2.4587,-2.3881,-2.312,-2.4025,-2.4448,-2.417,-2.4444,-2.4923,-2.5001,-2.4794,-2.4632,-2.4991,-2.4961,-2.484,-2.4985,-2.4812,-2.4725,-2.418,-2.3462,-2.2865,-2.2598,-2.2642,-2.2807,-2.3146,-2.3427,-2.3819,-2.4137,-2.3944,-2.3824,-2.3688,-2.3956,-2.4225,-2.4646,-2.5002,-2.5598,-2.5583,-2.523,-2.4852,-2.4503,-2.3489,-2.2533,-2.1663,-2.1005,-2.0443,-1.9868,-1.9682,-1.9556,-1.9755,-1.9966,-1.8676,-1.7195,-1.688,-1.6152,-1.4515,-1.316,-1.3635,-1.3434,-1.3404,-1.3406,-1.3451,-1.3892,-1.4395,-1.4918,-1.5402,-1.583,-1.9424,-1.9301,-2.0055,-2.0445,-2.047,-2.0415,-2.0506,-2.0695,-2.0735,-2.0749,-2.0747,-2.0282,-2.0083,-2.0154,-1.9884,-1.9957,-2.0426,-2.148,-2.2138,-2.2329,-2.2977,-2.3369,-2.3715,-2.3889,-2.3871,-2.3795,-2.3889,-2.4034,-2.4149,-2.4407,-2.4767,-2.4881,-2.4941,-2.4991,-2.4991,-2.4991,-2.4996,-2.4977,-2.501,-2.4985,-2.5012,-2.507,-2.5076,-2.4991,-2.4959,-2.4945,-2.4991,-2.498,-2.4987,-2.5088,-2.4915,-2.4468,-2.3906,-2.4302,-2.4657,-2.4538,-2.4707,-2.4847,-2.4991,-2.4909,-2.4897,-2.4688,-2.5055,-2.5308,-2.4673,-2.4863,-2.4793,-2.4157,-2.3408,-2.2789,-2.252,-2.266,-2.3032,-2.3338,-2.3577,-2.3985,-2.4545,-2.4233,-2.433,-2.4899,-2.4826,-2.465,-2.5411,-2.5629,-2.5673,-2.5625,-2.543,-2.5021,-2.4596,-2.342,-2.2542,-2.1681,-2.0809,-2.0332,-1.9748,-1.9378,-1.9273,-1.9254,-1.9249,-1.7892,-1.6087,-1.5638,-1.5031,-1.3456,-1.2724,-1.3245,-1.3782,-1.3856,-1.4267,-1.4851,-1.5364,-1.5849,-1.6041,-1.6211,-1.6539,-2.142,-2.1754,-2.146,-2.1298,-2.117,-2.0766,-2.0599,-2.0648,-2.0481,-2.0245,-1.9919,-2.0307,-2.0244,-1.9672,-1.9581,-1.9753,-2.0571,-2.1367,-2.207,-2.2689,-2.351,-2.4516,-2.5321,-2.5461,-2.5415,-2.5319,-2.5107,-2.5181,-2.5664,-2.5132,-2.5126,-2.5637,-2.5206,-2.5004,-2.4999,-2.4991,-2.4977,-2.4945,-2.4985,-2.4966,-2.5004,-2.5019,-2.5057,-2.5012,-2.5031,-2.5044,-2.507,-2.5118,-2.4801,-2.4345,-2.4828,-2.4638,-2.3903,-2.4383,-2.4745,-2.4698,-2.4711,-2.4794,-2.4854,-2.456,-2.4534,-2.5063,-2.4905,-2.4813,-2.5176,-2.509,-2.4798,-2.4155,-2.3536,-2.3063,-2.2815,-2.2815,-2.3177,-2.3792,-2.4062,-2.4403,-2.4771,-2.4901,-2.5034,-2.5369,-2.5293,-2.541,-2.5556,-2.5701,-2.5701,-2.5517,-2.4891,-2.4124,-2.404,-2.301,-2.1986,-2.1119,-2.0352,-2.0022,-1.9613,-1.9191,-1.896,-1.8894,-1.8521,-1.7668,-1.5766,-1.4285,-1.3422,-1.2177,-1.2412,-1.2824,-1.397,-1.4637,-1.5364,-1.604,-1.6624,-1.6949,-1.6197,-1.6046,-1.6642,-2.101,-2.1368,-2.1209,-2.096,-2.0759,-2.0964,-2.0987,-2.0811,-2.0723,-2.0517,-2.0366,-2.0926,-2.0812,-2.0059,-2.0329,-2.0878,-2.1549,-2.2264,-2.323,-2.4377,-2.5317,-2.5774,-2.5943,-2.6041,-2.6372,-2.658,-2.635,-2.6713,-2.7116,-2.6247,-2.6051,-2.6185,-2.5494,-2.5029,-2.4985,-2.4991,-2.4996,-2.4888,-2.4688,-2.4587,-2.4972,-2.4657,-2.4765,-2.4885,-2.5044,-2.5051,-2.5107,-2.5164,-2.4941,-2.464,-2.4836,-2.4803,-2.434,-2.4559,-2.4776,-2.4695,-2.4692,-2.4764,-2.4807,-2.4495,-2.4475,-2.4805,-2.4665,-2.4803,-2.4951,-2.5027,-2.4927,-2.4254,-2.3719,-2.3356,-2.3141,-2.3188,-2.3656,-2.4242,-2.4595,-2.4828,-2.5038,-2.5152,-2.5337,-2.5511,-2.5613,-2.5648,-2.5693,-2.5691,-2.5694,-2.556,-2.5065,-2.4619,-2.4291,-2.2799,-2.173,-2.122,-2.0578,-2.0286,-1.9619,-1.9057,-1.8463,-1.8362,-1.7838,-1.7025,-1.5718,-1.3806,-1.2968,-1.2382,-1.2342,-1.286,-1.4418,-1.5634,-1.6131,-1.6829,-1.7549,-1.7776,-1.7135,-1.6406,-1.693,-1.9539,-1.9603,-2.0159,-2.0021,-1.975,-2.0993,-2.1196,-2.0902,-2.1036,-2.117,-2.1236,-2.1829,-2.1488,-2.0891,-2.1465,-2.2315,-2.2748,-2.3324,-2.4781,-2.5902,-2.6804,-2.6935,-2.6215,-2.6771,-2.7187,-2.7525,-2.7669,-2.8049,-2.8182,-2.7505,-2.7177,-2.6983,-2.5959,-2.5272,-2.5267,-2.5186,-2.5091,-2.4883,-2.4428,-2.4428,-2.4774,-2.4447,-2.4473,-2.4891,-2.5038,-2.5076,-2.5125,-2.5164,-2.5149,-2.5191,-2.5137,-2.5043,-2.4949,-2.4856,-2.4787,-2.4723,-2.4689,-2.4734,-2.4804,-2.4847,-2.471,-2.4512,-2.495,-2.5033,-2.4742,-2.4974,-2.4975,-2.4354,-2.3895,-2.3584,-2.352,-2.3838,-2.4273,-2.4695,-2.4974,-2.5096,-2.5145,-2.5264,-2.5395,-2.5556,-2.5645,-2.5691,-2.5699,-2.5682,-2.5662,-2.521,-2.4795,-2.4502,-2.4312,-2.3647,-2.2763,-2.2186,-2.1488,-2.0746,-1.9861,-1.8922,-1.8241,-1.7725,-1.7139,-1.6397,-1.5723,-1.4336,-1.3421,-1.2922,-1.3304,-1.4339,-1.5941,-1.6766,-1.7059,-1.7938,-1.8894,-1.884,-1.8448,-1.7603,-1.7595,-2.053,-2.0418,-2.0443,-2.0027,-1.9566,-2.0448,-2.0609,-2.0099,-2.0445,-2.0409,-2.0374,-2.1512,-2.1666,-2.1042,-2.1779,-2.1971,-2.2025,-2.3244,-2.4439,-2.5966,-2.686,-2.7474,-2.7545,-2.8083,-2.8398,-2.8487,-2.8565,-2.8693,-2.8617,-2.8175,-2.7864,-2.7774,-2.7015,-2.6415,-2.5876,-2.5783,-2.5551,-2.5026,-2.4718,-2.4647,-2.4771,-2.4712,-2.4663,-2.4947,-2.5057,-2.5168,-2.5184,-2.5206,-2.5206,-2.5206,-2.5168,-2.5122,-2.5025,-2.4966,-2.4898,-2.4813,-2.4738,-2.4738,-2.4794,-2.4861,-2.4905,-2.4815,-2.4976,-2.5202,-2.52,-2.5078,-2.4905,-2.4437,-2.4099,-2.3931,-2.3989,-2.4414,-2.4776,-2.5024,-2.5182,-2.5254,-2.5265,-2.5371,-2.5505,-2.5593,-2.5661,-2.57,-2.5703,-2.5702,-2.5447,-2.4879,-2.4544,-2.4228,-2.4192,-2.4254,-2.357,-2.2841,-2.2127,-2.1205,-1.9717,-1.8701,-1.7841,-1.7372,-1.6788,-1.6501,-1.5791,-1.5329,-1.4598,-1.4398,-1.4523,-1.5779,-1.6988,-1.7669,-1.7922,-1.9078,-1.9898,-1.929,-1.8738,-1.8247,-1.7697,-2.0447,-2.0645,-2.0506,-2.0027,-1.9572,-2.0346,-2.0223,-1.954,-1.9782,-1.9826,-1.9889,-2.1116,-2.1255,-2.0687,-2.1815,-2.2418,-2.3214,-2.4748,-2.5889,-2.6635,-2.7251,-2.7867,-2.8296,-2.8804,-2.9052,-2.8868,-2.891,-2.8905,-2.8709,-2.8334,-2.8047,-2.8128,-2.7528,-2.6691,-2.6174,-2.6132,-2.5641,-2.4922,-2.4566,-2.4542,-2.485,-2.4574,-2.4721,-2.4937,-2.513,-2.5217,-2.5206,-2.5206,-2.5195,-2.5184,-2.5198,-2.5168,-2.5063,-2.5019,-2.4953,-2.4903,-2.4827,-2.4798,-2.4827,-2.4827,-2.4879,-2.4968,-2.503,-2.5113,-2.5187,-2.5091,-2.4873,-2.4599,-2.4398,-2.4298,-2.4473,-2.4785,-2.5087,-2.5243,-2.535,-2.5393,-2.539,-2.5471,-2.5523,-2.5578,-2.5664,-2.568,-2.5702,-2.5681,-2.5559,-2.5125,-2.5174,-2.4914,-2.4978,-2.4868,-2.3979,-2.3247,-2.2582,-2.1485,-1.976,-1.8496,-1.744,-1.7052,-1.6809,-1.6777,-1.6664,-1.6328,-1.5991,-1.5853,-1.5692,-1.6305,-1.7412,-1.8063,-1.8733,-1.956,-1.986,-1.9337,-1.8679,-1.7933,-1.7372,-2.0318,-2.0627,-2.0483,-2.0027,-1.9625,-2.0357,-2.0052,-1.9074,-1.9316,-1.962,-1.9901,-2.0864,-2.1157,-2.0755,-2.227,-2.3631,-2.4644,-2.5903,-2.6391,-2.669,-2.7662,-2.8241,-2.867,-2.9037,-2.9185,-2.8952,-2.8952,-2.8952,-2.8792,-2.8445,-2.8352,-2.8257,-2.7867,-2.7171,-2.6432,-2.6223,-2.5857,-2.4888,-2.4439,-2.441,-2.4828,-2.4461,-2.4588,-2.5008,-2.5209,-2.5252,-2.5261,-2.5228,-2.5184,-2.5125,-2.5164,-2.5141,-2.5094,-2.5069,-2.5019,-2.5031,-2.4966,-2.4907,-2.487,-2.4846,-2.4846,-2.4889,-2.4898,-2.4929,-2.5,-2.4994,-2.4855,-2.4708,-2.457,-2.4554,-2.4823,-2.5061,-2.5243,-2.5378,-2.5449,-2.5505,-2.5524,-2.5538,-2.556,-2.5589,-2.5664,-2.5702,-2.5682,-2.5661,-2.5554,-2.5456,-2.5511,-2.5498,-2.5481,-2.5314,-2.4405,-2.3513,-2.2812,-2.1203,-1.9433,-1.8324,-1.7269,-1.7043,-1.6837,-1.7125,-1.7329,-1.7158,-1.6873,-1.6791,-1.6849,-1.7336,-1.7736,-1.8358,-1.9067,-1.9892,-1.9834,-1.9249,-1.8466,-1.7614,-1.7269,-2.1491,-2.0749,-2.061,-2.0174,-1.9675,-2.0014,-1.9867,-1.9335,-1.9458,-1.9676,-2.0085,-2.1486,-2.165,-2.176,-2.3543,-2.4333,-2.4167,-2.4948,-2.5445,-2.6311,-2.755,-2.8483,-2.9097,-2.9223,-2.9246,-2.9112,-2.9021,-2.8994,-2.8934,-2.8828,-2.8762,-2.8929,-2.8907,-2.8184,-2.7194,-2.6919,-2.6264,-2.5088,-2.47,-2.4769,-2.4841,-2.4885,-2.4874,-2.5243,-2.5322,-2.5361,-2.5351,-2.5252,-2.5157,-2.5122,-2.505,-2.5032,-2.5044,-2.5122,-2.5157,-2.513,-2.5068,-2.5019,-2.4947,-2.4898,-2.4846,-2.4802,-2.4827,-2.4898,-2.4947,-2.4947,-2.4879,-2.4741,-2.4666,-2.4716,-2.5005,-2.5203,-2.534,-2.541,-2.5464,-2.5518,-2.5556,-2.5609,-2.5634,-2.5617,-2.5646,-2.5683,-2.5663,-2.556,-2.5317,-2.5206,-2.5189,-2.5031,-2.4884,-2.4913,-2.4685,-2.3809,-2.2959,-2.1014,-1.8961,-1.8084,-1.724,-1.7199,-1.7173,-1.7524,-1.7696,-1.7789,-1.7676,-1.7386,-1.7369,-1.7648,-1.8139,-1.8589,-1.9057,-1.9607,-1.9419,-1.9138,-1.8456,-1.7794,-1.7773,-2.2001,-2.2145,-2.1625,-2.0969,-2.0448,-2.0639,-2.024,-1.9493,-1.9625,-2.0019,-2.0509,-2.1043,-2.1314,-2.1717,-2.2917,-2.3644,-2.3882,-2.5081,-2.5568,-2.6366,-2.7438,-2.861,-2.9258,-2.9291,-2.9243,-2.9175,-2.9085,-2.9017,-2.8952,-2.898,-2.9044,-2.9134,-2.9246,-2.8678,-2.7716,-2.7211,-2.6564,-2.5528,-2.5073,-2.4953,-2.5043,-2.5179,-2.5284,-2.533,-2.5421,-2.5429,-2.5395,-2.5322,-2.5212,-2.513,-2.5088,-2.5032,-2.5057,-2.5122,-2.5212,-2.5184,-2.5157,-2.5115,-2.5044,-2.4972,-2.4875,-2.4787,-2.4813,-2.4842,-2.487,-2.4884,-2.487,-2.4764,-2.4764,-2.4837,-2.5056,-2.5222,-2.5332,-2.5393,-2.5456,-2.5511,-2.5564,-2.5625,-2.5624,-2.5598,-2.5622,-2.5641,-2.5644,-2.5442,-2.5114,-2.4956,-2.4896,-2.4716,-2.4447,-2.4617,-2.4814,-2.4016,-2.3036,-2.1075,-1.9295,-1.8499,-1.7822,-1.7691,-1.7585,-1.7903,-1.8008,-1.8082,-1.794,-1.7687,-1.7839,-1.7888,-1.8025,-1.8302,-1.8806,-1.915,-1.8843,-1.854,-1.8335,-1.8111,-1.7951,-2.2793,-2.3679,-2.2762,-2.203,-2.1575,-2.1496,-2.0848,-1.9936,-1.9825,-2.0304,-2.0994,-2.0877,-2.1109,-2.1613,-2.2269,-2.2928,-2.3642,-2.5712,-2.6141,-2.6037,-2.7511,-2.8713,-2.886,-2.9169,-2.9197,-2.9175,-2.913,-2.9021,-2.8975,-2.8998,-2.9021,-2.9062,-2.9112,-2.8753,-2.7987,-2.7289,-2.6652,-2.6099,-2.522,-2.4926,-2.513,-2.532,-2.5398,-2.542,-2.5499,-2.5499,-2.5459,-2.5318,-2.5225,-2.5115,-2.5038,-2.4993,-2.4993,-2.5141,-2.5302,-2.5397,-2.5332,-2.5198,-2.5118,-2.498,-2.487,-2.4798,-2.4783,-2.4787,-2.4791,-2.4802,-2.4817,-2.4738,-2.4768,-2.4856,-2.4987,-2.5118,-2.5212,-2.5284,-2.5374,-2.5456,-2.5459,-2.5511,-2.5556,-2.5574,-2.5598,-2.5595,-2.5584,-2.5324,-2.4988,-2.4734,-2.4664,-2.4803,-2.4617,-2.4861,-2.4833,-2.4126,-2.297,-2.1135,-1.9819,-1.9245,-1.8758,-1.8616,-1.8393,-1.8409,-1.841,-1.8365,-1.815,-1.794,-1.7816,-1.7871,-1.7941,-1.7919,-1.8127,-1.8217,-1.8108,-1.8072,-1.8075,-1.7835,-1.7565,-2.4704,-2.4567,-2.3618,-2.3267,-2.312,-2.2155,-2.1361,-2.0765,-2.0262,-2.0437,-2.1313,-2.1847,-2.2089,-2.2394,-2.2467,-2.2545,-2.3258,-2.4735,-2.5553,-2.526,-2.7303,-2.8315,-2.8334,-2.8923,-2.8842,-2.878,-2.8887,-2.9044,-2.8828,-2.8769,-2.8887,-2.8881,-2.892,-2.8654,-2.7996,-2.7392,-2.6935,-2.6616,-2.5448,-2.4865,-2.5152,-2.5352,-2.5453,-2.5537,-2.5586,-2.558,-2.5511,-2.5312,-2.5168,-2.5175,-2.4947,-2.4827,-2.4856,-2.4942,-2.5653,-2.6013,-2.5913,-2.5332,-2.5294,-2.5076,-2.4888,-2.4837,-2.4764,-2.4726,-2.4745,-2.4729,-2.4729,-2.4707,-2.4723,-2.4783,-2.4865,-2.4936,-2.5018,-2.5099,-2.5196,-2.5283,-2.5316,-2.528,-2.5352,-2.5409,-2.5379,-2.5457,-2.549,-2.5179,-2.4878,-2.4622,-2.4468,-2.4605,-2.4785,-2.5004,-2.5186,-2.4571,-2.3467,-2.1676,-2.047,-1.9876,-1.9711,-1.9545,-1.9284,-1.9053,-1.9036,-1.8933,-1.8358,-1.8166,-1.8019,-1.785,-1.7907,-1.7787,-1.7551,-1.7516,-1.7648,-1.7832,-1.7985,-1.7663,-1.7333,-2.5603,-2.5685,-2.4216,-2.4003,-2.4374,-2.3088,-2.2439,-2.2107,-2.1173,-2.113,-2.1616,-2.1244,-2.1608,-2.2433,-2.2947,-2.3146,-2.3328,-2.45,-2.492,-2.474,-2.6283,-2.7243,-2.7411,-2.7647,-2.7751,-2.7856,-2.7721,-2.753,-2.7798,-2.8466,-2.8839,-2.8713,-2.8845,-2.8842,-2.8173,-2.7727,-2.7638,-2.7269,-2.645,-2.5755,-2.5716,-2.5594,-2.552,-2.5625,-2.5621,-2.5663,-2.5585,-2.5113,-2.5243,-2.5346,-2.5087,-2.508,-2.5633,-2.585,-2.6091,-2.6859,-2.6346,-2.6018,-2.6013,-2.543,-2.5082,-2.4896,-2.4818,-2.4768,-2.4742,-2.4679,-2.4666,-2.4645,-2.4692,-2.4719,-2.4764,-2.4775,-2.4874,-2.4949,-2.5018,-2.5046,-2.5064,-2.5064,-2.5077,-2.512,-2.5146,-2.5178,-2.515,-2.486,-2.46,-2.4417,-2.4273,-2.4327,-2.4637,-2.5019,-2.5188,-2.5236,-2.3936,-2.2424,-2.1415,-2.0637,-2.0628,-2.0483,-2.0174,-1.9964,-1.9872,-1.9608,-1.9109,-1.8551,-1.8263,-1.8124,-1.8009,-1.7739,-1.7538,-1.7388,-1.7278,-1.7702,-1.8055,-1.7786,-1.7662,-2.5468,-2.5902,-2.4847,-2.4823,-2.5333,-2.3953,-2.3328,-2.3172,-2.2054,-2.1832,-2.204,-2.1502,-2.1749,-2.2571,-2.3341,-2.3428,-2.3191,-2.4164,-2.434,-2.4608,-2.5282,-2.6152,-2.6541,-2.665,-2.6829,-2.6677,-2.6896,-2.6817,-2.7046,-2.7537,-2.8072,-2.8155,-2.8304,-2.8443,-2.8411,-2.8003,-2.7714,-2.7436,-2.6953,-2.6499,-2.6167,-2.568,-2.569,-2.58,-2.5902,-2.5931,-2.5894,-2.5551,-2.5725,-2.5622,-2.5315,-2.5446,-2.6283,-2.615,-2.6559,-2.722,-2.7115,-2.6867,-2.6537,-2.5914,-2.5239,-2.4956,-2.4847,-2.4726,-2.4757,-2.4663,-2.4613,-2.4645,-2.461,-2.4689,-2.4734,-2.4676,-2.4738,-2.4794,-2.4832,-2.4828,-2.4836,-2.4872,-2.4892,-2.4936,-2.4903,-2.4739,-2.4663,-2.4459,-2.4292,-2.416,-2.4116,-2.4118,-2.4507,-2.5019,-2.5148,-2.526,-2.4503,-2.3234,-2.2537,-2.1813,-2.1704,-2.143,-2.1114,-2.0918,-2.0813,-2.0512,-2.0072,-1.9441,-1.8881,-1.8954,-1.9192,-1.8375,-1.7609,-1.7861,-1.8054,-1.8085,-1.8143,-1.8002,-1.8266,-2.3906,-2.4543,-2.5543,-2.595,-2.5904,-2.4626,-2.3745,-2.3499,-2.2684,-2.2343,-2.2464,-2.2912,-2.3094,-2.3434,-2.3402,-2.3215,-2.2528,-2.3908,-2.395,-2.4349,-2.5338,-2.5801,-2.5987,-2.6171,-2.6519,-2.6499,-2.6351,-2.6385,-2.6578,-2.6594,-2.6746,-2.6676,-2.7556,-2.7684,-2.7866,-2.7986,-2.7673,-2.7483,-2.7242,-2.702,-2.6469,-2.5996,-2.5917,-2.649,-2.669,-2.6761,-2.6806,-2.6438,-2.6372,-2.6178,-2.5565,-2.5944,-2.6591,-2.6412,-2.6934,-2.7808,-2.7998,-2.768,-2.7184,-2.6091,-2.5139,-2.4877,-2.4771,-2.4682,-2.4726,-2.4666,-2.4647,-2.4642,-2.461,-2.461,-2.4642,-2.466,-2.4663,-2.466,-2.4673,-2.4654,-2.4666,-2.4712,-2.4756,-2.4771,-2.4708,-2.4576,-2.4514,-2.4396,-2.4243,-2.4118,-2.4239,-2.4264,-2.4624,-2.5045,-2.51,-2.5071,-2.474,-2.4098,-2.3657,-2.3156,-2.2693,-2.2412,-2.2171,-2.197,-2.1816,-2.1454,-2.1188,-2.0718,-2.0269,-2.0327,-2.0322,-1.9872,-1.9424,-1.9022,-1.8949,-1.9111,-1.9474,-1.9705,-1.9911,-2.3481,-2.3548,-2.4452,-2.5426,-2.6249,-2.4776,-2.443,-2.462,-2.3725,-2.2886,-2.2438,-2.3088,-2.3416,-2.339,-2.3454,-2.3604,-2.3502,-2.2466,-2.3138,-2.3627,-2.4176,-2.4402,-2.47,-2.5314,-2.5427,-2.5485,-2.5466,-2.5356,-2.5226,-2.5796,-2.5864,-2.613,-2.709,-2.7843,-2.8135,-2.8296,-2.8223,-2.812,-2.7979,-2.7765,-2.7695,-2.7115,-2.6944,-2.7237,-2.7472,-2.7492,-2.7364,-2.667,-2.6939,-2.6891,-2.5839,-2.6215,-2.7187,-2.7004,-2.7508,-2.8463,-2.8489,-2.8192,-2.7537,-2.6434,-2.5622,-2.494,-2.4779,-2.4735,-2.4907,-2.477,-2.4698,-2.466,-2.4685,-2.4706,-2.4701,-2.4652,-2.4601,-2.4566,-2.4547,-2.4512,-2.4512,-2.4578,-2.461,-2.4642,-2.4591,-2.4508,-2.4458,-2.4407,-2.4229,-2.4096,-2.4265,-2.4487,-2.4801,-2.5011,-2.5067,-2.4965,-2.4647,-2.4404,-2.3969,-2.372,-2.3504,-2.3302,-2.3102,-2.2816,-2.2589,-2.283,-2.2549,-2.2038,-2.1653,-2.1635,-2.1608,-2.1569,-2.116,-2.0477,-2.0271,-2.0355,-2.0798,-2.133,-2.1359,-2.2448,-2.2129,-2.2915,-2.4194,-2.5476,-2.465,-2.4687,-2.5227,-2.4587,-2.3759,-2.3013,-2.3453,-2.3537,-2.3432,-2.3277,-2.3247,-2.3145,-2.2406,-2.2745,-2.321,-2.3566,-2.366,-2.4351,-2.4767,-2.4885,-2.4679,-2.4647,-2.4657,-2.4667,-2.5245,-2.5707,-2.6272,-2.7034,-2.7899,-2.8268,-2.8837,-2.9026,-2.8887,-2.857,-2.8349,-2.8365,-2.7883,-2.7813,-2.7903,-2.8072,-2.7985,-2.7692,-2.7128,-2.6959,-2.6794,-2.6261,-2.609,-2.7108,-2.8034,-2.8219,-2.8577,-2.8883,-2.8688,-2.791,-2.6587,-2.5844,-2.5381,-2.5267,-2.5341,-2.5469,-2.5499,-2.5731,-2.5584,-2.5298,-2.4987,-2.5019,-2.4949,-2.464,-2.4566,-2.4515,-2.4481,-2.4428,-2.4445,-2.4498,-2.4515,-2.4497,-2.4528,-2.458,-2.4564,-2.4498,-2.4357,-2.4441,-2.4617,-2.4785,-2.4974,-2.5018,-2.486,-2.461,-2.4349,-2.4097,-2.3917,-2.3707,-2.3628,-2.3466,-2.3336,-2.3264,-2.353,-2.3522,-2.2914,-2.2694,-2.2842,-2.2892,-2.2901,-2.2387,-2.1724,-2.1798,-2.2018,-2.2305,-2.2747,-2.2383,-2.0429,-2.0106,-2.1137,-2.2458,-2.3862,-2.419,-2.4478,-2.4846,-2.4904,-2.4674,-2.417,-2.4099,-2.3871,-2.363,-2.3088,-2.2717,-2.2439,-2.2106,-2.2359,-2.2884,-2.3582,-2.4426,-2.4762,-2.4804,-2.4775,-2.4802,-2.4787,-2.4723,-2.461,-2.5313,-2.595,-2.6577,-2.7267,-2.7934,-2.7881,-2.8672,-2.898,-2.8795,-2.845,-2.8428,-2.8372,-2.8073,-2.8296,-2.8588,-2.873,-2.8619,-2.8252,-2.7651,-2.7433,-2.7204,-2.6275,-2.629,-2.7306,-2.8203,-2.8612,-2.8902,-2.9821,-2.9781,-2.8975,-2.6469,-2.5792,-2.6043,-2.609,-2.6342,-2.6967,-2.7093,-2.6733,-2.6246,-2.5914,-2.577,-2.5621,-2.5358,-2.4916,-2.464,-2.4627,-2.4763,-2.4764,-2.4635,-2.4727,-2.476,-2.4659,-2.4631,-2.4698,-2.4729,-2.4732,-2.4698,-2.4685,-2.4756,-2.4869,-2.4896,-2.4929,-2.4809,-2.4579,-2.4439,-2.4247,-2.4077,-2.3937,-2.3878,-2.3821,-2.3715,-2.3697,-2.3842,-2.3762,-2.3548,-2.3562,-2.358,-2.3916,-2.4243,-2.3615,-2.3134,-2.3598,-2.3857,-2.4099,-2.3952,-2.3455,-1.827,-1.87,-1.9958,-2.1146,-2.2254,-2.3419,-2.4153,-2.4587,-2.4889,-2.4779,-2.4267,-2.4016,-2.3702,-2.3182,-2.2538,-2.2173,-2.2395,-2.0826,-2.1036,-2.3215,-2.3569,-2.41,-2.4607,-2.4923,-2.4896,-2.4966,-2.4959,-2.487,-2.4731,-2.5448,-2.5724,-2.6227,-2.7385,-2.8128,-2.8544,-2.8966,-2.8952,-2.8984,-2.8904,-2.8886,-2.8933,-2.8943,-2.9121,-2.9475,-2.9497,-2.933,-2.8899,-2.8158,-2.7875,-2.795,-2.7122,-2.7065,-2.8094,-2.9044,-2.9274,-2.9419,-2.9948,-2.9525,-2.8463,-2.6926,-2.6803,-2.6939,-2.7087,-2.7257,-2.7597,-2.6892,-2.665,-2.6461,-2.5946,-2.556,-2.4947,-2.5454,-2.5308,-2.5011,-2.5054,-2.5467,-2.5542,-2.53,-2.5208,-2.5168,-2.5103,-2.5081,-2.5106,-2.5454,-2.5518,-2.5214,-2.5158,-2.4866,-2.4842,-2.4827,-2.4827,-2.4749,-2.4591,-2.4513,-2.4375,-2.421,-2.4135,-2.4115,-2.4135,-2.4155,-2.4173,-2.4154,-2.4116,-2.3986,-2.4137,-2.4301,-2.4441,-2.4586,-2.4676,-2.4643,-2.467,-2.4636,-2.4551,-2.4391,-2.4113,-1.6765,-1.7562,-1.8985,-2.0043,-2.1011,-2.2664,-2.364,-2.4017,-2.4332,-2.4219,-2.3818,-2.3809,-2.3607,-2.3024,-2.2594,-2.2124,-2.2773,-2.1849,-2.1543,-2.3705,-2.3694,-2.432,-2.4912,-2.5099,-2.5075,-2.5125,-2.5069,-2.4987,-2.495,-2.5562,-2.615,-2.6784,-2.7366,-2.8046,-2.85,-2.8548,-2.8452,-2.8467,-2.8445,-2.8885,-2.9213,-2.955,-2.9813,-2.9897,-2.9855,-2.9672,-2.9011,-2.8563,-2.825,-2.8478,-2.8158,-2.7729,-2.8743,-2.9202,-2.9411,-2.9489,-2.9582,-2.9085,-2.8029,-2.7855,-2.7656,-2.7484,-2.7805,-2.8221,-2.8408,-2.8212,-2.7523,-2.6945,-2.596,-2.5729,-2.5733,-2.6222,-2.5887,-2.5607,-2.6019,-2.6451,-2.6284,-2.6024,-2.6005,-2.5923,-2.5941,-2.5849,-2.5818,-2.611,-2.6439,-2.6045,-2.5649,-2.5289,-2.4945,-2.487,-2.4854,-2.4773,-2.465,-2.453,-2.4462,-2.4356,-2.4302,-2.4321,-2.4357,-2.4393,-2.441,-2.4356,-2.4374,-2.4409,-2.4442,-2.4526,-2.4685,-2.4814,-2.4858,-2.4911,-2.4968,-2.494,-2.4931,-2.4743,-2.452,-1.5941,-1.6695,-1.8142,-1.9207,-2.0152,-2.2078,-2.2959,-2.3059,-2.3328,-2.3274,-2.3038,-2.3515,-2.3243,-2.3097,-2.3448,-2.3262,-2.2813,-2.2899,-2.3373,-2.3951,-2.4272,-2.4898,-2.5148,-2.5262,-2.5209,-2.5184,-2.5149,-2.5101,-2.5152,-2.5416,-2.6334,-2.7175,-2.728,-2.7481,-2.7498,-2.7569,-2.7548,-2.7682,-2.8093,-2.8682,-2.9345,-2.9756,-2.9928,-2.9938,-2.9753,-2.9275,-2.8606,-2.7978,-2.7638,-2.734,-2.6779,-2.7296,-2.7764,-2.7997,-2.8626,-2.9098,-2.9446,-2.8636,-2.7896,-2.7912,-2.8042,-2.7786,-2.842,-2.9256,-2.9587,-2.9317,-2.854,-2.7834,-2.7088,-2.7226,-2.738,-2.6988,-2.6578,-2.6838,-2.7249,-2.7269,-2.7027,-2.6914,-2.6983,-2.7005,-2.7108,-2.71,-2.7135,-2.7331,-2.7312,-2.6868,-2.6472,-2.6075,-2.5662,-2.5089,-2.5054,-2.4944,-2.4783,-2.4599,-2.4495,-2.4444,-2.4426,-2.4428,-2.4479,-2.4513,-2.4512,-2.4528,-2.4561,-2.4594,-2.4642,-2.4734,-2.4808,-2.4879,-2.4961,-2.5032,-2.5044,-2.5038,-2.494,-2.4959,-2.4809,-1.5433,-1.6675,-1.7654,-1.8929,-2.043,-2.1916,-2.2703,-2.2924,-2.3057,-2.2693,-2.1837,-2.1856,-2.2015,-2.1657,-2.2089,-2.2437,-2.2575,-2.2742,-2.3244,-2.387,-2.4514,-2.4878,-2.5148,-2.5332,-2.5292,-2.525,-2.5217,-2.5141,-2.5082,-2.5253,-2.5188,-2.5429,-2.6581,-2.634,-2.6154,-2.6135,-2.6597,-2.7002,-2.752,-2.8554,-2.9345,-2.9803,-2.9932,-2.9912,-2.9545,-2.9117,-2.8897,-2.8056,-2.7979,-2.8609,-2.8552,-2.9037,-2.9706,-2.9868,-3.0095,-2.9344,-2.885,-2.7973,-2.7145,-2.7945,-2.8336,-2.7908,-2.8713,-2.9627,-2.9926,-2.9655,-2.9087,-2.8496,-2.7731,-2.7531,-2.7606,-2.7401,-2.7363,-2.7755,-2.8128,-2.8165,-2.7885,-2.7585,-2.7653,-2.785,-2.7947,-2.8103,-2.8178,-2.8292,-2.8211,-2.7746,-2.7334,-2.699,-2.6358,-2.5777,-2.5305,-2.5213,-2.4839,-2.4599,-2.4578,-2.4545,-2.4528,-2.453,-2.4564,-2.4613,-2.4626,-2.4657,-2.4719,-2.4749,-2.4764,-2.4827,-2.487,-2.4926,-2.4934,-2.4942,-2.4968,-2.4974,-2.4993,-2.4999,-2.4991,-1.5934,-1.72,-1.8194,-1.9731,-2.151,-2.2697,-2.3023,-2.2646,-2.2712,-2.2207,-2.1422,-2.1795,-2.1451,-2.1007,-2.2041,-2.2736,-2.2685,-2.3393,-2.3961,-2.4418,-2.4563,-2.5,-2.531,-2.5393,-2.5351,-2.5312,-2.528,-2.5225,-2.5158,-2.53,-2.5302,-2.5332,-2.6058,-2.5817,-2.5745,-2.6247,-2.6283,-2.6467,-2.6931,-2.8276,-2.912,-2.9713,-2.9937,-2.9884,-2.9392,-2.9283,-2.9063,-2.8074,-2.8254,-2.9002,-2.8961,-2.9342,-2.9799,-2.9879,-2.9359,-2.8535,-2.7918,-2.7033,-2.6436,-2.7332,-2.7493,-2.7792,-2.8812,-2.9786,-3.0002,-2.977,-2.9391,-2.895,-2.8072,-2.7473,-2.7641,-2.7808,-2.8184,-2.8559,-2.8821,-2.9083,-2.8708,-2.8258,-2.8341,-2.8552,-2.8731,-2.8893,-2.9046,-2.9164,-2.9171,-2.8787,-2.8538,-2.8314,-2.7418,-2.6395,-2.5871,-2.5553,-2.5028,-2.4596,-2.4631,-2.4669,-2.462,-2.4601,-2.4613,-2.466,-2.4738,-2.4798,-2.4827,-2.4856,-2.4884,-2.4884,-2.4889,-2.487,-2.4879,-2.4888,-2.4934,-2.4966,-2.5012,-2.5025,-2.5004,-1.7036,-1.7974,-1.9294,-2.0811,-2.2783,-2.3516,-2.3179,-2.2064,-2.2287,-2.1921,-2.1394,-2.2329,-2.164,-2.0752,-2.203,-2.2869,-2.3143,-2.3762,-2.4468,-2.526,-2.5277,-2.5428,-2.5441,-2.5492,-2.5401,-2.5332,-2.5292,-2.528,-2.5409,-2.5576,-2.5808,-2.5867,-2.6968,-2.6803,-2.582,-2.6823,-2.671,-2.5689,-2.6469,-2.7699,-2.8857,-2.9521,-2.9915,-2.9808,-2.9314,-2.8804,-2.8037,-2.7428,-2.7031,-2.771,-2.8143,-2.8612,-2.8816,-2.8609,-2.7896,-2.7394,-2.6953,-2.6368,-2.6074,-2.673,-2.7129,-2.7656,-2.866,-2.9508,-2.9683,-2.9842,-2.9596,-2.9108,-2.8278,-2.803,-2.8138,-2.8386,-2.8706,-2.9027,-2.927,-2.9232,-2.8856,-2.8627,-2.8739,-2.9003,-2.9423,-2.9594,-2.9685,-2.9778,-2.9551,-2.9506,-2.9345,-2.915,-2.8404,-2.7139,-2.673,-2.6206,-2.5495,-2.5043,-2.4909,-2.4912,-2.4731,-2.4692,-2.4722,-2.4933,-2.5182,-2.5106,-2.4931,-2.4931,-2.4912,-2.4875,-2.4846,-2.4842,-2.4842,-2.487,-2.4917,-2.4977,-2.5018,-2.5044,-2.5031,-1.7596,-1.816,-1.9374,-2.0424,-2.1221,-2.1536,-2.2099,-2.2488,-2.1854,-2.0982,-2.0169,-2.0556,-2.06,-2.0187,-2.1307,-2.2164,-2.3002,-2.3744,-2.4551,-2.5128,-2.5466,-2.5574,-2.5568,-2.5517,-2.5437,-2.5395,-2.5351,-2.5417,-2.5509,-2.5806,-2.5859,-2.5252,-2.6378,-2.6517,-2.582,-2.6916,-2.6637,-2.5522,-2.6321,-2.7047,-2.7676,-2.8998,-2.9699,-2.9394,-2.8887,-2.8919,-2.8356,-2.795,-2.8076,-2.8557,-2.8187,-2.8279,-2.8437,-2.7605,-2.7152,-2.6845,-2.6249,-2.5819,-2.5876,-2.6341,-2.6932,-2.7629,-2.8443,-2.8906,-2.9317,-2.9696,-2.9626,-2.9059,-2.8764,-2.8645,-2.8635,-2.8886,-2.9136,-2.9401,-2.9645,-2.9305,-2.8983,-2.9047,-2.9118,-2.9513,-2.9973,-3.0152,-3.0248,-3.0161,-2.9965,-2.9732,-2.9514,-2.9226,-2.8685,-2.7791,-2.7849,-2.7306,-2.6185,-2.5679,-2.5433,-2.5176,-2.5015,-2.4995,-2.5028,-2.5311,-2.5608,-2.5267,-2.4931,-2.4945,-2.4912,-2.4875,-2.4832,-2.4836,-2.4836,-2.4846,-2.4889,-2.4931,-2.4959,-2.4985,-2.5018,-1.8626,-1.918,-2.0246,-2.0923,-2.1245,-2.1372,-2.1708,-2.197,-2.1795,-2.0871,-1.9843,-2.0387,-2.0346,-1.9717,-2.0659,-2.1423,-2.2417,-2.3372,-2.4072,-2.4733,-2.5399,-2.5566,-2.5586,-2.5561,-2.5479,-2.5456,-2.5812,-2.5946,-2.5838,-2.6835,-2.7056,-2.5771,-2.6252,-2.6585,-2.6078,-2.6432,-2.6674,-2.6021,-2.6636,-2.6823,-2.6912,-2.8139,-2.9117,-2.8865,-2.8937,-2.8989,-2.872,-2.8276,-2.8176,-2.8174,-2.7768,-2.7496,-2.7357,-2.6705,-2.6298,-2.6094,-2.5784,-2.5492,-2.5742,-2.6269,-2.6942,-2.755,-2.8319,-2.8774,-2.8208,-2.8487,-2.861,-2.8222,-2.8866,-2.8861,-2.882,-2.8997,-2.9243,-2.9494,-2.9664,-2.9565,-2.9451,-2.9481,-2.9558,-2.9722,-3.006,-3.0203,-3.0221,-3.0071,-2.9867,-2.9548,-2.9362,-2.9265,-2.8723,-2.8465,-2.8559,-2.8371,-2.7246,-2.6219,-2.5697,-2.5497,-2.5335,-2.5316,-2.5385,-2.5541,-2.5709,-2.5253,-2.4931,-2.4917,-2.4903,-2.4875,-2.485,-2.4836,-2.4817,-2.4827,-2.4856,-2.4917,-2.4931,-2.4959,-2.4972,-1.9813,-2.049,-2.1232,-2.1597,-2.1704,-2.1784,-2.1512,-2.1195,-2.1557,-2.1041,-2.0007,-2.117,-2.042,-2.0119,-2.0717,-2.1087,-2.1894,-2.3324,-2.3983,-2.462,-2.5288,-2.5527,-2.5632,-2.5625,-2.5535,-2.5712,-2.6092,-2.6332,-2.6392,-2.7278,-2.737,-2.6668,-2.6902,-2.7403,-2.6467,-2.6488,-2.6859,-2.658,-2.6711,-2.6786,-2.7157,-2.7675,-2.842,-2.8802,-2.9025,-2.9085,-2.8835,-2.8476,-2.806,-2.7609,-2.7262,-2.6699,-2.6376,-2.5876,-2.5795,-2.5573,-2.5628,-2.5529,-2.5749,-2.6396,-2.6743,-2.717,-2.7988,-2.8013,-2.7374,-2.7366,-2.7494,-2.7751,-2.8402,-2.8924,-2.8864,-2.9089,-2.9336,-2.9569,-2.97,-2.9789,-2.9805,-2.982,-2.988,-2.9954,-3.0066,-3.0207,-3.0166,-3.003,-2.9761,-2.9456,-2.9233,-2.91,-2.8969,-2.8951,-2.8967,-2.889,-2.8307,-2.7296,-2.6311,-2.5778,-2.5615,-2.5836,-2.5906,-2.5916,-2.5847,-2.5593,-2.5258,-2.4879,-2.4865,-2.4846,-2.4861,-2.4861,-2.4842,-2.4827,-2.4889,-2.4931,-2.4884,-2.4912,-2.4959,-2.0821,-2.0877,-2.1016,-2.0742,-2.0281,-2.0153,-2.0114,-2.0153,-2.0183,-1.9957,-2.0107,-2.0677,-2.0806,-2.0474,-2.1511,-2.2103,-2.2566,-2.3611,-2.4482,-2.5277,-2.5325,-2.5512,-2.5654,-2.5639,-2.5586,-2.5841,-2.6216,-2.6505,-2.6822,-2.7056,-2.688,-2.636,-2.6279,-2.65,-2.6282,-2.66,-2.7232,-2.6896,-2.7027,-2.7289,-2.7214,-2.775,-2.8388,-2.8962,-2.9565,-2.9436,-2.92,-2.8919,-2.8461,-2.7849,-2.7072,-2.6152,-2.5634,-2.5438,-2.5472,-2.5704,-2.5744,-2.5732,-2.6065,-2.6217,-2.6373,-2.6694,-2.7153,-2.6779,-2.6503,-2.6729,-2.6729,-2.6523,-2.7216,-2.8187,-2.847,-2.9057,-2.9401,-2.9626,-2.9806,-2.9806,-2.9823,-2.9872,-2.9934,-3.0011,-3.0071,-3.018,-3.0226,-3.0064,-2.9855,-2.9568,-2.9363,-2.9195,-2.8914,-2.9098,-2.9276,-2.9217,-2.9047,-2.8248,-2.7206,-2.6206,-2.5948,-2.6226,-2.6427,-2.647,-2.6393,-2.6147,-2.5769,-2.5087,-2.4865,-2.4827,-2.4842,-2.4889,-2.487,-2.487,-2.4931,-2.4964,-2.4917,-2.4884,-2.4912]},{"header":{"parameterUnit":"m.s-1","parameterCategory":1,"la1":31.0,"la2":29.5877,"lo1":-88.7671,"lo2":-86.6584,"dy":0.0162,"dx":0.0185,"nx":115,"ny":88,"refTime":"2023-09-11T06:00:00:Z","depth":0,"parameterNumber":3,"parameterNumberName":"V-component_of_WINDS"},"data":[0.0,0.0,0.0,0.0,0.0,0.0,0.0,0.0,0.0,0.0,0.0,0.0,0.0,0.0,0.0,0.0,0.0,0.0,0.0,0.0,0.0,0.0,0.0,0.0,0.0,0.0,0.0,0.0,0.0,0.0,0.0,0.0,0.0,0.0,0.0,0.0,0.0,0.0,0.0,0.0,0.0,0.0,0.0,0.0,0.0,0.0,0.0,0.0,0.0,0.0,0.0,0.0,0.0,0.0,0.0,0.0,0.0,0.0,0.0,0.0,0.0,0.0,0.0,0.0,0.0,0.0,0.0,0.0,0.0,0.0,0.0,0.0,0.0,0.0,0.0,0.0,0.0,0.0,0.0,0.0,0.0,0.0,0.0,0.0,0.0,0.0,0.0,0.0,0.0,0.0,0.0,0.0,0.0,0.0,0.0,0.0,0.0,0.0,0.0,0.0,0.0,0.0,0.0,0.0,0.0,0.0,0.0,0.0,0.0,0.0,0.0,0.0,0.0,0.0,0.0,0.0,0.0,0.0,0.0,0.0,0.0,0.0,0.0,0.0,0.0,0.0,0.0,0.0,0.0,0.0,0.0,0.0,0.0,0.0,0.0,0.0,0.0,0.0,0.0,0.0,0.0,0.0,0.0,0.0,0.0,0.0,0.0,0.0,0.0,0.0,0.0,0.0,0.0,0.0,0.0,0.0,0.0,0.0,0.0,0.0,0.0,0.0,0.0,0.0,0.0,0.0,0.0,0.0,0.0,0.0,0.0,0.0,0.0,0.0,0.0,0.0,0.0,0.0,0.0,0.0,0.0,0.0,0.0,0.0,0.0,0.0,0.0,0.0,0.0,0.0,0.0,0.0,0.0,0.0,0.0,0.0,0.0,0.0,0.0,0.0,0.0,0.0,0.0,0.0,0.0,0.0,0.0,0.0,0.0,0.0,0.0,0.0,0.0,0.0,0.0,0.0,0.0,0.0,0.0,0.0,0.0,0.0,0.0,0.0,0.0,0.0,0.0,0.0,0.0,0.0,0.0,0.0,0.0,0.0,0.0,0.0,0.0,0.0,0.0,0.0,0.0,0.0,0.0,0.0,0.0,0.0,0.0,0.0,0.0,0.0,0.0,0.0,0.0,0.0,0.0,0.0,0.0,0.0,0.0,0.0,0.0,0.0,0.0,0.0,0.0,0.0,0.0,0.0,0.0,0.0,0.0,0.0,0.0,0.0,0.0,0.0,0.0,0.0,0.0,0.0,0.0,0.0,0.0,0.0,0.0,0.0,0.0,0.0,0.0,0.0,0.0,0.0,0.0,0.0,0.0,0.0,0.0,0.0,0.0,0.0,0.0,0.0,0.0,0.0,0.0,0.0,0.0,0.0,0.0,0.0,0.0,0.0,0.0,0.0,0.0,0.0,0.0,0.0,0.0,0.0,0.0,0.0,0.0,0.0,0.0,0.0,0.0,0.0,0.0,0.0,0.0,0.0,0.0,0.0,0.0,0.0,0.0,0.0,0.0,0.0,0.0,0.0,0.0,0.0,0.0,0.0,0.0,0.0,0.0,0.0,0.0,0.0,0.0,0.0,0.0,0.0,0.0,0.0,0.0,0.0,0.0,0.0,0.0,0.0,0.0,0.0,0.0,0.0,0.0,0.0,0.0,0.0,0.0,0.0,0.0,0.0,0.0,0.0,0.0,0.0,0.0,0.0,0.0,0.0,0.0,0.0,0.0,0.0,0.0,0.0,0.0,0.0,0.0,0.0,0.0,0.0,0.0,0.0,0.0,0.0,0.0,0.0,0.0,0.0,0.0,0.0,0.0,0.0,0.0,0.0,0.0,0.0,0.0,0.0,0.0,0.0,0.0,0.0,0.0,0.0,0.0,0.0,0.0,0.0,0.0,0.0,0.0,0.0,0.0,0.0,0.0,0.0,0.0,0.0,0.0,0.0,0.0,0.0,0.0,0.0,0.0,0.0,0.0,0.0,0.0,0.0,0.0,0.0,0.0,0.0,0.0,0.0,0.0,0.0,0.0,0.0,0.0,0.0,0.0,0.0,0.0,0.0,0.0,0.0,0.0,0.0,0.0,0.0,0.0,0.0,0.0,0.0,0.0,0.0,0.0,0.0,0.0,0.0,0.0,0.0,0.0,0.0,0.0,0.0,0.0,0.0,0.0,0.0,0.0,0.0,0.0,0.0,0.0,0.0,0.0,0.0,0.0,0.0,0.0,0.0,0.0,0.0,0.0,0.0,0.0,0.0,0.0,0.0,0.0,0.0,0.0,0.0,0.0,0.0,0.0,0.0,0.0,0.0,0.0,0.0,0.0,0.0,0.0,0.0,0.0,0.0,0.0,0.0,0.0,0.0,0.0,0.0,0.0,0.0,0.0,0.0,0.0,0.0,0.0,0.0,0.0,0.0,0.0,0.0,0.0,0.0,0.0,0.0,0.0,0.0,0.0,0.0,0.0,0.0,0.0,0.0,0.0,0.0,0.0,0.0,0.0,0.0,0.0,0.0,0.0,0.0,0.0,0.0,0.0,0.0,0.0,0.0,0.0,0.0,0.0,0.0,0.0,0.0,0.0,0.0,0.0,0.0,0.0,0.0,0.0,0.0,0.0,0.0,0.0,0.0,0.0,0.0,0.0,0.0,0.0,0.0,0.0,0.0,0.0,0.0,0.0,0.0,0.0,0.0,0.0,0.0,0.0,0.0,0.0,0.0,0.0,0.0,0.0,0.0,0.0,0.0,0.0,0.0,0.0,0.0,0.0,0.0,0.0,0.0,0.0,0.0,0.0,0.0,0.0,0.0,0.0,0.0,0.0,0.0,0.0,0.0,0.0,0.0,0.0,0.0,0.0,0.0,0.0,0.0,0.0,0.0,0.0,0.0,0.0,0.0,0.0,0.0,0.0,0.0,0.0,0.0,0.0,0.0,0.0,0.0,0.0,0.0,0.0,0.0,0.0,0.0,0.0,0.0,0.0,0.0,0.0,0.0,0.0,0.0,0.0,0.0,0.0,0.0,0.0,0.0,0.0,0.0,0.0,0.0,0.0,0.0,0.0,0.0,0.0,0.0,0.0,0.0,0.0,0.0,0.0,0.0,0.0,0.0,0.0,0.0,0.0,0.0,0.0,0.0,0.0,0.0,0.0,0.0,0.0,0.0,0.0,0.0,0.0,0.0,0.0,0.0,0.0,0.0,0.0,0.0,0.0,0.0,0.0,0.0,0.0,0.0,0.0,0.0,0.0,0.0,0.0,0.0,0.0,0.0,0.0,0.0,0.0,0.0,0.0,0.0,0.0,0.0,0.0,0.0,0.0,0.0,0.0,0.0,0.0,0.0,0.0,0.0,0.0,0.0,0.0,0.0,0.0,0.0,0.0,0.0,0.0,0.0,0.0,0.0,0.0,0.0,0.0,0.0,0.0,0.0,0.0,0.0,0.0,0.0,0.0,0.0,0.0,0.0,0.0,0.0,0.0,0.0,0.0,0.0,0.0,0.0,0.0,0.0,0.0,0.0,0.0,0.0,0.0,0.0,0.0,0.0,0.0,0.0,0.0,0.0,0.0,0.0,0.0,0.0,0.0,0.0,0.0,0.0,0.0,0.0,0.0,0.0,0.0,0.0,0.0,0.0,0.0,0.0,0.0,0.0,0.0,0.0,0.0,0.0,0.0,0.0,0.0,0.0,0.0,0.0,0.0,0.0,0.0,0.0,0.0,0.0,0.0,0.0,0.0,0.0,0.0,0.0,0.0,0.0,0.0,0.0,0.0,0.0,0.0,0.0,0.0,0.0,0.0,0.0,0.0,0.0,0.0,0.0,0.0,0.0,0.0,0.0,0.0,0.0,0.0,0.0,0.0,0.0,0.0,0.0,0.0,0.0,0.0,0.0,0.0,0.0,0.0,0.0,0.0,0.0,0.0,0.0,0.0,0.0,0.0,0.0,0.0,0.0,0.0,0.0,0.0,0.0,0.0,0.0,0.0,0.0,0.0,0.0,0.0,0.0,0.0,0.0,0.0,0.0,0.0,0.0,0.0,0.0,0.0,0.0,0.0,0.0,0.0,0.0,0.0,0.0,0.0,0.0,0.0,0.0,0.0,0.0,0.0,0.0,0.0,0.0,0.0,0.0,0.0,0.0,0.0,0.0,0.0,0.0,0.0,0.0,0.0,0.0,0.0,0.0,0.0,0.0,0.0,0.0,0.0,0.0,0.0,0.0,0.0,0.0,0.0,0.0,0.0,0.0,0.0,0.0,0.0,0.0,0.0,0.0,0.0,0.0,0.0,0.0,0.0,0.0,0.6327,0.0,0.0,0.0,0.0,0.0,0.0,0.0,0.0,0.0,0.0,0.0,0.0,0.0,0.0,0.0,0.0,0.0,0.0,0.0,0.0,0.0,0.0,0.0,0.0,0.0,0.0,0.0,0.0,0.0,0.0,0.0,0.0,0.0,0.0,0.0,0.0,0.0,0.0,0.0,0.0,0.0,0.0,0.0,0.0,0.0,0.0,0.0,0.0,0.0,0.0,0.0,0.0,0.0,0.0,0.0,0.0,0.0,0.0,0.0,0.0,0.0,0.0,0.0,0.0,0.0,0.0,0.0,0.0,0.0,0.0,0.0,0.0,0.0,0.0,0.0,0.0,0.0,0.0,0.0,0.0,0.0,0.0,0.0,0.0,0.0,0.0,0.0,0.0,0.0,0.0,0.0,0.0,0.0,0.0,0.0,0.0,0.0,0.0,0.0,0.0,0.0,0.0,0.0,0.0,0.0,0.0,0.0,0.0,0.0,0.0,0.4048,0.4817,0.5,0.5475,0.628,0.0,0.0,0.0,0.0,0.0,0.0,0.0,0.0,0.0,0.0,0.0,0.0,0.0,0.0,0.0,0.0,0.0,0.0,0.0,0.0,0.0,0.0,0.0,0.0,0.0,0.0,0.0,0.0,0.0,0.0,0.0,0.0,0.0,0.0,0.0,0.0,0.0,0.0,0.0,0.0,0.0,0.0,0.0,0.0,0.0,0.0,0.0,0.0,0.0,0.0,0.0,0.0,0.0,0.0,0.0,0.0,0.0,0.0,0.0,0.0,0.0,0.0,0.0,0.0,0.0,0.0,0.0,0.0,0.0,0.0,0.0,0.0,0.0,0.0,0.0,0.0,0.0,0.0,0.0,0.0,0.0,0.0,0.0,0.0,0.0,0.0,0.0,0.0,0.0,0.0,0.0,0.0,0.0,0.0,0.0,0.0,0.0,0.0,0.0,0.0,0.0,0.0,0.0,0.0,0.0,0.0,0.0,0.0,0.0,0.0,0.0,0.0,0.5215,0.5783,0.6639,0.0,0.0,0.0,0.0,0.0,0.0,0.0,0.0,0.0,0.0,0.0,0.0,0.0,0.0,0.0,0.0,0.0,0.0,0.0,0.0,0.0,0.0,0.0,0.0,0.0,0.0,0.0,0.0,0.0,0.0,0.0,0.0,0.0,0.0,0.0,0.0,0.0,0.0,0.0,0.0,0.0,0.0,0.0,0.0,0.0,0.0,0.0,0.0,0.0,0.0,0.0,0.0,0.0,0.0,0.0,0.0,0.0,0.0,0.0,0.0,0.0,0.0,0.0,0.0,0.0,0.0,0.0,0.0,0.0,0.0,0.0,0.0,0.0,0.0,0.0,0.0,0.0,0.0,0.0,0.0,0.0,0.0,0.0,0.0,0.0,0.0,0.0,0.0,0.0,0.0,0.0,0.0,0.0,0.0,0.0,0.0,0.0,0.0,0.0,0.0,0.0,0.0,0.0,0.0,0.0,0.0,0.0,0.0,0.0,0.0,0.3639,0.5445,0.601,0.0,0.8296,0.0,0.0,0.0,0.0,0.0,0.0,0.0,0.0,0.0,0.0,0.0,0.0,0.0,0.0,0.0,0.0,0.0,0.0,0.0,0.0,0.0,0.0,0.0,0.0,0.0,0.0,0.0,0.0,0.0,0.0,0.0,0.0,0.0,0.0,0.0,0.0,0.0,0.0,0.0,0.0,0.0,0.0,0.0,0.0,0.0,0.0,0.0,0.0,0.0,0.0,0.0,0.0,0.0,0.0,0.0,0.0,0.0,0.0,0.0,0.0,0.0,0.0,0.0,0.0,0.0,0.0,0.0,0.0,0.0,0.0,0.0,0.0,0.0,0.0,0.0,0.0,0.0,0.0,0.0,0.0,0.0,0.0,0.0,0.0,0.0,0.0,0.0,0.0,0.0,0.0,0.0,0.0,0.0,0.0,0.0,0.0,0.0,0.0,0.0,0.0,0.0,0.0,0.0,0.0,0.0,0.0,0.0,0.0,0.0,0.0,0.3464,0.603,0.7126,0.7499,0.0,0.0,0.0,0.0,0.0,0.0,0.0,0.0,0.0,0.0,0.0,0.0,0.0,0.0,0.0,0.0,0.0,0.0,0.0,0.0,0.0,0.0,0.0,0.0,0.0,0.0,0.0,0.0,0.0,0.0,0.0,0.0,0.0,0.0,0.0,0.0,0.0,0.0,0.0,0.0,0.0,0.0,0.0,0.0,0.0,0.0,0.0,0.0,0.0,0.0,0.0,0.0,0.0,0.0,0.0,0.0,0.0,0.0,0.0,0.0,0.0,0.0,0.0,0.0,0.0,0.0,0.0,0.0,0.0,0.0,0.0,0.0,0.0,0.0,0.0,0.0,0.0,0.0,0.0,0.0,0.0,0.0,0.0,0.0,0.0,0.0,0.0,0.0,0.0,0.0,0.0,0.0,0.0,0.0,0.0,0.0,0.0,0.0,0.0,0.0,0.0,0.0,0.0,0.0,0.0,0.0,0.0,0.0,0.0,0.0,0.184,0.3561,0.6849,0.7635,0.7571,0.6738,0.0,0.0,0.0,0.0,0.0,0.0,0.0,0.0,0.0,0.0,0.0,0.0,0.0,0.0,0.0,0.0,0.0,0.0,0.0,0.0,0.0,0.0,0.0,0.0,0.0,0.0,0.0,0.0,0.0,0.0,0.0,0.0,0.0,0.0,0.0,0.0,0.0,0.0,0.0,0.0,0.0,0.0,0.0,0.0,0.0,0.0,0.0,0.0,0.0,0.0,0.0,0.0,0.0,0.0,0.0,0.0,0.0,0.0,0.0,0.0,0.0,0.0,0.0,0.0,0.0,0.0,0.0,0.0,0.0,0.0,0.0,0.0,0.0,0.0,0.0,0.0,0.0,0.0,0.0,0.0,0.0,0.0,0.0,0.0,0.0,0.0,0.0,0.0,0.0,0.0,0.0,0.0,0.0,0.0,0.0,0.0,0.0,0.0,0.0,0.0,0.0,0.0,0.0,0.0,0.0,0.0,0.0,0.0,0.2531,0.227,0.4148,0.8391,0.7203,0.7052,0.0,0.0,0.0,0.0,0.0,0.0,0.0,0.0,0.0,0.0,0.0,0.0,0.0,0.0,0.0,0.0,0.0,0.0,0.0,0.0,0.0,0.0,0.0,0.0,0.0,0.0,0.0,0.0,0.0,0.0,0.0,0.0,0.0,0.0,0.0,0.0,0.0,0.0,0.0,0.0,0.0,0.0,0.0,0.0,0.0,0.0,0.0,0.0,0.0,0.0,0.0,0.0,0.0,0.0,0.0,0.0,0.0,0.0,0.0,0.0,0.0,0.0,0.0,0.0,0.0,0.0,0.0,0.0,0.0,0.0,0.0,0.0,0.0,0.0,0.0,0.0,0.0,0.0,0.0,0.0,0.0,0.0,0.0,0.0,0.0,0.0,0.0,0.0,0.0,0.0,0.0,0.0,0.0,0.0,0.0,0.0,0.0,0.0,0.0,0.0,0.0,0.0,0.0,0.0,0.0,0.0,0.0,0.0,0.0,-0.035,0.1935,0.4329,0.675,0.6691,0.6972,0.0,0.0,0.0,0.0,0.0,0.0,0.0,0.0,0.0,0.0,0.0,0.0,0.0,0.0,0.0,0.0,0.0,0.0,0.0,0.0,0.0,0.0,0.0,0.0,0.0,0.0,0.0,0.0,0.0,0.0,0.0,0.0,0.0,0.0,0.0,0.0,0.0,0.0,0.0,0.0,0.0,0.0,0.0,0.0,0.0,0.0,0.0,0.0,0.0,0.0,0.0,0.0,0.0,0.0,0.0,0.0,0.0,0.0,0.0,0.0,0.0,0.0,0.0,0.0,0.0,0.0,0.0,0.0,0.0,0.0,0.0,0.0,0.0,0.0,0.0,0.0,0.0,0.0,0.0,0.0,0.0,0.0,0.0,0.0,0.0,0.0,0.0,0.0,0.0,0.0,0.0,0.0,0.0,0.0,0.0,0.0,0.0,0.0,0.0,0.0,0.0,0.0,0.0,0.0,0.0,0.0,0.0,0.0,0.0,-0.1958,0.0,0.5183,0.5848,0.6911,0.7497,0.0,0.0,0.0,0.0,0.0,0.0,0.0,0.0,0.0,0.0,0.0,0.0,0.0,0.0,0.0,0.0,0.0,0.0,0.0,0.0,0.0,0.0,0.0,0.0,0.0,0.0,0.0,0.0,0.0,0.0,0.0,0.0,0.0,0.0,0.0,0.0,0.0,0.0,0.0,0.0,0.0,0.0,0.0,0.0,0.0,0.0,0.0,0.0,0.0,0.0,0.0,0.0,0.0,0.0,0.0,0.0,0.0,0.0,0.0,0.0,0.0,0.0,0.0,0.0,0.0,0.0,0.0,0.0,0.0,0.0,0.0,0.0,0.0,0.0,0.0,0.0,0.0,0.0,0.0,0.0,0.0,0.0,0.0,0.0,0.0,0.0,0.0,0.0,0.0,0.0,0.0,0.0,0.0,0.0,0.0,0.0,0.0,0.0,0.0,0.0,0.0,0.0,0.0,0.0,0.0,0.0,0.0,0.0,-0.4696,-0.1792,0.3721,0.6203,0.5995,0.7579,0.8499,0.0,0.0,0.0,0.0,0.0,0.0,0.0,0.0,0.0,0.0,0.0,0.0,0.0,0.0,0.0,0.0,0.0,0.0,0.0,0.0,0.0,0.0,0.0,0.0,0.0,0.0,0.0,0.0,0.0,0.0,0.0,0.0,0.0,0.0,0.0,0.0,0.0,0.0,0.0,0.0,0.0,0.0,0.0,0.0,0.0,0.0,0.0,0.0,0.0,0.0,0.0,0.0,0.0,0.0,0.0,0.0,0.0,0.0,0.0,0.0,0.0,0.0,0.0,0.0,0.0,0.0,0.0,0.0,0.0,0.0,0.0,0.0,0.0,0.0,0.0,0.0,0.0,0.0,0.0,0.0,0.0,0.0,0.0,0.0,0.0,0.0,0.0,0.0,0.0,0.0,0.0,0.0,0.0,0.0,0.0,0.0,0.0,0.0,0.0,0.0,0.0,0.0,0.0,0.0,0.0,0.0,0.0,0.0,0.0,-0.4114,-0.1874,0.0721,0.357,0.4292,0.5919,0.0,0.0,0.0,0.0,0.0,0.0,0.0,0.0,0.0,0.0,0.0,0.0,0.0,0.0,0.0,0.0,0.0,0.0,0.0,0.0,0.0,0.0,0.0,0.0,0.0,0.0,0.0,0.0,0.0,0.0,0.0,0.0,0.0,0.0,0.0,0.0,0.0,0.0,0.0,0.0,0.0,0.0,0.0,0.0,0.0,0.0,0.0,0.0,0.0,0.0,0.0,0.0,0.0,0.0,0.0,0.0,0.0,0.0,0.0,0.0,0.0,0.0,0.0,0.0,0.0,0.0,0.0,0.0,0.0,0.0,0.0,0.0,0.0,0.0,0.0,0.0,0.0,0.0,0.0,0.0,0.0,0.0,0.0,0.0,0.0,0.0,0.0,0.0,0.0,0.0,0.0,0.0,0.0,0.0,0.0,0.0,0.0,0.0,0.0,0.0,0.0,0.0,0.0,0.0,0.0,0.0,0.0,0.0,0.0,-0.7337,-0.5571,-0.2857,0.0856,0.2636,0.5238,0.8733,0.0,0.0,0.0,0.0,0.0,0.0,0.0,0.0,0.0,0.0,0.0,0.0,0.0,0.0,0.0,0.0,0.0,0.0,0.0,0.0,0.0,0.0,0.0,0.0,0.0,0.0,0.0,0.0,0.0,0.0,0.0,0.0,0.0,0.0,0.0,0.0,0.0,0.0,0.0,0.0,0.0,0.0,0.0,0.0,0.0,0.0,0.0,0.0,0.0,0.0,0.0,0.0,0.0,0.0,0.0,0.0,0.0,0.0,0.0,0.0,0.0,0.0,0.0,0.0,0.0,0.0,0.0,0.0,0.0,0.0,0.0,0.0,0.0,0.0,0.0,0.0,0.0,0.0,0.0,0.0,0.0,0.0,0.0,0.0,0.0,0.0,0.0,0.0,0.0,0.0,0.0,0.0,0.0,0.0,0.0,0.0,0.0,0.0,0.0,0.0,0.0,0.0,0.0,0.0,0.0,0.0,0.0,0.0,-1.1244,-0.7667,-0.471,-0.2363,0.2246,0.59,0.0,0.0,0.0,0.0,0.0,0.0,0.0,0.0,0.0,0.0,0.0,0.0,0.0,0.0,0.0,0.0,0.0,0.0,0.0,0.0,0.0,0.0,0.0,0.0,0.0,0.0,0.0,0.0,0.0,0.0,0.0,0.0,0.0,0.0,0.0,0.0,0.0,0.0,0.0,0.0,0.0,0.0,0.0,0.0,0.0,0.0,0.0,0.0,0.0,0.0,0.0,0.0,0.0,0.0,0.0,0.0,0.0,0.0,0.0,0.0,0.0,0.0,0.0,0.0,0.0,0.0,0.0,0.0,0.0,0.0,0.0,0.0,0.0,0.0,0.0,0.0,0.0,0.0,0.0,0.0,0.0,0.0,0.0,0.0,0.0,0.0,0.0,0.0,0.0,0.0,0.0,0.0,0.0,0.0,0.0,0.0,0.0,0.0,0.0,0.0,0.0,0.0,0.0,0.0,0.0,0.0,0.0,0.0,0.0,-1.2987,-1.1339,-0.9082,-0.6218,-0.0703,0.3215,0.0,0.0,0.0,0.0,0.0,0.0,0.0,0.0,0.0,0.0,0.0,0.0,0.0,0.0,0.0,0.0,0.0,0.0,0.0,0.0,0.0,0.0,0.0,0.0,0.0,0.0,0.0,0.0,0.0,0.0,0.0,0.0,0.0,0.0,0.0,0.0,0.0,0.0,0.0,0.0,0.0,0.0,0.0,0.0,0.0,0.0,0.0,0.0,0.0,0.0,0.0,0.0,0.0,0.0,0.0,0.0,0.0,0.0,0.0,0.0,0.0,0.0,0.0,0.0,0.0,0.0,0.0,0.0,0.0,0.0,0.0,0.0,0.0,0.0,0.0,0.0,0.0,0.0,0.0,0.0,0.0,0.0,0.0,0.0,0.0,0.0,0.0,0.0,0.0,0.0,0.0,0.0,0.0,0.0,0.0,0.0,0.0,0.0,0.0,0.0,0.0,0.0,0.0,0.0,0.0,0.0,0.0,0.0,-1.2904,-1.3798,-1.281,-1.1628,-1.0281,-0.2808,0.2832,0.0,0.0,0.0,0.0,0.0,0.0,0.0,0.0,0.0,0.0,0.0,0.0,0.0,0.0,0.0,0.0,0.0,0.0,0.0,0.0,0.0,0.0,0.0,0.0,0.0,0.0,0.0,0.0,0.0,0.0,0.0,0.0,0.0,0.0,0.0,0.0,0.0,0.0,0.0,0.0,0.0,0.0,0.0,0.0,0.0,0.0,0.0,0.0,0.0,0.0,0.0,0.0,0.0,0.0,0.0,0.0,0.0,0.0,0.0,0.0,0.0,0.0,0.0,0.0,0.0,0.0,0.0,0.0,0.0,0.0,0.0,0.0,0.0,0.0,0.0,0.0,0.0,0.0,0.0,0.0,0.0,0.0,0.0,0.0,0.0,0.0,0.0,0.0,0.0,0.0,0.0,0.0,0.0,0.0,0.0,0.0,0.0,0.0,0.0,0.0,0.0,0.0,0.0,0.0,0.0,0.0,0.0,0.0,-1.3294,-1.4,-1.3112,-1.2622,-1.2428,-0.3749,0.3314,0.0,0.0,0.0,0.0,0.0,0.0,0.0,0.0,0.0,0.0,0.0,0.0,0.0,0.0,0.0,0.0,0.0,0.0,0.0,0.0,0.0,0.0,0.0,0.0,0.0,0.0,0.0,0.0,0.0,0.0,0.0,0.0,0.0,0.0,0.0,0.0,0.0,0.0,0.0,0.0,0.0,0.0,0.0,0.0,0.0,0.0,0.0,0.0,0.0,0.0,0.0,0.0,0.0,0.0,0.0,0.0,0.0,0.0,0.0,0.0,0.0,0.0,0.0,0.0,0.0,0.0,0.0,0.0,0.0,0.0,0.0,0.0,0.0,0.0,0.0,0.0,0.0,0.0,0.0,0.0,0.0,0.0,0.0,0.0,0.0,0.0,0.0,0.0,0.0,0.0,0.0,0.0,0.0,0.0,0.0,0.0,0.0,0.0,0.0,0.0,0.0,0.0,0.0,0.0,0.0,0.0,0.0,0.0,-1.4635,-1.4768,-1.4316,-1.1251,-0.543,-0.1411,0.1061,0.0,0.0,0.0,0.0,0.0,0.0,0.0,0.0,0.0,0.0,0.0,0.0,0.0,0.0,0.0,0.0,0.0,0.0,0.0,0.0,0.0,0.0,0.0,0.0,0.0,0.0,0.0,0.0,0.0,0.0,0.0,0.0,0.0,0.0,0.0,0.0,0.0,0.0,0.0,0.0,0.0,0.0,0.0,0.0,0.0,0.0,0.0,0.0,0.2003,0.0,0.0,0.0,0.0,0.0,0.0,0.0,0.0,0.0,0.0,0.0,0.0,0.0,0.0,0.0,0.0,0.0,0.0,0.0,0.0,0.0,0.0,0.0,0.0,0.0,0.0,0.0,0.0,0.0,0.0,0.0,0.0,0.0,0.0,0.0,0.0,0.0,0.0,0.0,0.0,0.0,0.0,0.0,0.0,0.0,0.0,0.0,0.0,0.0,0.0,0.0,0.0,0.0,0.0,0.0,0.0,0.0,0.0,0.0,-1.5004,-1.493,-1.4259,-1.1201,-0.5686,-0.2028,0.1618,0.0,0.0,0.0,0.0,0.0,0.0,0.0,0.0,0.0,0.0,0.0,0.0,0.0,0.0,0.0,0.0,0.0,0.0,0.0,0.0,0.0,0.0,0.0,0.0,0.0,0.0,0.0,0.0,0.0,0.0,0.0,0.0,0.0,0.0,0.0,0.0,0.0,0.0,0.0,0.0,0.0,0.0,0.0,0.0,0.0,0.0,0.0,0.0,0.0,0.0,0.0,0.0,0.0,0.0,0.0,0.0,0.0,0.0,0.0,0.0,0.0,0.0,0.0,0.0,0.0,0.0,0.0,0.0,0.0,0.0,0.0,0.0,0.0,0.0,0.0,0.0,0.0,0.0,0.0,0.0,0.0,0.0,0.0,0.0,0.0,0.0,0.0,0.0,0.0,0.0,0.0,0.0,0.0,0.0,0.0,0.0,0.0,0.0,0.0,0.0,0.0,0.0,0.0,0.0,0.0,0.0,0.0,-1.5056,-1.4935,-1.4818,-1.3864,-1.1763,-0.839,-0.3678,0.2654,1.0568,0.0,0.0,0.0,0.0,0.0,0.0,0.0,0.0,0.0,0.0,0.0,0.0,0.0,0.0,0.0,0.0,0.0,0.0,0.0,0.0,0.0,0.0,0.0,0.0,0.0,0.0,0.0,0.0,0.0,0.0,0.0,0.0,0.0,0.0,0.0,0.0,0.0,0.0,-0.1548,-0.1833,0.0,0.0,0.0,0.0,0.0,0.0,0.0,0.0,-0.0065,0.0,0.0,0.0,0.0,0.0,0.0,0.0,0.0,0.0,0.0,0.0,0.0,0.0,0.0,0.0,0.0,0.0,0.0,0.0,0.0,0.0,0.0,0.0,0.0,0.0,0.0,0.0,0.0,0.0,0.0,0.0,0.0,0.0,0.0,0.0,0.0,0.0,0.0,0.0,0.0,0.0,0.0,0.0,0.0,0.0,0.0,0.0,0.0,0.0,0.0,0.0,0.0,0.0,0.0,0.0,0.0,-1.5111,-1.4985,-1.4828,-1.4641,-1.4251,-1.2234,-0.8445,-0.4187,0.1104,0.7305,0.0,0.0,0.0,0.0,0.0,0.0,0.0,0.0,0.0,0.0,0.0,0.0,0.0,0.0,0.0,0.0,0.0,0.0,0.0,0.0,0.0,0.0,0.0,0.0,0.0,0.0,0.0,0.0,0.0,0.0,0.0,0.0,0.0,0.0,0.0,0.0,0.0,0.0,0.0,-0.3249,-0.3284,0.0,0.0,0.0,0.0,0.0,0.0,0.0,0.0,-0.1602,0.0,0.0,0.0,0.0,0.0,0.0,0.0,0.0,0.0,0.0,0.0,0.0,0.0,0.0,0.0,0.0,0.0,0.0,0.0,0.0,0.0,0.0,0.0,0.0,0.0,0.0,0.0,0.0,0.0,0.0,0.0,0.0,0.0,0.0,0.0,0.0,0.0,0.0,0.0,0.0,0.0,0.0,0.0,0.0,0.0,0.0,0.0,0.0,0.0,0.0,0.0,0.0,0.0,0.0,0.0,-1.5605,-1.5091,-1.4707,-1.4541,-1.4289,-1.2301,-0.8519,-0.5885,-0.1111,0.0,0.0,0.0,0.0,0.0,0.0,0.0,0.0,0.0,0.0,0.0,0.0,0.0,0.0,0.0,0.0,0.0,0.0,0.0,0.0,0.0,0.0,0.0,0.0,0.0,0.0,0.0,0.0,0.0,0.0,0.0,0.0,0.0,0.0,0.0,0.0,0.0,0.0,0.0,0.0,-0.5527,-0.5889,-0.5876,0.0,0.0,0.0,0.0,0.0,0.0,-0.4538,-0.4026,0.0,0.0,0.0,0.0,0.0,0.0,0.0,0.0,0.0,0.0,0.0,0.0,0.0,0.0,0.0,0.0,0.0,0.0,0.0,0.0,0.0,0.0,0.0,0.0,0.0,0.0,0.0,0.0,0.0,0.0,0.0,0.0,0.0,0.0,0.0,0.0,0.0,0.0,0.0,0.0,0.0,0.0,0.0,0.0,0.0,0.0,0.0,0.0,0.0,0.0,0.0,0.0,0.0,0.0,0.0,-1.607,-1.5168,-1.4596,-1.4441,-1.4188,-1.2589,-0.9549,-0.7081,-0.2451,0.0,0.0,0.0,0.0,0.0,0.0,0.0,0.0,0.0,0.0,0.0,0.0,0.0,0.0,0.0,0.0,0.0,0.0,0.0,0.0,0.0,0.0,0.0,0.0,0.0,0.0,0.0,0.0,0.0,0.0,0.0,0.0,0.0,0.0,0.0,0.0,0.0,0.0,0.0,0.0,0.0,-0.8419,-0.8556,-0.8699,0.0,0.0,0.0,0.0,-0.6928,-0.7163,0.0,0.0,0.0,0.0,0.0,0.0,0.0,0.0,0.0,0.0,0.0,0.0,0.0,0.0,0.0,0.0,0.0,0.0,0.0,0.0,0.0,0.0,0.0,0.0,0.0,0.0,0.0,0.0,0.0,0.0,0.0,0.0,0.0,0.0,0.0,0.0,0.0,0.0,0.0,0.0,0.0,0.0,0.0,0.0,0.0,0.0,0.0,0.0,0.0,0.0,0.0,0.0,0.0,0.0,0.0,0.0,-1.588,-1.5006,-1.4439,-1.4237,-1.4028,-1.3643,-1.3,-0.6192,-0.1221,0.0,0.0,0.0,0.0,0.0,0.0,0.0,0.0,0.0,0.0,0.0,0.0,0.0,0.0,0.0,0.0,0.0,0.0,0.0,0.0,0.0,0.0,0.0,0.0,0.0,0.0,0.0,0.0,0.0,0.0,0.0,0.0,0.0,0.0,0.0,0.0,0.0,0.0,0.0,0.0,0.0,-0.9811,-1.017,-1.0335,-1.031,0.0,0.0,-1.0058,-0.962,-0.9218,0.0,0.0,0.0,0.0,0.0,0.0,0.0,0.0,0.0,0.0,0.0,0.0,0.0,0.0,0.0,0.0,0.0,0.0,0.0,0.0,0.0,0.0,0.0,0.0,0.0,0.0,0.0,0.0,0.0,0.0,0.0,0.0,0.0,0.0,0.0,0.0,0.0,0.0,0.0,0.0,0.0,0.0,0.0,0.0,0.0,0.0,0.0,0.0,0.0,0.0,0.0,0.0,0.0,0.0,0.0,-1.5367,-1.6372,-1.4604,-1.3799,-1.4069,-1.3913,-1.3806,-1.3684,-0.8293,-0.3568,0.0,0.0,0.0,0.0,0.0,0.0,0.0,0.0,0.0,0.0,0.0,0.0,0.0,0.0,0.0,0.0,0.0,0.0,0.0,0.0,0.0,0.0,0.0,0.0,0.0,0.0,0.0,0.0,0.0,0.0,0.0,0.0,0.0,0.0,0.0,0.0,0.0,0.0,0.0,0.0,0.0,0.0,-1.2582,-1.2833,0.0,0.0,0.0,-1.2065,-1.1641,0.0,0.0,0.0,0.0,0.0,0.0,0.0,0.0,0.0,0.0,0.0,0.0,0.0,0.0,0.0,0.0,0.0,0.0,0.0,0.0,0.0,0.0,0.0,0.0,0.0,0.0,0.0,0.0,0.0,0.0,0.0,0.0,0.0,0.0,0.0,0.0,0.0,0.0,0.0,0.0,0.0,0.0,0.0,0.0,0.0,0.0,0.0,0.0,0.0,0.0,0.0,0.0,0.0,0.0,0.0,0.0,0.0,-1.6765,-1.4474,-1.3484,-1.3884,-1.3833,-1.3733,-1.3588,-0.9795,0.0,0.0,0.0,0.0,0.0,0.0,0.0,0.0,0.0,0.0,0.0,0.0,0.0,0.0,0.0,0.0,0.0,0.0,0.0,0.0,0.0,0.0,0.0,0.0,0.0,0.0,0.0,-0.2957,0.0,0.0,0.0,0.0,0.0,0.0,0.0,0.0,0.0,0.0,0.0,0.0,0.0,0.0,-1.2842,-1.4422,-1.4709,-1.4528,0.0,0.0,-1.3785,-1.3458,-1.3512,-1.2798,0.0,0.0,0.0,0.0,0.0,0.0,0.0,0.0,0.0,0.0,0.0,0.0,0.0,0.0,0.0,0.0,0.0,0.0,0.0,0.0,0.0,0.0,0.0,0.0,0.0,0.0,0.0,0.0,0.0,0.0,0.0,0.0,0.0,0.0,0.0,0.0,0.0,0.0,0.0,0.0,0.0,0.0,0.0,0.0,0.0,0.0,0.0,0.0,0.0,0.0,0.0,0.0,0.0,0.0,-1.5962,-1.6552,-1.4848,-1.3853,-1.3731,-1.3717,-1.3657,-1.3428,-0.9033,-0.4367,0.0,0.0,0.0,0.0,0.0,0.0,0.0,0.0,0.0,0.0,0.0,0.0,0.0,0.0,0.0,0.0,0.0,0.0,0.0,0.0,0.0,0.0,0.0,0.0,0.0,0.0,0.0,0.0,0.0,0.0,0.0,0.0,0.0,0.0,0.0,0.0,0.0,0.0,0.0,0.0,0.0,-1.4466,-1.5009,-1.5171,-1.5202,0.0,-1.5138,-1.5135,-1.5043,-1.4206,-1.3309,-1.2423,0.0,0.0,0.0,0.0,0.0,0.0,0.0,0.0,0.0,0.0,0.0,0.0,0.0,0.0,0.0,0.0,0.0,0.0,0.0,0.0,0.0,0.0,0.0,0.0,0.0,0.0,0.0,0.0,0.0,0.0,0.0,0.0,0.0,0.0,0.0,0.0,0.0,0.0,0.0,0.0,0.0,0.0,0.0,0.0,0.0,0.0,0.0,0.0,0.0,0.0,0.0,0.0,0.0,-1.5674,-1.6317,-1.4159,-1.3203,-1.3562,-1.3545,-1.3495,-1.3379,-0.7759,-0.4083,0.0,0.0,0.0,0.0,0.0,0.0,0.0,0.0,0.0,0.0,0.0,0.0,0.0,0.0,0.0,0.0,0.0,0.0,0.0,0.0,0.0,0.0,0.0,0.0,0.0,0.0,0.0,0.0,-0.496,-0.4749,-0.5003,0.0,0.0,0.0,0.0,0.0,0.0,0.0,0.0,0.0,0.0,-1.4401,-1.5136,-1.5272,0.0,0.0,-1.5264,-1.5223,-1.5188,-1.4853,-1.4492,-1.4275,-1.381,0.0,0.0,0.0,0.0,0.0,0.0,0.0,0.0,0.0,0.0,0.0,0.0,0.0,0.0,0.0,0.0,0.0,0.0,0.0,0.0,0.0,0.0,0.0,0.0,0.0,0.0,0.0,0.0,0.0,0.0,0.0,0.0,0.0,0.0,0.0,0.0,0.0,0.0,0.0,0.0,0.0,0.0,0.0,0.0,0.0,0.0,0.0,0.0,0.0,0.0,0.0,0.0,-1.5937,-1.6464,-1.4207,-1.3243,-1.3647,-1.3446,-1.3362,-1.332,-0.765,-0.4354,0.0,0.0,0.0,0.0,0.0,0.0,0.0,0.0,0.0,0.0,0.0,0.0,0.0,0.0,0.0,0.0,0.0,0.0,0.0,0.0,0.0,0.0,0.0,0.0,0.0,0.0,0.0,0.0,-0.6,-0.6064,-0.6521,0.0,0.0,0.0,0.0,0.0,0.0,0.0,0.0,0.0,0.0,-1.4559,-1.5195,-1.5291,-1.5289,-1.527,-1.5233,-1.5194,-1.5171,-1.5172,-1.511,-1.4881,0.0,0.0,0.0,0.0,0.0,0.0,0.0,0.0,0.0,0.0,0.0,0.0,0.0,0.0,0.0,0.0,0.0,0.0,0.0,0.0,0.0,0.0,0.0,0.0,0.0,0.0,0.0,-0.8974,0.0,0.0,-0.9196,0.0,0.0,0.0,0.0,0.0,0.0,0.0,0.0,0.0,0.0,0.0,0.0,0.0,0.0,0.0,0.0,0.0,0.0,0.0,0.0,0.0,0.0,-1.7049,-1.7047,-1.5286,-1.4316,-1.407,-1.3449,-1.3359,-1.3719,-0.9108,-0.5195,-0.2251,0.0,0.0,0.0,0.0,0.0,0.0,0.0,0.0,0.0,0.0,0.0,0.0,0.0,0.0,0.0,0.0,0.0,0.0,0.0,0.0,0.0,0.0,0.0,0.0,0.0,0.0,-0.7419,-0.7078,-0.7225,0.0,0.0,0.0,0.0,0.0,0.0,0.0,0.0,0.0,0.0,-1.5312,-1.5268,-1.5295,-1.5287,-1.528,-1.519,-1.519,-1.5154,-1.5105,-1.5101,-1.4811,0.0,0.0,0.0,0.0,0.0,0.0,0.0,0.0,0.0,0.0,0.0,0.0,0.0,0.0,0.0,0.0,0.0,0.0,0.0,0.0,0.0,0.0,0.0,0.0,0.0,0.0,0.0,-1.1823,-1.1527,0.0,0.0,0.0,0.0,0.0,0.0,0.0,0.0,0.0,0.0,0.0,-1.615,-1.6646,0.0,0.0,0.0,0.0,0.0,0.0,0.0,0.0,0.0,0.0,0.0,0.0,-1.6826,-1.6585,-1.5312,-1.4381,-1.3925,-1.3955,-1.3807,-1.3463,-0.9939,-0.4935,0.1488,0.0,0.0,0.0,0.0,0.0,0.0,0.0,0.0,0.0,0.0,0.0,0.0,0.0,0.0,0.0,0.0,0.0,0.0,0.0,0.0,0.0,0.0,0.0,0.0,0.0,-0.9053,0.0,0.0,0.0,0.0,0.0,0.0,0.0,0.0,0.0,0.0,0.0,-1.4914,-1.5287,-1.5236,-1.517,-1.5163,-1.5093,-1.5005,0.0,0.0,0.0,0.0,0.0,0.0,0.0,0.0,0.0,0.0,0.0,0.0,0.0,0.0,-1.2875,-1.1394,-1.1016,-1.0748,-1.0262,0.0,0.0,0.0,0.0,0.0,0.0,0.0,0.0,0.0,0.0,0.0,0.0,0.0,0.0,-1.3073,0.0,-1.3689,0.0,0.0,0.0,0.0,0.0,0.0,0.0,0.0,-1.5444,-1.595,-1.6116,-1.6641,-1.7392,0.0,-1.829,-1.789,0.0,0.0,0.0,0.0,0.0,0.0,0.0,0.0,-1.6837,-1.6502,-1.5321,-1.4524,-1.4174,-1.3719,-1.3413,-1.3282,-1.0146,-0.522,0.1559,0.0412,0.2044,0.0,0.0,0.0,0.0,0.0,0.0,0.0,0.0,0.0,0.0,0.0,0.0,0.0,0.0,0.0,0.0,0.0,0.0,0.0,0.0,0.0,0.0,0.0,-1.0477,0.0,0.0,0.0,0.0,0.0,0.0,0.0,0.0,0.0,-1.4568,-1.4838,-1.519,-1.5652,-1.5524,-1.5485,-1.5735,0.0,0.0,0.0,0.0,0.0,0.0,0.0,-1.5148,-1.5061,-1.5545,-1.571,-1.5148,-1.5498,-1.5932,-1.6054,0.0,0.0,-1.2916,-1.2658,-1.2604,-1.1794,-1.2355,-1.301,-1.3112,-1.3421,-1.3762,0.0,0.0,0.0,0.0,0.0,0.0,0.0,0.0,-1.4123,-1.3561,0.0,-1.3901,0.0,0.0,0.0,0.0,-1.6199,-1.6241,0.0,0.0,-1.491,-1.5176,-1.5682,-1.5934,-1.6708,-1.7915,-1.7922,-1.7755,-1.7492,-1.7794,0.0,0.0,0.0,0.0,0.0,0.0,-1.7126,-1.6725,-1.5344,-1.4686,-1.4773,-1.2858,-1.23,-1.3252,-0.9995,-0.6256,-0.2172,0.0668,0.3033,0.4486,0.7975,0.0,0.0,0.0,0.0,0.0,0.0,0.0,0.0,0.0,0.0,0.0,0.0,0.0,0.0,0.0,0.0,0.0,0.0,0.0,0.0,-1.0766,0.0,0.0,0.0,0.0,0.0,0.0,0.0,0.0,0.0,0.0,-1.498,-1.5015,-1.5459,-1.6341,0.0,0.0,0.0,0.0,-1.6817,-1.6674,-1.6635,-1.6508,-1.6366,-1.6288,-1.6142,-1.5871,0.0,0.0,-1.6065,-1.6931,-1.7596,-1.7948,-1.7913,-1.7206,-1.4265,-1.4354,-1.4584,-1.3788,-1.4901,-1.5998,-1.603,-1.5995,-1.6267,-1.5974,0.0,0.0,0.0,0.0,-1.6937,-1.6964,-1.6199,-1.5899,-1.5593,-1.5244,-1.4957,0.0,0.0,0.0,0.0,0.0,0.0,-1.5182,-1.4373,-1.486,-1.5207,-1.5358,-1.5996,-1.6735,-1.7572,-1.7658,-1.7502,-1.715,-1.724,-1.7313,-1.7361,0.0,0.0,0.0,0.0,-1.67,-1.6331,-1.5205,-1.4539,-1.4378,-1.343,-1.2968,-1.3111,-1.2747,-1.0619,-0.6602,-0.6175,-0.3336,0.2305,0.3799,0.0,0.0,0.0,0.0,0.0,0.0,0.0,0.0,0.0,0.0,0.0,0.0,0.0,0.0,0.0,0.0,0.0,0.0,0.0,-1.2555,-1.3139,-1.3435,0.0,0.0,0.0,0.0,0.0,0.0,0.0,0.0,0.0,-1.6065,-1.5743,-1.5687,0.0,0.0,-1.6415,-1.6675,-1.6402,-1.618,-1.6183,-1.6201,0.0,-1.5795,-1.5577,-1.5353,-1.5093,-1.5052,-1.5312,-1.6123,-1.6193,-1.6202,-1.6444,-1.6594,-1.6287,-1.5314,-1.5911,-1.6554,-1.6495,-1.688,-1.7027,-1.6522,-1.6846,-1.7128,-1.6927,-1.622,-1.7559,-1.7394,-1.6377,-1.7271,-1.7287,-1.6661,-1.6286,-1.5833,-1.5277,-1.5173,-1.5272,-1.5593,-1.602,0.0,0.0,0.0,-1.5014,-1.4782,-1.4865,-1.501,-1.5289,-1.5876,-1.6471,-1.7052,-1.7264,-1.7167,-1.6815,-1.6841,-1.6815,-1.6789,0.0,0.0,-1.6602,-1.6275,-1.5915,-1.5473,-1.4431,-1.3854,-1.3738,-1.2974,-1.2494,-1.2407,-1.3095,-1.1818,-0.8453,-0.8874,-0.5843,0.1288,0.1025,0.2657,0.0,0.0,0.0,0.0,0.0,0.0,0.0,0.0,0.0,0.0,0.0,-0.7086,-1.0715,0.0,0.0,0.0,-1.2558,-1.3256,-1.4019,-1.454,0.0,0.0,0.0,0.0,0.0,0.0,0.0,-1.6665,-1.7193,-1.7195,-1.6149,-1.6045,-1.6132,-1.6328,-1.6496,-1.6728,-1.7064,0.0,-1.6365,-1.5532,-1.5417,-1.5042,-1.4072,-1.4031,-1.4188,-1.448,-1.4735,-1.5124,-1.5815,-1.5882,-1.5962,-1.6227,-1.6226,-1.6269,-1.6561,-1.7196,-1.743,-1.7112,-1.7109,-1.7074,-1.6926,-1.7074,-1.7099,-1.7871,-1.6719,-1.7704,-1.7616,-1.6799,-1.6908,-1.6834,-1.6509,-1.5808,-1.4928,-1.4108,-1.4744,-1.5027,-1.5002,-1.569,0.0,-1.6262,-1.5234,-1.5112,-1.5695,-1.4822,-1.4732,-1.5288,-1.5597,-1.5996,-1.6474,-1.6725,-1.6725,-1.6474,-1.6454,-1.632,-1.6039,-1.6196,-1.6251,-1.6117,-1.5518,-1.4962,-1.4384,-1.3374,-1.2855,-1.2909,-1.1889,-1.1357,-1.1422,-1.1764,-1.0926,-0.8772,-0.8551,-0.5566,0.0495,-0.0453,0.1487,0.7195,0.0,0.0,0.0,0.0,0.0,0.0,0.0,0.0,0.0,0.0,0.0,0.0,0.0,0.0,0.0,-1.312,0.0,-1.4999,-1.5102,0.0,0.0,0.0,-1.7093,-1.7337,-1.7535,-1.7445,-1.688,0.0,0.0,-1.5657,-1.6126,-1.6669,-1.7034,-1.6895,-1.699,-1.7693,-1.7462,-1.6726,-1.4723,-1.4339,-1.3664,-1.2225,-1.2354,-1.3031,-1.386,-1.4598,-1.5022,-1.533,-1.5811,-1.6355,-1.6725,-1.6551,-1.6547,-1.7934,-1.7666,-1.7336,-1.6466,-1.6534,-1.688,-1.7508,-1.721,-1.6942,-1.9032,-1.8779,-1.8979,-1.8062,-1.6547,-1.7171,-1.7292,-1.7065,-1.6447,-1.5829,-1.527,-1.4908,-1.5023,-1.5431,-1.5679,-1.6005,-1.6354,-1.5524,-1.5123,-1.5093,-1.4836,-1.4825,-1.5067,-1.5222,-1.5619,-1.6227,-1.5853,-1.5827,-1.616,-1.5587,-1.5397,-1.5506,-1.4876,-1.4861,-1.555,-1.5432,-1.5052,-1.4418,-1.3509,-1.2541,-1.1621,-1.1653,-1.1331,-1.0625,-1.1379,-1.174,-1.1542,-0.9006,-0.6081,-0.2796,-0.0421,0.21,0.4754,0.5949,0.0,0.0,0.0,0.0,0.0,0.0,0.0,0.0,0.0,-1.3214,-1.395,0.0,-1.5622,0.0,-1.4177,-1.4147,-1.3827,-1.5073,0.0,0.0,-1.5975,-1.6789,-1.6993,-1.715,-1.7212,-1.7106,-1.7173,-1.705,-1.6596,-1.6799,-1.6727,-1.6097,-1.6183,-1.6442,-1.6691,-1.5341,-1.4266,-1.3809,-1.3118,-1.2554,-1.219,-1.2447,-1.271,-1.301,-1.3419,-1.3834,-1.4369,-1.4718,-1.5081,-1.5473,-1.5707,-1.5729,-1.5676,-1.6204,-1.6734,-1.6765,-1.7876,-1.8852,-1.8525,-1.8203,-1.7908,-1.9577,-1.9232,-1.9171,-1.8502,-1.7557,-1.8086,-1.8086,-1.7657,-1.7265,-1.6548,-1.5686,-1.5257,-1.4979,-1.4928,-1.5214,-1.5454,-1.5533,-1.4724,-1.4483,-1.4641,-1.421,-1.4062,-1.4225,-1.4629,-1.5029,-1.5362,-1.5382,-1.5382,-1.5304,-1.4877,-1.4683,-1.4702,-1.4052,-1.3891,-1.4151,-1.4345,-1.4332,-1.4103,-1.2852,-1.1826,-1.1064,-1.1093,-1.0981,-1.0654,-1.1572,-1.2324,-1.2779,-0.9718,-0.6629,-0.3752,-0.1119,0.1885,0.5203,0.4914,0.4313,0.0,0.0,0.0,0.0,0.0,0.0,0.0,0.0,0.0,0.0,0.0,-1.6753,-1.5397,-1.5033,-1.4785,-1.4545,-1.5671,-1.6112,-1.5343,-1.6107,-1.6722,-1.6815,-1.6926,-1.6969,-1.6968,-1.6834,-1.6606,-1.6316,-1.6022,-1.5572,-1.4798,-1.4298,-1.4521,-1.5556,-1.395,-1.2212,-1.1915,-1.1089,-1.0441,-1.0429,-1.0946,-1.1464,-1.1903,-1.2495,-1.3064,-1.3437,-1.3828,-1.4247,-1.4623,-1.4914,-1.5007,-1.4805,-1.5069,-1.5639,-1.6285,-1.7055,-1.7837,-1.8435,-1.7858,-1.7209,-1.9849,-1.9053,-1.9021,-1.9037,-1.9053,-1.9119,-1.8764,-1.8119,-1.7813,-1.6945,-1.5722,-1.5493,-1.4949,-1.4222,-1.4615,-1.4707,-1.446,-1.368,-1.3682,-1.424,-1.3429,-1.3134,-1.3371,-1.3979,-1.431,-1.4485,-1.5081,-1.5051,-1.4499,-1.4282,-1.3999,-1.372,-1.3377,-1.2991,-1.2532,-1.2719,-1.3037,-1.3416,-1.1872,-1.0999,-1.0787,-1.0477,-1.0494,-1.088,-1.1853,-1.2545,-1.283,-1.0156,-0.7179,-0.4067,-0.2105,0.1213,0.6009,0.2933,0.2603,0.0,0.2064,0.0,0.0,0.0,0.0,0.0,0.0,0.0,0.0,-1.7399,-1.657,-1.5302,-1.4475,-1.4085,-1.4248,-1.5201,-1.5741,-1.5452,-1.625,-1.6751,-1.6722,-1.6741,-1.67,-1.6591,-1.6184,-1.5764,-1.536,-1.4583,-1.3915,-1.3271,-1.1714,-1.1578,-1.3796,-1.2228,-1.0309,-0.9568,-0.8827,-0.8451,-0.8388,-0.8984,-0.9982,-1.0887,-1.1752,-1.2449,-1.2625,-1.3054,-1.3517,-1.39,-1.4082,-1.4223,-1.4398,-1.4202,-1.4357,-1.4956,-1.5154,-1.584,-1.7372,-1.6771,-1.6028,-2.0396,-1.9973,-2.004,-2.0022,-1.9808,-1.9137,-1.847,-1.7745,-1.6941,-1.6347,-1.5878,-1.5167,-1.5016,-1.522,-1.4526,-1.4168,-1.4113,-1.41,-1.3979,-1.3734,-1.3331,-1.3536,-1.4087,-1.3344,-1.3614,-1.471,-1.4368,-1.4456,-1.5006,-1.3558,-1.3007,-1.3263,-1.1842,-1.1397,-1.187,0.0,0.0,0.0,-1.1056,-1.0674,-1.033,-1.0419,-1.0409,-1.0261,-1.0826,0.0,-1.1919,-0.9219,-0.7559,-0.715,-0.2416,0.0,0.0,0.0,0.0,0.0,0.0,0.0,0.0,0.0,0.0,0.0,-1.1202,-1.3283,-1.7309,-1.5738,-1.2554,-0.82,-0.8338,-0.7673,-0.5204,-0.8898,-1.1219,-1.0815,-1.4185,-1.6617,-1.6743,-1.6596,-1.634,-1.5938,-1.5637,-1.5168,-1.4426,-1.3454,-1.2562,-1.1752,-0.9136,-0.8087,-0.9687,-0.9032,-0.8269,-0.8245,-0.7866,-0.7673,-0.8076,-0.8822,-0.9732,-1.0552,-1.1067,-1.159,-1.209,-1.2247,-1.2532,-1.2918,-1.3091,-1.2982,-1.247,-1.2979,-1.336,-1.2762,-1.3678,-1.5051,-1.642,-1.5761,-1.4992,-2.007,-1.9687,-1.9391,-1.9186,0.0,-1.7952,-1.7236,-1.6744,-1.6428,-1.6189,-1.5888,-1.5371,-1.5158,-1.5177,-1.4602,-1.4092,-1.365,-1.3367,-1.3185,-1.2971,-1.2298,-1.2367,-1.309,-1.2593,-1.2943,-1.4029,-1.4282,-1.4465,-1.4547,-1.3587,-1.3116,-1.3194,-1.1764,-1.1104,-1.1092,-0.9891,-0.9534,-1.0059,-1.0215,-1.0093,-0.963,-0.9867,-1.0,-1.003,-1.0508,0.0,0.0,0.0,0.0,0.0,0.0,0.0,0.0,0.2999,0.0,0.2592,0.1262,0.0516,0.0423,-0.2982,-0.5848,-0.751,-0.9996,-1.2805,-1.595,-1.4956,-1.2787,-0.9455,-0.9489,-0.9046,-0.7516,-0.9797,-1.156,-1.1882,-1.4298,-1.6111,-1.6409,-1.6285,-1.5938,-1.5301,-1.4803,-1.4119,-1.3254,-1.2271,-1.1274,-1.0376,-0.8399,-0.7134,-0.7631,-0.7099,-0.6687,-0.7079,-0.733,-0.7558,-0.8054,-0.8941,-0.9707,-1.037,-1.0764,-1.1153,-1.1468,-1.138,-1.1447,-1.201,-1.213,-1.199,-1.189,-1.2025,-1.207,-1.1827,-1.2111,-1.2787,-1.3808,-1.4001,-1.4237,-1.9273,-1.891,-1.8101,-1.7806,-1.7789,-1.649,-1.5751,-1.5499,0.0,0.0,0.0,-1.5377,-1.4972,-1.4603,-1.4349,-1.3807,-1.3076,-1.2448,-1.223,-1.2357,-1.1355,-1.1282,-1.1974,-1.22,-1.2616,-1.3226,-1.4352,-1.4565,-1.3941,-1.3578,-1.3192,-1.2802,-1.1775,-1.0843,-1.006,-0.8921,-0.8509,-0.8911,-0.9394,-0.9421,-0.8943,-0.9278,-0.9569,-0.9799,-1.0283,-1.0692,-1.086,-0.6779,-0.4512,-0.4473,0.0295,0.2687,0.1821,0.2217,0.2106,0.1288,0.153,0.1716,0.1598,-0.1567,-0.3915,-0.4747,-0.9221,-1.2419,-1.3471,-1.3625,-1.2873,-1.0923,-1.0329,-0.998,-1.0029,-1.0669,-1.1579,-1.2769,-1.4272,-1.5359,-1.5766,-1.5781,-1.5404,-1.4746,-1.3971,-1.3073,-1.2106,-1.1159,-1.0176,-0.9226,-0.8064,-0.7259,-0.6923,-0.6319,-0.6016,-0.6398,-0.7007,-0.7565,-0.8054,-0.8861,-0.9746,-1.0196,-1.0582,-1.0819,-1.0835,-1.0635,-1.0684,-1.1212,-1.1226,-1.1365,-1.1644,-1.1256,-1.092,-1.135,-1.0885,-1.058,-1.1226,-1.1958,-1.2879,-1.8181,-1.8051,-1.6941,-1.6842,-1.7263,-1.5478,-1.4543,-1.4274,-1.4379,-1.4768,-1.5301,-1.4132,-1.3756,-1.3863,-1.2878,-1.2389,-1.233,-1.207,-1.2094,-1.2377,-1.1871,-1.1983,-1.2572,-1.2892,-1.32,-1.3483,-1.4158,-1.4193,-1.3609,-1.2639,-1.1974,-1.1546,-1.0354,-0.9311,-0.8492,-0.8353,-0.8109,-0.778,-0.8593,-0.8863,-0.8512,-0.9073,-0.941,-0.9402,-0.9569,-0.964,-0.9488,-0.8919,-0.8531,-0.8031,-0.443,-0.2658,-0.3105,-0.0779,0.0323,-0.0312,-0.0405,-0.0342,-0.0047,-0.0229,-0.1915,-0.564,-0.821,-0.9642,-0.9762,-0.9886,-0.8219,-0.4162,-0.3055,-0.1689,-0.1627,-0.3656,-0.5818,-0.777,-1.169,-1.4391,-1.4522,-1.4729,-1.4679,-1.4242,-1.3485,-1.2412,-1.1185,-1.0272,-0.9403,-0.8521,-0.7487,-0.6658,-0.6283,-0.6301,-0.6532,-0.6666,-0.6956,-0.7489,-0.8021,-0.8578,-0.927,-1.0,-1.0312,-1.0472,-1.0547,-1.0488,-1.0439,-1.0398,-1.0564,-1.0811,-1.1311,-1.0855,-1.0635,-1.0851,-1.0606,-1.0446,-1.054,-1.0366,-1.0545,-1.7219,-1.7287,-1.6745,-1.6453,-1.6217,-1.4812,-1.4374,-1.4511,-1.3982,-1.4374,-1.5243,-1.4379,-1.3994,-1.3934,-1.3121,-1.2685,-1.2558,-1.2502,-1.2435,-1.2441,-1.2275,-1.2346,-1.2591,-1.2899,-1.3107,-1.3277,-1.4014,-1.4113,-1.3481,-1.2887,-1.2389,-1.1916,-1.0397,-0.9197,-0.8439,-0.8293,-0.7975,-0.743,-0.8125,-0.8398,-0.8134,-0.8466,-0.8595,-0.8561,-0.8594,-0.8586,-0.8423,-0.7481,-0.6859,-0.6685,-0.404,-0.2725,-0.3019,-0.1993,-0.1535,-0.1912,-0.2297,-0.2391,-0.2201,-0.2079,-0.317,-0.5922,-0.6954,-0.7596,-0.7849,-0.8561,-0.7819,-0.5062,-0.4126,-0.3768,-0.378,-0.4941,-0.6474,-0.8552,-1.1175,-1.2935,-1.3683,-1.3775,-1.3539,-1.2967,-1.2271,-1.1285,-0.9857,-0.9187,-0.8488,-0.7619,-0.6742,-0.6167,-0.605,-0.6392,-0.6696,-0.6738,-0.7041,-0.7454,-0.7863,-0.8423,-0.899,-0.9597,-0.9785,-0.9992,-1.0168,-1.014,-1.0209,-1.0613,-1.0712,-1.084,-1.1347,-1.0995,-1.0744,-1.0791,-1.0816,-1.0771,-1.0899,-1.1114,-1.1198,-1.6241,-1.6435,-1.6267,-1.5716,-1.5016,-1.4435,-1.4456,-1.4755,-1.4095,-1.4325,-1.5042,-1.4526,-1.417,-1.4057,-1.3466,-1.3108,-1.2979,-1.286,-1.2789,-1.2671,-1.2618,-1.2574,-1.2602,-1.2839,-1.3046,-1.3186,-1.3836,-1.3852,-1.3287,-1.2928,-1.2424,-1.1701,-1.0371,-0.9381,-0.8757,-0.851,-0.8098,-0.7502,-0.7924,-0.8048,-0.7814,-0.7826,-0.7814,-0.7739,-0.7697,-0.765,-0.7447,-0.5895,-0.4977,-0.4899,-0.3262,-0.2315,-0.2393,-0.2737,-0.3024,-0.3161,-0.37,-0.4036,-0.4137,-0.4122,-0.473,-0.6008,-0.5997,-0.6143,-0.6812,-0.7697,-0.7975,-0.7194,-0.6753,-0.6823,-0.7179,-0.7768,-0.8787,-1.0144,-1.0819,-1.1633,-1.2665,-1.2606,-1.2212,-1.1567,-1.0972,-0.9973,-0.873,-0.8072,-0.746,-0.6664,-0.6044,-0.5804,-0.603,-0.6319,-0.6513,-0.6725,-0.707,-0.7419,-0.7628,-0.8144,-0.8667,-0.903,-0.9279,-0.9549,-0.9808,-0.9791,-0.9967,-1.0697,-1.0867,-1.0965,-1.1344,-1.1047,-1.0908,-1.1147,-1.1239,-1.1251,-1.1464,-1.2406,-1.2651,-1.5014,-1.5191,-1.4622,-1.4063,-1.3935,-1.4438,-1.4463,-1.4215,-1.4496,-1.4664,-1.4575,-1.3671,-1.3463,-1.3598,-1.2936,-1.2838,-1.3112,-1.2807,-1.285,-1.315,-1.2925,-1.2813,-1.2866,-1.3084,-1.329,-1.3413,-1.3499,-1.3272,-1.2778,-1.1871,-1.0823,-0.9709,-0.9384,-0.9273,-0.9109,-0.8997,-0.8566,-0.7954,-0.8012,-0.7851,-0.7568,-0.7476,-0.7398,-0.7266,-0.7147,-0.6927,-0.6642,-0.6157,-0.5666,-0.5154,-0.4263,-0.3626,-0.3337,-0.3547,-0.3658,-0.3577,-0.4222,-0.484,-0.5293,-0.4904,-0.4987,-0.5984,-0.5622,-0.5649,-0.6526,-0.6671,-0.6913,-0.7142,-0.7121,-0.7337,-0.7954,-0.863,-0.9093,-0.9234,-1.007,-1.0747,-1.0914,-1.066,-1.0592,-1.0695,-0.9877,-0.8882,-0.7837,-0.7029,-0.6368,-0.5739,-0.5318,-0.5241,-0.5636,-0.5841,-0.6087,-0.6477,-0.6921,-0.7181,-0.7377,-0.7704,-0.8054,-0.8374,-0.8846,-0.9252,-0.9533,-1.0059,-1.05,-1.0641,-1.0659,-1.1075,-1.1105,-1.0865,-1.0855,-1.1514,-1.1583,-1.1398,-1.1452,-1.25,-1.3007,-1.3872,-1.4193,-1.4132,-1.4138,-1.4249,-1.446,-1.4402,-1.4156,-1.425,-1.4255,-1.4071,-1.3584,-1.3531,-1.3747,-1.3226,-1.3165,-1.3424,-1.319,-1.3035,-1.3094,-1.3135,-1.3041,-1.2876,-1.3263,-1.3375,-1.3282,-1.3206,-1.2742,-1.193,-1.0857,-1.0052,-0.9532,-0.9252,-0.9042,-0.9043,-0.8655,-0.8318,-0.8137,-0.7791,-0.7488,-0.7242,-0.7089,-0.6931,-0.6679,-0.6594,-0.6441,-0.626,-0.6044,-0.5761,-0.5411,-0.4828,-0.4386,-0.4209,-0.4265,-0.4341,-0.4404,-0.4668,-0.5067,-0.5543,-0.5097,-0.4964,-0.5375,-0.5253,-0.5354,-0.5862,-0.6609,-0.7298,-0.7797,-0.7935,-0.8158,-0.8655,-0.9175,-0.9498,-0.9435,-0.9647,-0.9875,-1.0235,-0.9915,-0.9644,-0.9428,-0.8762,-0.7885,-0.6765,-0.5679,-0.5043,-0.4787,-0.4618,-0.4666,-0.5149,-0.5399,-0.5701,-0.6073,-0.6345,-0.6544,-0.6832,-0.6979,-0.7224,-0.7628,-0.8181,-0.8736,-0.9558,-1.0349,-1.0889,-1.1112,-1.1437,-1.1601,-1.1623,-1.1353,-1.1226,-1.1761,-1.2287,-1.2416,-1.2929,-1.3695,-1.3956,-1.2884,-1.3137,-1.3466,-1.385,-1.4268,-1.4141,-1.4114,-1.4093,-1.3905,-1.37,-1.3398,-1.3283,-1.3222,-1.3196,-1.3355,-1.3453,-1.3408,-1.3406,-1.3246,-1.2991,-1.3192,-1.3091,-1.2772,-1.293,-1.297,-1.2772,-1.2498,-1.1782,-1.0684,-0.9807,-0.9234,-0.9063,-0.8799,-0.8721,-0.8692,-0.8289,-0.8054,-0.7927,-0.7592,-0.7187,-0.6775,-0.6541,-0.6357,-0.6189,-0.5995,-0.5967,-0.6076,-0.5982,-0.5829,-0.5667,-0.5145,-0.4809,-0.4671,-0.4718,-0.4907,-0.5153,-0.5132,-0.5225,-0.5483,-0.4961,-0.4625,-0.4619,-0.4671,-0.4848,-0.5411,-0.6381,-0.7357,-0.8319,-0.8903,-0.9343,-0.9416,-0.965,-0.9794,-0.9796,-0.9464,-0.9434,-0.9709,-0.9347,-0.8807,-0.837,-0.7761,-0.691,-0.5776,-0.4797,-0.4272,-0.4268,-0.4089,-0.4116,-0.4666,-0.4965,-0.5236,-0.5744,-0.5773,-0.5857,-0.6258,-0.6334,-0.6512,-0.6892,-0.75,-0.8505,-0.9527,-1.0436,-1.1373,-1.1665,-1.2272,-1.2548,-1.2268,-1.1953,-1.1748,-1.1877,-1.2314,-1.3081,-1.3713,-1.4373,-1.4318,-1.2153,-1.2146,-1.2077,-1.2688,-1.3541,-1.345,-1.3549,-1.3721,-1.3542,-1.3034,-1.2451,-1.2411,-1.2148,-1.1763,-1.2898,-1.3315,-1.3006,-1.3164,-1.3127,-1.2907,-1.3016,-1.2865,-1.2407,-1.1975,-1.1884,-1.2024,-1.1414,-1.0389,-0.9084,-0.8577,-0.8105,-0.7676,-0.7989,-0.812,-0.817,-0.8266,-0.8028,-0.7443,-0.7401,-0.7001,-0.6061,-0.5728,-0.5714,-0.5868,-0.5447,-0.5508,-0.5976,-0.6,-0.5882,-0.581,-0.5316,-0.4938,-0.4665,-0.4822,-0.5277,-0.5788,-0.5637,-0.5404,-0.5229,-0.4488,-0.3984,-0.4097,-0.379,-0.4018,-0.5097,-0.5697,-0.6753,-0.843,-0.9862,-1.0631,-1.0446,-1.0178,-1.0007,-1.003,-0.9636,-0.9398,-0.9334,-0.8685,-0.8067,-0.7609,-0.6842,-0.5907,-0.4767,-0.4412,-0.4087,-0.3862,-0.3714,-0.3764,-0.4191,-0.4386,-0.4821,-0.5295,-0.5415,-0.5321,-0.5818,-0.5697,-0.5764,-0.6099,-0.6853,-0.8147,-0.9302,-1.0392,-1.1339,-1.2215,-1.2731,-1.2965,-1.2853,-1.2697,-1.252,-1.2502,-1.2537,-1.3149,-1.354,-1.4055,-1.4047,-1.1509,-1.1773,-1.1732,-1.231,-1.3231,-1.3118,-1.302,-1.2935,-1.2842,-1.2279,-1.1676,-1.1663,-1.1475,-1.1107,-1.1812,-1.2213,-1.2304,-1.2243,-1.2167,-1.2106,-1.2241,-1.218,-1.1915,-1.175,-1.1673,-1.1572,-1.1026,-1.0092,-0.8944,-0.8518,-0.8068,-0.7666,-0.7665,-0.7747,-0.7812,-0.7664,-0.741,-0.7178,-0.712,-0.6755,-0.6001,-0.549,-0.5436,-0.58,-0.5567,-0.565,-0.6168,-0.6168,-0.6143,-0.5941,-0.5399,-0.5206,-0.5479,-0.5846,-0.6044,-0.6048,-0.5806,-0.5487,-0.4875,-0.402,-0.3304,-0.2959,-0.2963,-0.335,-0.4446,-0.5634,-0.6961,-0.8436,-1.0092,-1.1073,-1.1376,-1.1042,-1.066,-1.0351,-0.9866,-0.9381,-0.905,-0.8414,-0.7719,-0.7084,-0.6102,-0.5086,-0.4491,-0.3954,-0.3437,-0.2934,-0.2863,-0.3141,-0.3607,-0.4109,-0.467,-0.5264,-0.5474,-0.5484,-0.5245,-0.4952,-0.483,-0.52,-0.5951,-0.7302,-0.8565,-1.0277,-1.1439,-1.2373,-1.3023,-1.346,-1.3323,-1.2602,-1.2537,-1.2329,-1.2402,-1.2562,-1.29,-1.3307,-1.3409,-1.1044,-1.1429,-1.1409,-1.1932,-1.2679,-1.2477,-1.2256,-1.2108,-1.2028,-1.1436,-1.0763,-1.0751,-1.0606,-1.0266,-1.0512,-1.0856,-1.1273,-1.1494,-1.1608,-1.1592,-1.1911,-1.1836,-1.1469,-1.1473,-1.1389,-1.1008,-1.0303,-0.9391,-0.8414,-0.8013,-0.7625,-0.7136,-0.7244,-0.73,-0.7241,-0.7139,-0.6982,-0.6923,-0.6874,-0.6539,-0.5946,-0.5403,-0.5352,-0.5677,-0.5773,-0.5932,-0.6277,-0.6332,-0.6218,-0.5832,-0.5345,-0.5313,-0.5797,-0.6275,-0.6463,-0.636,-0.6026,-0.5496,-0.4721,-0.384,-0.2732,-0.1567,-0.1902,-0.2569,-0.3677,-0.5408,-0.6967,-0.8397,-1.0108,-1.1377,-1.1669,-1.176,-1.1504,-1.0893,-1.0187,-0.9548,-0.907,-0.8315,-0.7363,-0.6318,-0.5301,-0.4499,-0.3929,-0.345,-0.2916,-0.2313,-0.2284,-0.2494,-0.3201,-0.3695,-0.4338,-0.5017,-0.5204,-0.5222,-0.5079,-0.4714,-0.4406,-0.4694,-0.5116,-0.6423,-0.8193,-0.9968,-1.151,-1.248,-1.3216,-1.3709,-1.3507,-1.269,-1.2204,-1.1938,-1.1793,-1.1899,-1.2187,-1.2458,-1.2432,-1.0794,-1.1122,-1.1071,-1.1367,-1.1874,-1.1566,-1.1367,-1.1318,-1.1132,-1.0496,-0.9692,-0.9794,-0.9543,-0.9084,-0.9354,-0.956,-1.0063,-1.1116,-1.1556,-1.1435,-1.1918,-1.1716,-1.1004,-1.1001,-1.074,-1.0211,-0.9056,-0.8099,-0.748,-0.7136,-0.6755,-0.6399,-0.6728,-0.6766,-0.6431,-0.6712,-0.6712,-0.6544,-0.6598,-0.6376,-0.5823,-0.5445,-0.5395,-0.5673,-0.5982,-0.6195,-0.6381,-0.6381,-0.6168,-0.5655,-0.5235,-0.5136,-0.5553,-0.5987,-0.6373,-0.6689,-0.6317,-0.5605,-0.471,-0.3773,-0.2218,-0.0559,-0.0616,-0.1672,-0.2952,-0.4707,-0.6538,-0.8214,-1.0026,-1.1326,-1.1519,-1.2017,-1.2197,-1.1592,-1.0533,-0.9681,-0.9151,-0.8338,-0.7112,-0.5541,-0.4574,-0.3866,-0.3224,-0.2888,-0.2649,-0.2235,-0.2004,-0.2057,-0.2801,-0.3129,-0.3538,-0.4289,-0.4909,-0.5164,-0.4874,-0.4618,-0.4333,-0.4245,-0.4641,-0.5604,-0.7752,-0.9647,-1.1485,-1.2649,-1.3607,-1.4065,-1.3521,-1.2729,-1.202,-1.1702,-1.15,-1.1094,-1.1154,-1.1296,-1.1351,-1.0893,-1.1281,-1.1248,-1.1489,-1.1853,-1.1456,-1.1107,-1.0883,-1.0355,-0.9623,-0.8906,-0.8815,-0.8708,-0.87,-0.8829,-0.9136,-0.957,-1.0392,-1.0687,-1.0651,-1.0995,-1.095,-1.0539,-1.044,-1.0167,-0.9668,-0.902,-0.8419,-0.7953,-0.7394,-0.6817,-0.6432,-0.6458,-0.6431,-0.6164,-0.6337,-0.6386,-0.6381,-0.6268,-0.6109,-0.5887,-0.55,-0.5504,-0.5837,-0.61,-0.6209,-0.6282,-0.6436,-0.6218,-0.5618,-0.5116,-0.5019,-0.5521,-0.6276,-0.6765,-0.677,-0.6523,-0.571,-0.458,-0.3371,-0.2014,-0.0387,-0.0165,-0.0875,-0.2159,-0.3969,-0.5972,-0.7951,-0.9915,-1.1242,-1.1819,-1.2224,-1.2166,-1.146,-1.0498,-0.9673,-0.8862,-0.7528,-0.6111,-0.5047,-0.4361,-0.3748,-0.311,-0.2737,-0.2259,-0.1506,-0.1423,-0.1782,-0.2153,-0.2806,-0.3477,-0.4095,-0.4659,-0.5178,-0.5135,-0.5168,-0.514,-0.4678,-0.4716,-0.5908,-0.7908,-0.9391,-1.1216,-1.2939,-1.387,-1.4002,-1.3439,-1.2655,-1.1864,-1.104,-1.0473,-1.0179,-0.9978,-1.0118,-1.0421,-1.0714,-1.1176,-1.1252,-1.1417,-1.1626,-1.128,-1.0901,-1.0561,-0.9977,-0.9286,-0.8762,-0.8485,-0.8338,-0.8372,-0.8532,-0.8744,-0.9044,-0.9732,-1.004,-1.0066,-1.0513,-1.0569,-1.025,-1.0099,-0.9976,-0.9746,-0.9223,-0.8826,-0.8539,-0.7701,-0.7026,-0.6586,-0.6377,-0.6282,-0.6114,-0.6173,-0.6282,-0.6277,-0.6164,-0.6059,-0.5946,-0.5673,-0.5668,-0.6005,-0.6213,-0.6273,-0.6228,-0.6376,-0.6159,-0.5542,-0.5226,-0.5349,-0.5765,-0.655,-0.7068,-0.7045,-0.6722,-0.6041,-0.486,-0.3761,-0.2155,-0.0654,-0.0109,-0.0434,-0.1638,-0.3212,-0.5143,-0.7682,-0.9959,-1.1525,-1.2206,-1.2166,-1.181,-1.104,-1.0431,-0.9503,-0.837,-0.6697,-0.5336,-0.4444,-0.3687,-0.3028,-0.2427,-0.2187,-0.1846,-0.1061,-0.1102,-0.1574,-0.1821,-0.2417,-0.3017,-0.3674,-0.4417,-0.4955,-0.5463,-0.569,-0.5979,-0.5432,-0.4932,-0.6706,-0.8714,-0.955,-1.0946,-1.3243,-1.4616,-1.412,-1.3552,-1.2229,-1.1249,-1.0415,-0.9818,-0.9709,-0.9734,-0.9812,-0.9939,-1.0437,-1.0864,-1.1117,-1.1217,-1.1172,-1.1027,-1.0732,-1.0318,-0.9835,-0.9292,-0.8807,-0.8401,-0.8165,-0.799,-0.8084,-0.8267,-0.8461,-0.9229,-0.9626,-0.9825,-1.029,-1.0466,-1.0311,-1.0202,-1.0194,-1.0223,-0.9591,-0.9166,-0.9029,-0.7871,-0.716,-0.69,-0.645,-0.6173,-0.6173,-0.6173,-0.6232,-0.6228,-0.6178,-0.6114,-0.6005,-0.5845,-0.5905,-0.6173,-0.6223,-0.6277,-0.6173,-0.6055,-0.5769,-0.5218,-0.5467,-0.5761,-0.6238,-0.6797,-0.7187,-0.7385,-0.7085,-0.6426,-0.5483,-0.4392,-0.2837,-0.097,-0.0437,-0.0497,-0.1293,-0.2613,-0.4595,-0.7559,-0.9936,-1.1674,-1.2227,-1.2049,-1.1233,-1.0391,-0.9887,-0.8908,-0.7154,-0.5818,-0.4729,-0.3721,-0.2774,-0.194,-0.1387,-0.1343,-0.1233,-0.1007,-0.0999,-0.1366,-0.1612,-0.1895,-0.227,-0.3047,-0.3904,-0.4834,-0.5384,-0.6531,-0.6778,-0.6771,-0.6301,-0.7733,-0.9858,-1.0798,-1.185,-1.3995,-1.4637,-1.4141,-1.3367,-1.2045,-1.1147,-1.0593,-1.0121,-0.976,-0.9402,-0.9265,-0.912,-1.1091,-1.1506,-1.1351,-1.1324,-1.1315,-1.0868,-1.0552,-1.0238,-0.9172,-0.8489,-0.7947,-0.7592,-0.7368,-0.7111,-0.7468,-0.7781,-0.8155,-0.8741,-0.9085,-0.9224,-0.938,-0.9967,-1.0424,-1.0546,-1.0657,-1.0682,-1.0017,-0.9666,-0.9659,-0.8166,-0.7324,-0.717,-0.6519,-0.6119,-0.6059,-0.6173,-0.6228,-0.6277,-0.6114,-0.6109,-0.6119,-0.5891,-0.59,-0.6005,-0.6009,-0.5955,-0.5845,-0.5454,-0.5159,-0.4953,-0.5221,-0.5632,-0.6015,-0.6648,-0.7095,-0.7257,-0.7144,-0.6701,-0.5738,-0.4774,-0.323,-0.1314,-0.0924,-0.0758,-0.0989,-0.2692,-0.4877,-0.75,-0.9629,-1.1124,-1.1625,-1.1625,-1.0746,-0.9252,-0.8639,-0.7753,-0.6406,-0.535,-0.4358,-0.3171,-0.2435,-0.1721,-0.1228,-0.1066,-0.1066,-0.0724,-0.076,-0.0895,-0.105,-0.1307,-0.1682,-0.2359,-0.3223,-0.4439,-0.5578,-0.689,-0.766,-0.7923,-0.8149,-0.8905,-1.1194,-1.3147,-1.4456,-1.616,-1.4597,-1.3812,-1.297,-1.1905,-1.1317,-1.0516,-0.9989,-0.9347,-0.8477,-0.8088,-0.8117,-1.0821,-1.1064,-1.1158,-1.1086,-1.0922,-1.0739,-1.0521,-1.0038,-0.9011,-0.8238,-0.7767,-0.7256,-0.6863,-0.6712,-0.695,-0.7393,-0.795,-0.8435,-0.8917,-0.9418,-0.9529,-0.9701,-1.0024,-1.0258,-1.0588,-1.101,-1.0379,-1.0254,-1.0071,-0.8591,-0.7779,-0.7385,-0.6653,-0.6182,-0.6114,-0.6173,-0.6232,-0.6263,-0.6098,-0.6016,-0.6168,-0.5977,-0.5946,-0.6032,-0.5955,-0.5841,-0.5681,-0.5234,-0.4961,-0.5069,-0.5279,-0.5612,-0.5956,-0.6523,-0.6987,-0.7198,-0.7139,-0.681,-0.6185,-0.5374,-0.4151,-0.2607,-0.1995,-0.1734,-0.1854,-0.2907,-0.462,-0.7242,-0.9224,-1.0399,-1.0914,-1.0629,-0.9438,-0.7935,-0.7052,-0.6421,-0.5723,-0.5003,-0.3956,-0.2794,-0.1903,-0.1344,-0.0729,-0.0785,-0.0673,-0.0558,-0.0821,-0.0698,-0.053,-0.0796,-0.1091,-0.1717,-0.2755,-0.4035,-0.5626,-0.703,-0.8561,-0.8956,-0.9635,-1.0382,-1.179,-1.4172,-1.5251,-1.5706,-1.4451,-1.3375,-1.2589,-1.1674,-1.0626,-0.9913,-0.9429,-0.8863,-0.8081,-0.752,-0.7449,-1.0009,-1.0096,-1.0719,-1.0646,-1.0281,-1.0639,-1.0453,-0.9802,-0.8875,-0.8233,-0.7782,-0.7145,-0.6672,-0.6487,-0.6614,-0.7036,-0.7722,-0.8031,-0.8775,-0.9236,-0.9558,-0.9538,-0.9348,-0.9876,-1.0436,-1.0912,-1.076,-1.0697,-1.0397,-0.9203,-0.8374,-0.7865,-0.6956,-0.6418,-0.6358,-0.628,-0.6256,-0.6204,-0.6091,-0.6091,-0.6234,-0.6095,-0.5989,-0.6091,-0.5896,-0.5732,-0.5513,-0.5234,-0.5117,-0.5297,-0.5458,-0.5609,-0.5932,-0.6544,-0.6874,-0.7031,-0.7079,-0.6918,-0.6588,-0.6023,-0.5309,-0.4047,-0.3507,-0.3185,-0.2819,-0.3177,-0.4573,-0.7041,-0.8756,-0.9769,-0.9923,-0.8912,-0.7712,-0.6617,-0.5651,-0.5277,-0.523,-0.4625,-0.3569,-0.2348,-0.14,-0.0785,-0.0449,-0.028,-0.0336,-0.0495,-0.0703,-0.0695,-0.0477,-0.0516,-0.0695,-0.0969,-0.2211,-0.3705,-0.5415,-0.7169,-0.8847,-1.0079,-1.0866,-1.1588,-1.201,-1.3664,-1.4775,-1.4931,-1.3598,-1.2855,-1.2399,-1.1362,-1.0099,-0.9488,-0.9113,-0.8536,-0.7926,-0.7517,-0.7333,-1.0124,-1.0348,-1.0642,-1.0593,-1.0294,-1.0419,-1.0052,-0.9212,-0.826,-0.7428,-0.6817,-0.6526,-0.6213,-0.5835,-0.6245,-0.656,-0.6786,-0.7273,-0.7706,-0.8125,-0.8469,-0.8795,-0.9083,-0.9807,-1.0547,-1.0864,-1.0822,-1.0871,-1.0628,-0.9839,-0.8986,-0.8425,-0.7683,-0.714,-0.6813,-0.6548,-0.643,-0.6356,-0.622,-0.626,-0.6406,-0.6161,-0.6035,-0.6105,-0.5727,-0.5407,-0.5238,-0.5128,-0.5128,-0.5128,-0.512,-0.534,-0.5778,-0.6109,-0.6381,-0.6707,-0.6977,-0.6977,-0.6701,-0.6372,-0.5864,-0.4992,-0.446,-0.3935,-0.3262,-0.3972,-0.5237,-0.6892,-0.818,-0.8829,-0.8495,-0.7522,-0.6465,-0.5605,-0.4952,-0.4567,-0.4398,-0.3735,-0.285,-0.1902,-0.1064,-0.0393,-0.0168,-0.028,-0.0333,-0.0434,-0.0589,-0.0687,-0.0581,-0.0423,-0.0463,-0.0698,-0.1887,-0.3453,-0.5422,-0.7414,-0.9587,-1.075,-1.1538,-1.1879,-1.2337,-1.2693,-1.3613,-1.3485,-1.2736,-1.2162,-1.173,-1.0564,-0.9181,-0.8998,-0.8704,-0.804,-0.7428,-0.7234,-0.724,-1.0028,-1.0462,-1.0732,-1.0593,-1.0243,-1.0144,-0.9592,-0.8598,-0.7544,-0.673,-0.6223,-0.6005,-0.5646,-0.535,-0.5743,-0.6059,-0.6766,-0.7566,-0.7977,-0.8143,-0.8397,-0.8586,-0.8786,-0.9568,-1.0288,-1.0793,-1.0737,-1.0807,-1.0662,-1.0034,-0.9181,-0.8734,-0.8089,-0.7465,-0.7136,-0.6758,-0.6631,-0.6445,-0.6182,-0.6119,-0.6253,-0.607,-0.5878,-0.5814,-0.5399,-0.5073,-0.5128,-0.5128,-0.5183,-0.5238,-0.5069,-0.512,-0.5614,-0.5891,-0.6164,-0.644,-0.6652,-0.6761,-0.6652,-0.6652,-0.6376,-0.5764,-0.5492,-0.4995,-0.4611,-0.5105,-0.5914,-0.6822,-0.7576,-0.7953,-0.7191,-0.6352,-0.5504,-0.4736,-0.4128,-0.3852,-0.3738,-0.3297,-0.2683,-0.1845,-0.1008,-0.0448,-0.0224,-0.0336,-0.0613,-0.0768,-0.1429,-0.1524,-0.1036,-0.0868,-0.0523,-0.0812,-0.1827,-0.3307,-0.5341,-0.7661,-1.0376,-1.1287,-1.1715,-1.1693,-1.1614,-1.1918,-1.227,-1.2,-1.1825,-1.1311,-1.0723,-0.9503,-0.8488,-0.8102,-0.7723,-0.723,-0.6984,-0.7019,-0.7107,-0.98,-1.0454,-1.0776,-1.0593,-1.0054,-0.9765,-0.9033,-0.7949,-0.6888,-0.6233,-0.5848,-0.5444,-0.5324,-0.5079,-0.5295,-0.6056,-0.695,-0.7796,-0.8005,-0.8096,-0.8523,-0.8701,-0.8834,-0.9295,-0.9907,-1.0681,-1.0681,-1.0681,-1.0551,-1.0073,-0.9624,-0.8977,-0.8387,-0.7984,-0.7517,-0.7027,-0.6808,-0.6727,-0.6207,-0.5917,-0.6018,-0.5873,-0.5676,-0.5316,-0.5014,-0.4794,-0.4853,-0.5018,-0.5238,-0.5513,-0.5234,-0.5344,-0.5563,-0.5673,-0.5891,-0.6009,-0.6109,-0.6268,-0.649,-0.6657,-0.6657,-0.6495,-0.6381,-0.61,-0.5714,-0.5828,-0.6312,-0.6794,-0.7278,-0.7331,-0.6362,-0.5441,-0.4736,-0.4076,-0.3463,-0.3188,-0.319,-0.3079,-0.2517,-0.1958,-0.1008,-0.028,-0.028,-0.0392,-0.0781,-0.1278,-0.1952,-0.2343,-0.1838,-0.1382,-0.1172,-0.1027,-0.1896,-0.4026,-0.6174,-0.8159,-1.0843,-1.1442,-1.1844,-1.1389,-1.104,-1.1089,-1.1274,-1.1326,-1.1099,-1.0623,-0.9781,-0.8463,-0.7655,-0.7191,-0.6829,-0.6487,-0.6539,-0.6761,-0.7153,-0.9737,-1.012,-1.0445,-1.0224,-0.9649,-0.9068,-0.8229,-0.7181,-0.6416,-0.5782,-0.5335,-0.5457,-0.5198,-0.5074,-0.5598,-0.6067,-0.6476,-0.7095,-0.7417,-0.7794,-0.8423,-0.8844,-0.9105,-0.9354,-0.9786,-1.0238,-1.0491,-1.0624,-1.0674,-1.0564,-1.0114,-0.975,-0.9253,-0.8819,-0.8249,-0.7592,-0.7099,-0.6958,-0.6445,-0.6176,-0.5964,-0.5688,-0.5287,-0.4736,-0.4408,-0.4301,-0.4356,-0.4794,-0.5175,-0.534,-0.5668,-0.5837,-0.5782,-0.534,-0.5175,-0.5399,-0.55,-0.5719,-0.6105,-0.6381,-0.6657,-0.682,-0.6652,-0.6381,-0.6105,-0.6105,-0.6376,-0.6745,-0.7015,-0.6912,-0.5601,-0.4842,-0.4184,-0.3741,-0.3352,-0.2907,-0.2742,-0.241,-0.213,-0.1847,-0.0952,-0.0168,-0.0168,-0.0558,-0.1327,-0.2094,-0.3037,-0.3351,-0.3111,-0.2509,-0.1997,-0.1926,-0.2009,-0.4563,-0.7231,-0.9164,-1.1142,-1.1384,-1.1529,-1.095,-1.0633,-1.0322,-1.036,-1.0654,-1.0644,-1.0292,-0.9143,-0.7843,-0.7363,-0.7233,-0.6592,-0.5942,-0.6626,-0.7416,-0.8193,-0.9452,-1.0092,-1.0373,-1.0114,-0.9481,-0.8761,-0.7769,-0.6617,-0.5953,-0.5505,-0.5256,-0.5052,-0.4921,-0.4914,-0.5186,-0.5677,-0.6176,-0.6838,-0.7271,-0.7747,-0.852,-0.9089,-0.9436,-0.9588,-0.9856,-1.0117,-1.0371,-1.0561,-1.0681,-1.0548,-1.0428,-1.0174,-0.9786,-0.9387,-0.8872,-0.8125,-0.7554,-0.72,-0.6718,-0.6164,-0.5609,-0.5066,-0.4401,-0.4125,-0.3799,-0.3744,-0.3965,-0.4294,-0.4901,-0.5399,-0.5677,-0.5837,-0.5727,-0.534,-0.4901,-0.5238,-0.5175,-0.5281,-0.5782,-0.6168,-0.6549,-0.6874,-0.6707,-0.6598,-0.649,-0.6436,-0.649,-0.681,-0.681,-0.6539,-0.5555,-0.4846,-0.4353,-0.3852,-0.3408,-0.3132,-0.2856,-0.2242,-0.2017,-0.1846,-0.1063,-0.0392,0.0056,-0.0611,-0.1756,-0.2843,-0.3999,-0.4247,-0.4311,-0.3624,-0.2882,-0.263,-0.2777,-0.4914,-0.7504,-0.9426,-1.1137,-1.1488,-1.1257,-1.0704,-1.0449,-1.0282,-1.0254,-1.0418,-1.0196,-1.0069,-0.9533,-0.8583,-0.7982,-0.7447,-0.7375,-0.7397,-0.7641,-0.8158,-0.895,-0.9383,-1.0296,-1.0433,-1.0156,-0.9549,-0.8631,-0.7536,-0.6334,-0.5545,-0.5346,-0.5332,-0.482,-0.468,-0.4841,-0.5039,-0.5399,-0.6169,-0.7191,-0.7681,-0.796,-0.8873,-0.9468,-0.9586,-0.9831,-1.0053,-1.0117,-1.0244,-1.0491,-1.0618,-1.0555,-1.0491,-1.0434,-1.0238,-0.9901,-0.9364,-0.867,-0.8085,-0.7545,-0.6994,-0.6273,-0.5113,-0.4067,-0.34,-0.3234,-0.2905,-0.2905,-0.3239,-0.3953,-0.4618,-0.5281,-0.5723,-0.6,-0.6,-0.5344,-0.5148,-0.5456,-0.5096,-0.5069,-0.5454,-0.6055,-0.649,-0.6761,-0.6815,-0.6874,-0.6933,-0.682,-0.6766,-0.6977,-0.6869,-0.6544,-0.5941,-0.5454,-0.4901,-0.4401,-0.3849,-0.3408,-0.3239,-0.2794,-0.2348,-0.19,-0.1174,-0.0726,-0.0335,-0.1549,-0.2902,-0.4139,-0.5242,-0.5612,-0.5457,-0.444,-0.3767,-0.3337,-0.3792,-0.5564,-0.7558,-0.9283,-1.083,-1.1746,-1.1216,-1.0575,-1.0416,-1.0337,-1.0321,-1.0254,-1.0235,-1.006,-0.969,-0.9229,-0.8357,-0.8016,-0.8444,-0.8475,-0.8095,-0.8699,-0.9686,-0.9919,-1.0555,-1.0577,-1.0359,-0.9814,-0.8449,-0.7251,-0.6299,-0.5429,-0.5143,-0.5264,-0.5044,-0.4948,-0.5016,-0.5135,-0.5569,-0.6395,-0.7268,-0.7873,-0.8025,-0.9069,-0.9612,-0.9618,-0.9888,-1.0002,-1.0121,-1.0229,-1.0428,-1.0564,-1.0613,-1.08,-1.087,-1.0598,-1.0358,-1.0052,-0.9232,-0.8557,-0.8137,-0.7478,-0.6431,-0.5003,-0.3732,-0.2788,-0.2122,-0.1733,-0.1509,-0.1952,-0.2996,-0.4268,-0.478,-0.6105,-0.6652,-0.6544,-0.6046,-0.5746,-0.547,-0.4978,-0.4467,-0.5089,-0.5732,-0.6263,-0.6539,-0.681,-0.709,-0.7095,-0.7149,-0.7149,-0.7085,-0.7031,-0.6815,-0.6431,-0.5987,-0.5546,-0.5164,-0.467,-0.4174,-0.384,-0.3947,-0.345,-0.3007,-0.2556,-0.1613,-0.0946,-0.2591,-0.4107,-0.5346,-0.6328,-0.6651,-0.6352,-0.5144,-0.4158,-0.3672,-0.4244,-0.596,-0.7602,-0.9321,-1.0646,-1.1802,-1.1246,-1.0507,-1.0497,-1.0441,-1.0229,-1.0173,-1.0195,-1.041,-1.0391,-0.9809,-0.8703,-0.8685,-0.9285,-0.8794,-0.8008,-0.9,-1.0364,-0.9319,-0.9988,-1.003,-0.9881,-0.9479,-0.829,-0.7291,-0.6444,-0.5574,-0.5268,-0.5339,-0.5051,-0.5038,-0.5282,-0.5403,-0.5824,-0.6579,-0.7374,-0.7738,-0.7919,-0.8794,-0.9248,-0.9238,-0.9452,-0.9691,-0.9864,-0.9953,-1.002,-1.0255,-1.0643,-1.0926,-1.1094,-1.0856,-1.064,-1.0534,-0.9819,-0.9114,-0.8272,-0.7087,-0.5828,-0.465,-0.3256,-0.184,-0.1007,-0.0447,0.0224,0.0167,-0.2473,-0.3379,-0.3901,-0.5504,-0.7548,-0.7471,-0.6987,-0.6445,-0.651,-0.578,-0.5352,-0.547,-0.558,-0.5791,-0.615,-0.6534,-0.6869,-0.7036,-0.7252,-0.7365,-0.73,-0.7139,-0.6972,-0.681,-0.6696,-0.6317,-0.5932,-0.5546,-0.5324,-0.5042,-0.5042,-0.4875,-0.4429,-0.4039,-0.3427,-0.3032,-0.4328,-0.5623,-0.6371,-0.7248,-0.767,-0.6832,-0.5261,-0.4385,-0.3715,-0.4707,-0.6113,-0.7689,-0.935,-1.0624,-1.1471,-1.1183,-1.0671,-1.0677,-1.0591,-1.0322,-1.0283,-1.0438,-1.0676,-1.0982,-1.0712,-0.9973,-1.0039,-1.0228,-0.9762,-0.9349,-0.9607,-1.0613,-0.8521,-0.9236,-0.9663,-0.9778,-0.9598,-0.8482,-0.7524,-0.6699,-0.5755,-0.5443,-0.5495,-0.5311,-0.5372,-0.5628,-0.5766,-0.6059,-0.6705,-0.7272,-0.7499,-0.7818,-0.8337,-0.8814,-0.8945,-0.9111,-0.9369,-0.9447,-0.959,-0.9694,-0.9978,-1.0227,-1.0636,-1.102,-1.0794,-1.0705,-1.0622,-1.0262,-0.9678,-0.8914,-0.7096,-0.5814,-0.4791,-0.2869,-0.129,-0.0113,0.0905,0.2098,0.2893,-0.1339,-0.3159,-0.2863,-0.6488,-0.8886,-0.8731,-0.8057,-0.7428,-0.723,-0.6447,-0.5956,-0.5822,-0.5745,-0.5538,-0.5819,-0.6426,-0.709,-0.6982,-0.7306,-0.7408,-0.73,-0.7348,-0.7079,-0.6918,-0.7192,-0.6977,-0.6701,-0.648,-0.6421,-0.6308,-0.6086,-0.5919,-0.5642,-0.5521,-0.6054,-0.6035,-0.6668,-0.7253,-0.7617,-0.8069,-0.8541,-0.7143,-0.5261,-0.4604,-0.3944,-0.5152,-0.6553,-0.8092,-0.9541,-1.0703,-1.1156,-1.0874,-1.0658,-1.0605,-1.0508,-1.0338,-1.0446,-1.0574,-1.0724,-1.0858,-1.1095,-1.1327,-1.0999,-1.0795,-1.1083,-1.1064,-1.1032,-1.0706,-0.7768,-0.8571,-0.9869,-1.0485,-1.0598,-0.9146,-0.7945,-0.6905,-0.5972,-0.5571,-0.5653,-0.5872,-0.6026,-0.6115,-0.6161,-0.6329,-0.6673,-0.7309,-0.7437,-0.7794,-0.8417,-0.857,-0.8632,-0.882,-0.9131,-0.9189,-0.9138,-0.9279,-0.9608,-0.9679,-1.0,-1.024,-1.0509,-1.0558,-1.0627,-1.0533,-1.0141,-0.9329,-0.7812,-0.6425,-0.5085,-0.3192,-0.1018,0.0867,0.2159,0.3523,0.5089,-0.0635,-0.283,-0.1658,-0.721,-0.9636,-0.9221,-0.8837,-0.8363,-0.8105,-0.7111,-0.6518,-0.6151,-0.6024,-0.5977,-0.6145,-0.6637,-0.7311,-0.709,-0.7365,-0.7359,-0.7241,-0.7348,-0.7348,-0.7241,-0.7246,-0.7306,-0.7246,-0.7133,-0.7128,-0.7015,-0.6853,-0.6691,-0.6637,-0.6794,-0.7047,-0.7261,-0.7517,-0.7994,-0.8305,-0.7817,-0.8178,-0.6656,-0.5039,-0.4652,-0.459,-0.5712,-0.7081,-0.8611,-0.9829,-1.0582,-1.081,-1.0635,-1.0421,-1.0289,-1.0233,-1.0334,-1.0273,-1.0383,-1.0525,-1.0579,-1.0511,-1.0601,-1.1038,-1.1162,-1.0923,-1.0795,-1.0533,-1.031,-0.7235,-0.8512,-0.9386,-0.9952,-1.0208,-0.9079,-0.8115,-0.7176,-0.6081,-0.5653,-0.5908,-0.6349,-0.677,-0.6928,-0.6781,-0.6824,-0.6962,-0.6815,-0.7019,-0.7224,-0.7565,-0.7694,-0.7788,-0.7982,-0.8078,-0.8219,-0.8213,-0.8423,-0.8747,-0.9009,-0.9286,-0.964,-1.0196,-1.0688,-1.08,-1.065,-1.0342,-0.982,-0.8621,-0.731,-0.5824,-0.3209,-0.0706,0.1249,0.3009,0.5033,0.5879,-0.0698,-0.0882,-0.1821,-0.7531,-0.9348,-0.9229,-0.9101,-0.9071,-0.8906,-0.77,-0.6898,-0.6357,-0.6103,-0.5798,-0.6218,-0.6756,-0.7268,-0.7025,-0.722,-0.7257,-0.7246,-0.7371,-0.7436,-0.7317,-0.7478,-0.758,-0.7628,-0.7622,-0.767,-0.767,-0.7456,-0.7348,-0.7241,-0.7343,-0.7551,-0.7711,-0.7871,-0.8461,-0.889,-0.8296,-0.7486,-0.6126,-0.5202,-0.4929,-0.5136,-0.626,-0.7287,-0.8783,-0.9644,-1.0403,-1.0375,-1.0346,-1.0218,-1.0057,-1.0284,-1.0336,-1.0277,-1.0039,-1.0031,-0.9904,-0.9659,-0.9755,-1.0098,-1.0162,-1.0038,-0.9976,-0.9946,-0.979,-0.6173,-0.7297,-0.9027,-0.9775,-0.9716,-0.8911,-0.8021,-0.7115,-0.6016,-0.5869,-0.6328,-0.7059,-0.7704,-0.7897,-0.7619,-0.733,-0.7131,-0.6743,-0.663,-0.671,-0.6813,-0.684,-0.6982,-0.716,-0.7312,-0.7252,-0.7359,-0.7597,-0.7955,-0.8386,-0.8789,-0.9304,-0.984,-1.0431,-1.078,-1.071,-1.0421,-1.0229,-0.9214,-0.8062,-0.6679,-0.4105,-0.1032,0.0609,0.1717,0.3498,0.3155,-0.1481,-0.433,-0.4724,-0.7406,-1.0607,-0.9866,-0.8839,-0.8965,-0.8465,-0.7739,-0.6755,-0.6124,-0.5955,-0.5789,-0.6387,-0.6593,-0.6849,-0.6824,-0.7012,-0.7196,-0.7215,-0.7433,-0.752,-0.7411,-0.7509,-0.7651,-0.7628,-0.7788,-0.7895,-0.7996,-0.7943,-0.7842,-0.7788,-0.7783,-0.7616,-0.7515,-0.7568,-0.7842,-0.8209,-0.7765,-0.7117,-0.6352,-0.5651,-0.5546,-0.5968,-0.6709,-0.7794,-0.883,-0.9361,-0.988,-0.9969,-0.99,-0.9906,-0.9875,-1.0049,-1.0167,-1.0142,-0.9867,-0.952,-0.9191,-0.8848,-0.8875,-0.9054,-0.9029,-0.9008,-0.9182,-0.9133,-0.9043,-0.4763,-0.4596,-0.9136,-1.0532,-0.9762,-0.8804,-0.7777,-0.6657,-0.6036,-0.6152,-0.7045,-0.818,-0.9044,-0.913,-0.8575,-0.7933,-0.7291,-0.6653,-0.6201,-0.6132,-0.6319,-0.6488,-0.6519,-0.6588,-0.6696,-0.682,-0.6874,-0.7031,-0.7348,-0.7921,-0.8432,-0.9022,-0.9656,-1.0167,-1.0424,-1.0365,-1.0548,-1.0766,-0.9519,-0.8691,-0.7536,-0.533,-0.2413,-0.0561,-0.0188,0.1375,0.1295,-0.4071,-0.646,-0.5596,-1.0086,-1.1636,-0.8807,-0.8421,-0.7466,-0.5357,-0.5325,-0.4984,-0.4589,-0.5385,-0.6014,-0.6554,-0.6687,-0.6568,-0.6724,-0.6944,-0.7163,-0.7094,-0.7553,-0.7695,-0.765,-0.7572,-0.7618,-0.7651,-0.7824,-0.8165,-0.8286,-0.8362,-0.8273,-0.7985,-0.7657,-0.7413,-0.7257,-0.7149,-0.7209,-0.7257,-0.702,-0.6691,-0.6258,-0.615,-0.61,-0.6416,-0.7106,-0.7706,-0.8527,-0.8942,-0.9309,-0.9406,-0.9444,-0.9341,-0.9334,-0.9392,-0.954,-0.9754,-0.946,-0.8875,-0.8469,-0.7994,-0.7902,-0.774,-0.7953,-0.804,-0.8239,-0.8306,-0.8191,-0.8326,-0.902,-1.0556,-1.1067,-1.0734,-0.976,-0.814,-0.6416,-0.6495,-0.6756,-0.7535,-0.9642,-1.0677,-1.0261,-0.9335,-0.8456,-0.7548,-0.6367,-0.5784,-0.5788,-0.5822,-0.5786,-0.5851,-0.6041,-0.615,-0.6109,-0.6223,-0.649,-0.6858,-0.7478,-0.8111,-0.8775,-0.9496,-1.003,-1.0319,-1.0471,-1.0681,-1.0478,-0.9882,-0.9316,-0.8433,-0.6152,-0.3705,-0.148,-0.1417,-0.0576,0.0631,-0.6178,-0.7274,-0.5243,-0.9538,-0.9985,-0.6551,-0.5449,-0.5492,-0.4528,-0.481,-0.4347,-0.4572,-0.5295,-0.5697,-0.6343,-0.6565,-0.6355,-0.6181,-0.6456,-0.6706,-0.6967,-0.744,-0.7511,-0.7449,-0.7661,-0.7738,-0.7706,-0.7899,-0.8398,-0.8608,-0.865,-0.8557,-0.8056,-0.7675,-0.6838,-0.6435,-0.688,-0.7017,-0.723,-0.7214,-0.6954,-0.6598,-0.6652,-0.6652,-0.6864,-0.7343,-0.7729,-0.8215,-0.8573,-0.8784,-0.8837,-0.8784,-0.8613,-0.8679,-0.8732,-0.8778,-0.8849,-0.8547,-0.819,-0.7765,-0.7224,-0.6612,-0.6431,-0.6784,-0.7122,-0.7272,-0.7399,-0.7372,-0.9437,-1.0089,-1.1407,-1.1806,-1.1527,-1.0689,-0.8487,-0.6044,-0.6463,-0.6945,-0.7912,-1.142,-1.2884,-1.1858,-1.0656,-0.9108,-0.8009,-0.6628,-0.5471,-0.5418,-0.5199,-0.5169,-0.5295,-0.5449,-0.5559,-0.5513,-0.5673,-0.5941,-0.6337,-0.7149,-0.8057,-0.8897,-0.949,-0.9794,-1.0092,-1.025,-1.0285,-1.0011,-0.9656,-0.9385,-0.8377,-0.6754,-0.4789,-0.3472,-0.2941,-0.2596,-0.3305,-0.5036,-0.7306,-0.56,-0.6178,-0.7886,-0.4552,-0.3521,-0.3742,-0.3425,-0.2718,-0.2993,-0.4565,-0.4661,-0.5627,-0.7816,-0.6997,-0.6256,-0.6038,-0.6384,-0.6671,-0.6969,-0.7321,-0.756,-0.7684,-0.7954,-0.7915,-0.7829,-0.8017,-0.8467,-0.854,-0.8581,-0.8324,-0.7864,-0.7316,-0.6445,-0.5901,-0.6449,-0.6899,-0.7162,-0.7415,-0.7252,-0.7035,-0.7014,-0.7068,-0.7279,-0.7419,-0.7676,-0.7889,-0.815,-0.8309,-0.8315,-0.8209,-0.8103,-0.8049,-0.815,-0.8096,-0.799,-0.7824,-0.7557,-0.702,-0.6475,-0.614,-0.5923,-0.5937,-0.6218,-0.6332,-0.6514,-0.6742,-0.8122,-0.8052,-1.1725,-1.2773,-1.1929,-1.0828,-0.8243,-0.4901,-0.5979,-0.6839,-0.7597,-1.3372,-1.4879,-1.347,-1.2271,-1.0418,-0.836,-0.7001,-0.5719,-0.4927,-0.4718,-0.4671,-0.4604,-0.4739,-0.5014,-0.5238,-0.5403,-0.5622,-0.5922,-0.687,-0.7988,-0.8895,-0.926,-0.9396,-0.9468,-0.956,-0.962,-0.9532,-0.9536,-0.925,-0.8414,-0.7488,-0.5817,-0.4876,-0.4912,-0.5162,-0.595,-0.7497,-0.9114,-0.9081,-0.9155,-0.725,-0.5586,-0.4874,-0.2442,-0.0444,0.0643,-0.1438,-0.3734,-0.3613,-0.5387,-0.738,-0.735,-0.6553,-0.6222,-0.6365,-0.6786,-0.7198,-0.764,-0.7936,-0.8175,-0.8122,-0.8126,-0.8077,-0.8136,-0.8272,-0.8263,-0.8164,-0.7865,-0.7426,-0.6885,-0.6256,-0.583,-0.6122,-0.6873,-0.7262,-0.7591,-0.8034,-0.7784,-0.7313,-0.7362,-0.7389,-0.7518,-0.7521,-0.7723,-0.7883,-0.7937,-0.7996,-0.7836,-0.7729,-0.767,-0.7616,-0.7509,-0.7402,-0.7241,-0.6918,-0.6647,-0.6376,-0.605,-0.5837,-0.5782,-0.5896,-0.6218,-0.6223,-0.6416,-1.2442,-1.2171,-1.2651,-1.2767,-1.2034,-0.8085,-0.5661,-0.524,-0.6884,-0.7703,-0.7786,-1.3857,-1.5415,-1.4131,-1.2119,-1.0344,-0.8553,-0.6845,-0.542,-0.464,-0.4267,-0.4107,-0.4152,-0.4353,-0.4688,-0.4908,-0.5073,-0.5344,-0.5791,-0.6648,-0.7461,-0.8201,-0.8637,-0.8622,-0.8624,-0.8555,-0.8899,-0.9166,-0.9342,-0.9072,-0.8553,-0.7777,-0.6567,-0.629,-0.5743,-0.599,-0.6804,-0.7583,-0.8354,-0.7399,-0.6987,-0.5382,-0.3057,-0.2089,-0.0394,0.0832,0.1449,0.0916,-0.1126,-0.2383,-0.4109,-0.6315,-0.6563,-0.65,-0.6225,-0.6371,-0.6849,-0.737,-0.8017,-0.8417,-0.8572,-0.8508,-0.8431,-0.8353,-0.8332,-0.8343,-0.8326,-0.8171,-0.7864,-0.7138,-0.6581,-0.5973,-0.5605,-0.6207,-0.6903,-0.7305,-0.7773,-0.8316,-0.8437,-0.7942,-0.7616,-0.7648,-0.7535,-0.7521,-0.7456,-0.7563,-0.7616,-0.7676,-0.7568,-0.7408,-0.7295,-0.7187,-0.6972,-0.6864,-0.681,-0.6652,-0.649,-0.6273,-0.6159,-0.6046,-0.5937,-0.5996,-0.6,-0.6059,-0.6173,-1.337,-1.3198,-1.2563,-1.221,-1.1257,-0.6723,-0.4789,-0.5228,-0.6245,-0.7055,-0.871,-1.329,-1.5231,-1.4573,-1.2407,-1.0302,-0.8425,-0.6708,-0.5257,-0.4251,-0.3726,-0.3569,-0.3613,-0.3852,-0.4242,-0.4577,-0.4857,-0.5132,-0.5635,-0.6308,-0.7136,-0.7926,-0.8091,-0.814,-0.8365,-0.8655,-0.8731,-0.892,-0.9011,-0.8915,-0.8488,-0.7962,-0.7326,-0.6694,-0.5913,-0.5958,-0.6244,-0.6805,-0.6199,-0.5244,-0.4911,-0.3668,-0.1627,-0.0456,0.0961,0.212,0.2688,0.1417,-0.0692,-0.1672,-0.3498,-0.5339,-0.6387,-0.6128,-0.624,-0.6396,-0.6921,-0.7487,-0.8315,-0.8926,-0.8914,-0.8968,-0.8751,-0.8595,-0.8537,-0.8477,-0.8436,-0.8303,-0.7727,-0.6987,-0.6304,-0.5616,-0.5646,-0.6332,-0.7003,-0.7646,-0.8251,-0.886,-0.8843,-0.8386,-0.8033,-0.7873,-0.7652,-0.7461,-0.7413,-0.7424,-0.7586,-0.758,-0.7408,-0.7246,-0.6977,-0.6761,-0.6652,-0.6544,-0.6436,-0.6436,-0.6495,-0.649,-0.6376,-0.6263,-0.6159,-0.6109,-0.6005,-0.595,-0.6119,-1.1764,-1.184,-1.1651,-1.0949,-0.9906,-0.6632,-0.5086,-0.4791,-0.4585,-0.6028,-0.9081,-1.225,-1.4121,-1.3801,-1.2024,-1.0003,-0.8195,-0.6478,-0.5034,-0.3944,-0.3272,-0.301,-0.3067,-0.313,-0.3796,-0.4353,-0.4688,-0.4857,-0.5401,-0.6081,-0.6915,-0.7847,-0.8052,-0.8194,-0.8452,-0.8715,-0.8808,-0.8783,-0.8728,-0.8667,-0.8274,-0.7772,-0.7251,-0.6677,-0.6097,-0.5664,-0.5513,-0.5269,-0.4949,-0.4203,-0.3331,-0.2377,-0.0818,0.0499,0.2012,0.2819,0.325,0.2017,0.0057,-0.1225,-0.3572,-0.5627,-0.7279,-0.6407,-0.6242,-0.6616,-0.7242,-0.7731,-0.8511,-0.9108,-0.9279,-0.9086,-0.8914,-0.8667,-0.8531,-0.8382,-0.8206,-0.7939,-0.7366,-0.6696,-0.6053,-0.5485,-0.5636,-0.6262,-0.7095,-0.7906,-0.8623,-0.9261,-0.9092,-0.8687,-0.8364,-0.8075,-0.7795,-0.7537,-0.7438,-0.7498,-0.762,-0.7549,-0.7382,-0.7149,-0.6984,-0.6668,-0.6332,-0.6332,-0.6327,-0.6549,-0.6657,-0.6598,-0.6598,-0.649,-0.6386,-0.6228,-0.6064,-0.5955,-0.6009,-1.0108,-0.986,-0.9554,-0.8669,-0.7359,-0.6379,-0.5254,-0.4168,-0.405,-0.5377,-0.7843,-1.093,-1.2624,-1.225,-1.0798,-0.9011,-0.7641,-0.6085,-0.4717,-0.3643,-0.2845,-0.2575,-0.2631,-0.2738,-0.3405,-0.3965,-0.4356,-0.4653,-0.5306,-0.5958,-0.6567,-0.7241,-0.7564,-0.7855,-0.8389,-0.8681,-0.8655,-0.8726,-0.8679,-0.8463,-0.8067,-0.7838,-0.7474,-0.6651,-0.5943,-0.5687,-0.5512,-0.5243,-0.5204,-0.4843,-0.3461,-0.1854,0.0062,0.1326,0.2018,0.2408,0.3049,0.2259,0.1073,-0.0575,-0.2534,-0.3515,-0.4696,-0.575,-0.6365,-0.6992,-0.7524,-0.8059,-0.8657,-0.9238,-0.9581,-0.9316,-0.9047,-0.8779,-0.8431,-0.8196,-0.797,-0.758,-0.7058,-0.6475,-0.5894,-0.5793,-0.5811,-0.6342,-0.7125,-0.7967,-0.8742,-0.9215,-0.9113,-0.8829,-0.8581,-0.8218,-0.7943,-0.7728,-0.7594,-0.7637,-0.7827,-0.7761,-0.7652,-0.7318,-0.6982,-0.6593,-0.6332,-0.6277,-0.6327,-0.6549,-0.6712,-0.6771,-0.6771,-0.6657,-0.6495,-0.6332,-0.6223,-0.6114,-0.6064,-0.8488,-0.859,-0.8386,-0.7615,-0.6597,-0.6382,-0.5614,-0.467,-0.4832,-0.5495,-0.6495,-0.8706,-1.0144,-1.0428,-0.9252,-0.8063,-0.6907,-0.5557,-0.4407,-0.3366,-0.2558,-0.2237,-0.2238,-0.2293,-0.3072,-0.3691,-0.4204,-0.4692,-0.5257,-0.5643,-0.6184,-0.6905,-0.7219,-0.7623,-0.8222,-0.8398,-0.8603,-0.8896,-0.8783,-0.8457,-0.8036,-0.787,-0.7463,-0.6598,-0.6085,-0.5832,-0.5583,-0.5305,-0.5095,-0.4273,-0.2613,-0.048,0.1194,0.2219,0.259,0.2858,0.2995,0.2792,0.1744,0.0172,-0.1648,-0.2835,-0.4359,-0.6379,-0.6577,-0.7169,-0.8069,-0.8628,-0.9379,-1.0008,-1.0065,-0.9914,-0.9291,-0.8877,-0.8436,-0.806,-0.796,-0.7693,-0.7233,-0.6794,-0.6252,-0.5939,-0.6148,-0.6666,-0.7447,-0.8125,-0.8907,-0.9157,-0.9056,-0.8703,-0.8527,-0.8337,-0.8006,-0.7829,-0.7734,-0.7856,-0.811,-0.8043,-0.7822,-0.7505,-0.713,-0.6648,-0.6332,-0.6386,-0.644,-0.6549,-0.6717,-0.6771,-0.6766,-0.6652,-0.6544,-0.6386,-0.6332,-0.6223,-0.6168,-0.7065,-0.7661,-0.7623,-0.7226,-0.6635,-0.6504,-0.5966,-0.5334,-0.5877,-0.5984,-0.5832,-0.617,-0.7736,-0.8488,-0.8265,-0.7209,-0.6123,-0.5064,-0.4013,-0.3023,-0.2046,-0.1729,-0.1624,-0.1736,-0.2571,-0.3556,-0.4308,-0.4643,-0.507,-0.5426,-0.5943,-0.6711,-0.7208,-0.76,-0.8155,-0.8543,-0.8792,-0.8829,-0.8743,-0.8574,-0.8303,-0.8001,-0.735,-0.6782,-0.6236,-0.5851,-0.5605,-0.5406,-0.5074,-0.3512,-0.1847,0.0,0.1613,0.2492,0.3224,0.3423,0.2977,0.2627,0.1631,-0.0749,-0.2457,-0.4121,-0.5949,-0.7049,-0.7335,-0.7589,-0.8471,-0.9017,-0.978,-1.0242,-1.0292,-0.9945,-0.932,-0.8829,-0.8306,-0.7982,-0.7847,-0.7712,-0.7312,-0.6915,-0.6597,-0.6214,-0.6412,-0.6933,-0.7627,-0.8308,-0.8659,-0.8897,-0.8926,-0.8439,-0.8101,-0.8012,-0.785,-0.7763,-0.7794,-0.8004,-0.8261,-0.8146,-0.792,-0.7615,-0.729,-0.6738,-0.6473,-0.6608,-0.6663,-0.6657,-0.6603,-0.6603,-0.6598,-0.6652,-0.6495,-0.6332,-0.6436,-0.6327,-0.6223,-0.597,-0.6532,-0.6677,-0.644,-0.6008,-0.6161,-0.5815,-0.5306,-0.5787,-0.5864,-0.5624,-0.554,-0.6163,-0.695,-0.6731,-0.6026,-0.5314,-0.4429,-0.3604,-0.2601,-0.1826,-0.1337,-0.1232,-0.1512,-0.2238,-0.3173,-0.4152,-0.4674,-0.479,-0.5137,-0.5713,-0.6329,-0.6735,-0.7349,-0.8224,-0.8579,-0.8783,-0.8804,-0.8782,-0.8604,-0.845,-0.8023,-0.7474,-0.6953,-0.6419,-0.5989,-0.5676,-0.5687,-0.5275,-0.379,-0.1419,-0.0057,0.1231,0.2561,0.358,0.3613,0.3161,0.3102,0.188,-0.1661,-0.3765,-0.5552,-0.7403,-0.9155,-0.8997,-0.83,-0.8814,-0.8875,-0.9504,-0.9982,-0.9942,-0.9231,-0.8639,-0.8355,-0.7917,-0.7917,-0.7852,-0.7587,-0.7256,-0.6929,-0.6666,-0.6346,-0.6218,-0.6872,-0.7652,-0.82,-0.842,-0.8648,-0.8565,-0.8138,-0.7708,-0.7624,-0.758,-0.7768,-0.7865,-0.8075,-0.8244,-0.8143,-0.7954,-0.7528,-0.7072,-0.6701,-0.6604,-0.6663,-0.6663,-0.6652,-0.6598,-0.6495,-0.649,-0.649,-0.6332,-0.6282,-0.6386,-0.6436,-0.6327]}]]